<?xml version="1.0" encoding="UTF-8" standalone="no" ?>
<gpx xmlns="http://www.topografix.com/GPX/1/1" xmlns:xsi="http://www.w3.org/2001/XMLSchema-instance" xsi:schemaLocation="http://www.topografix.com/GPX/1/1 http://www.topografix.com/GPX/1/1/gpx.xsd" version="1.1" creator="VisuGPX - https://www.visugpx.com">
  <metadata>
    <name>StLaurentsevre_MallievreMoulinGuy_11-18km</name>
    <desc><![CDATA[gnerando idor:6542746_6636816_6717107_8386774_]]></desc>
  </metadata>
  <trk>
    <name><![CDATA[StLaurentSevre_Mallievre_16.3km-6717107]]></name>
    <extensions>
      <line xmlns="http://www.topografix.com/GPX/gpx_style/0/2">
        <color>0000FF</color>
        <width>4</width>
      </line>
    </extensions>
    <trkseg>
      <trkpt lat="46.95845" lon="-0.88674">
        <ele>111</ele>
        <time>2023-11-13T07:30:19Z</time>
      </trkpt>
      <trkpt lat="46.95843" lon="-0.88646">
        <ele>111</ele>
        <time>2023-11-13T07:30:45Z</time>
      </trkpt>
      <trkpt lat="46.95819" lon="-0.88607">
        <ele>111</ele>
        <time>2023-11-13T07:31:32Z</time>
      </trkpt>
      <trkpt lat="46.95799" lon="-0.88559">
        <ele>111</ele>
        <time>2023-11-13T07:32:24Z</time>
      </trkpt>
      <trkpt lat="46.95783" lon="-0.88543">
        <ele>111</ele>
        <time>2023-11-13T07:32:50Z</time>
      </trkpt>
      <trkpt lat="46.95759" lon="-0.88502">
        <ele>110</ele>
        <time>2023-11-13T07:33:39Z</time>
      </trkpt>
      <trkpt lat="46.95695" lon="-0.88442">
        <ele>111</ele>
        <time>2023-11-13T07:35:20Z</time>
      </trkpt>
      <trkpt lat="46.95666" lon="-0.88408">
        <ele>111</ele>
        <time>2023-11-13T07:36:10Z</time>
      </trkpt>
      <trkpt lat="46.95631" lon="-0.88388">
        <ele>112</ele>
        <time>2023-11-13T07:37:00Z</time>
      </trkpt>
      <trkpt lat="46.95612" lon="-0.8838">
        <ele>113</ele>
        <time>2023-11-13T07:37:26Z</time>
      </trkpt>
      <trkpt lat="46.95596" lon="-0.88367">
        <ele>114</ele>
        <time>2023-11-13T07:37:51Z</time>
      </trkpt>
      <trkpt lat="46.95583" lon="-0.88348">
        <ele>116</ele>
        <time>2023-11-13T07:38:15Z</time>
      </trkpt>
      <trkpt lat="46.95568" lon="-0.88332">
        <ele>117</ele>
        <time>2023-11-13T07:38:40Z</time>
      </trkpt>
      <trkpt lat="46.95512" lon="-0.88329">
        <ele>115</ele>
        <time>2023-11-13T07:39:55Z</time>
      </trkpt>
      <trkpt lat="46.95495" lon="-0.88339">
        <ele>114</ele>
        <time>2023-11-13T07:40:19Z</time>
      </trkpt>
      <trkpt lat="46.95448" lon="-0.88382">
        <ele>112</ele>
        <time>2023-11-13T07:41:33Z</time>
      </trkpt>
      <trkpt lat="46.9543" lon="-0.8839">
        <ele>112</ele>
        <time>2023-11-13T07:41:58Z</time>
      </trkpt>
      <trkpt lat="46.95411" lon="-0.88395">
        <ele>112</ele>
        <time>2023-11-13T07:42:24Z</time>
      </trkpt>
      <trkpt lat="46.95392" lon="-0.88392">
        <ele>112</ele>
        <time>2023-11-13T07:42:49Z</time>
      </trkpt>
      <trkpt lat="46.95354" lon="-0.88393">
        <ele>113</ele>
        <time>2023-11-13T07:43:40Z</time>
      </trkpt>
      <trkpt lat="46.95337" lon="-0.88381">
        <ele>115</ele>
        <time>2023-11-13T07:44:05Z</time>
      </trkpt>
      <trkpt lat="46.95318" lon="-0.88383">
        <ele>116</ele>
        <time>2023-11-13T07:44:31Z</time>
      </trkpt>
      <trkpt lat="46.95301" lon="-0.88388">
        <ele>117</ele>
        <time>2023-11-13T07:44:54Z</time>
      </trkpt>
      <trkpt lat="46.95284" lon="-0.88398">
        <ele>117</ele>
        <time>2023-11-13T07:45:18Z</time>
      </trkpt>
      <trkpt lat="46.95265" lon="-0.88397">
        <ele>118</ele>
        <time>2023-11-13T07:45:44Z</time>
      </trkpt>
      <trkpt lat="46.95247" lon="-0.8839">
        <ele>120</ele>
        <time>2023-11-13T07:46:09Z</time>
      </trkpt>
      <trkpt lat="46.9521" lon="-0.88395">
        <ele>119</ele>
        <time>2023-11-13T07:46:58Z</time>
      </trkpt>
      <trkpt lat="46.95192" lon="-0.88392">
        <ele>119</ele>
        <time>2023-11-13T07:47:22Z</time>
      </trkpt>
      <trkpt lat="46.95175" lon="-0.88379">
        <ele>120</ele>
        <time>2023-11-13T07:47:48Z</time>
      </trkpt>
      <trkpt lat="46.95158" lon="-0.88372">
        <ele>120</ele>
        <time>2023-11-13T07:48:11Z</time>
      </trkpt>
      <trkpt lat="46.9514" lon="-0.8836">
        <ele>120</ele>
        <time>2023-11-13T07:48:38Z</time>
      </trkpt>
      <trkpt lat="46.95124" lon="-0.88346">
        <ele>121</ele>
        <time>2023-11-13T07:49:03Z</time>
      </trkpt>
      <trkpt lat="46.95109" lon="-0.88328">
        <ele>121</ele>
        <time>2023-11-13T07:49:29Z</time>
      </trkpt>
      <trkpt lat="46.95085" lon="-0.88284">
        <ele>121</ele>
        <time>2023-11-13T07:50:20Z</time>
      </trkpt>
      <trkpt lat="46.95072" lon="-0.88233">
        <ele>123</ele>
        <time>2023-11-13T07:51:10Z</time>
      </trkpt>
      <trkpt lat="46.95061" lon="-0.88211">
        <ele>122</ele>
        <time>2023-11-13T07:51:34Z</time>
      </trkpt>
      <trkpt lat="46.95034" lon="-0.88174">
        <ele>121</ele>
        <time>2023-11-13T07:52:24Z</time>
      </trkpt>
      <trkpt lat="46.95003" lon="-0.8814">
        <ele>119</ele>
        <time>2023-11-13T07:53:15Z</time>
      </trkpt>
      <trkpt lat="46.9499" lon="-0.88121">
        <ele>119</ele>
        <time>2023-11-13T07:53:40Z</time>
      </trkpt>
      <trkpt lat="46.94956" lon="-0.88054">
        <ele>120</ele>
        <time>2023-11-13T07:54:56Z</time>
      </trkpt>
      <trkpt lat="46.94943" lon="-0.88034">
        <ele>121</ele>
        <time>2023-11-13T07:55:21Z</time>
      </trkpt>
      <trkpt lat="46.94928" lon="-0.88019">
        <ele>121</ele>
        <time>2023-11-13T07:55:45Z</time>
      </trkpt>
      <trkpt lat="46.94915" lon="-0.87998">
        <ele>122</ele>
        <time>2023-11-13T07:56:11Z</time>
      </trkpt>
      <trkpt lat="46.9488" lon="-0.87904">
        <ele>127</ele>
        <time>2023-11-13T07:57:49Z</time>
      </trkpt>
      <trkpt lat="46.94883" lon="-0.87823">
        <ele>134</ele>
        <time>2023-11-13T07:59:03Z</time>
      </trkpt>
      <trkpt lat="46.94878" lon="-0.87797">
        <ele>134</ele>
        <time>2023-11-13T07:59:27Z</time>
      </trkpt>
      <trkpt lat="46.9487" lon="-0.87772">
        <ele>135</ele>
        <time>2023-11-13T07:59:52Z</time>
      </trkpt>
      <trkpt lat="46.94867" lon="-0.87746">
        <ele>135</ele>
        <time>2023-11-13T08:00:16Z</time>
      </trkpt>
      <trkpt lat="46.94872" lon="-0.87719">
        <ele>137</ele>
        <time>2023-11-13T08:00:42Z</time>
      </trkpt>
      <trkpt lat="46.94822" lon="-0.87757">
        <ele>134</ele>
        <time>2023-11-13T08:01:57Z</time>
      </trkpt>
      <trkpt lat="46.94787" lon="-0.87775">
        <ele>136</ele>
        <time>2023-11-13T08:02:47Z</time>
      </trkpt>
      <trkpt lat="46.94766" lon="-0.8782">
        <ele>133</ele>
        <time>2023-11-13T08:03:36Z</time>
      </trkpt>
      <trkpt lat="46.94758" lon="-0.87844">
        <ele>131</ele>
        <time>2023-11-13T08:04:00Z</time>
      </trkpt>
      <trkpt lat="46.94737" lon="-0.87948">
        <ele>122</ele>
        <time>2023-11-13T08:05:39Z</time>
      </trkpt>
      <trkpt lat="46.94737" lon="-0.87974">
        <ele>121</ele>
        <time>2023-11-13T08:06:03Z</time>
      </trkpt>
      <trkpt lat="46.94731" lon="-0.88001">
        <ele>120</ele>
        <time>2023-11-13T08:06:29Z</time>
      </trkpt>
      <trkpt lat="46.94717" lon="-0.8802">
        <ele>121</ele>
        <time>2023-11-13T08:06:54Z</time>
      </trkpt>
      <trkpt lat="46.947" lon="-0.8803">
        <ele>121</ele>
        <time>2023-11-13T08:07:19Z</time>
      </trkpt>
      <trkpt lat="46.94682" lon="-0.88037">
        <ele>122</ele>
        <time>2023-11-13T08:07:44Z</time>
      </trkpt>
      <trkpt lat="46.94648" lon="-0.88017">
        <ele>126</ele>
        <time>2023-11-13T08:08:33Z</time>
      </trkpt>
      <trkpt lat="46.94611" lon="-0.88006">
        <ele>132</ele>
        <time>2023-11-13T08:09:23Z</time>
      </trkpt>
      <trkpt lat="46.94594" lon="-0.88015">
        <ele>133</ele>
        <time>2023-11-13T08:09:47Z</time>
      </trkpt>
      <trkpt lat="46.94574" lon="-0.88009">
        <ele>136</ele>
        <time>2023-11-13T08:10:14Z</time>
      </trkpt>
      <trkpt lat="46.94563" lon="-0.87988">
        <ele>140</ele>
        <time>2023-11-13T08:10:38Z</time>
      </trkpt>
      <trkpt lat="46.94553" lon="-0.87936">
        <ele>145</ele>
        <time>2023-11-13T08:11:28Z</time>
      </trkpt>
      <trkpt lat="46.94522" lon="-0.87908">
        <ele>149</ele>
        <time>2023-11-13T08:12:16Z</time>
      </trkpt>
      <trkpt lat="46.94517" lon="-0.87882">
        <ele>151</ele>
        <time>2023-11-13T08:12:41Z</time>
      </trkpt>
      <trkpt lat="46.94523" lon="-0.87856">
        <ele>153</ele>
        <time>2023-11-13T08:13:06Z</time>
      </trkpt>
      <trkpt lat="46.94539" lon="-0.87842">
        <ele>153</ele>
        <time>2023-11-13T08:13:31Z</time>
      </trkpt>
      <trkpt lat="46.94549" lon="-0.8782">
        <ele>155</ele>
        <time>2023-11-13T08:13:55Z</time>
      </trkpt>
      <trkpt lat="46.94556" lon="-0.87795">
        <ele>156</ele>
        <time>2023-11-13T08:14:19Z</time>
      </trkpt>
      <trkpt lat="46.94571" lon="-0.87777">
        <ele>158</ele>
        <time>2023-11-13T08:14:45Z</time>
      </trkpt>
      <trkpt lat="46.94574" lon="-0.8775">
        <ele>160</ele>
        <time>2023-11-13T08:15:10Z</time>
      </trkpt>
      <trkpt lat="46.94585" lon="-0.87729">
        <ele>160</ele>
        <time>2023-11-13T08:15:34Z</time>
      </trkpt>
      <trkpt lat="46.94566" lon="-0.87683">
        <ele>160</ele>
        <time>2023-11-13T08:16:23Z</time>
      </trkpt>
      <trkpt lat="46.94562" lon="-0.87657">
        <ele>160</ele>
        <time>2023-11-13T08:16:48Z</time>
      </trkpt>
      <trkpt lat="46.94563" lon="-0.8763">
        <ele>160</ele>
        <time>2023-11-13T08:17:12Z</time>
      </trkpt>
      <trkpt lat="46.94607" lon="-0.87543">
        <ele>157</ele>
        <time>2023-11-13T08:18:51Z</time>
      </trkpt>
      <trkpt lat="46.94702" lon="-0.87377">
        <ele>160</ele>
        <time>2023-11-13T08:22:08Z</time>
      </trkpt>
      <trkpt lat="46.94711" lon="-0.87354">
        <ele>160</ele>
        <time>2023-11-13T08:22:32Z</time>
      </trkpt>
      <trkpt lat="46.94708" lon="-0.87328">
        <ele>160</ele>
        <time>2023-11-13T08:22:56Z</time>
      </trkpt>
      <trkpt lat="46.94691" lon="-0.87315">
        <ele>161</ele>
        <time>2023-11-13T08:23:22Z</time>
      </trkpt>
      <trkpt lat="46.94677" lon="-0.87298">
        <ele>161</ele>
        <time>2023-11-13T08:23:46Z</time>
      </trkpt>
      <trkpt lat="46.9462" lon="-0.87226">
        <ele>164</ele>
        <time>2023-11-13T08:25:27Z</time>
      </trkpt>
      <trkpt lat="46.94593" lon="-0.87188">
        <ele>166</ele>
        <time>2023-11-13T08:26:17Z</time>
      </trkpt>
      <trkpt lat="46.94558" lon="-0.87126">
        <ele>170</ele>
        <time>2023-11-13T08:27:30Z</time>
      </trkpt>
      <trkpt lat="46.94538" lon="-0.87081">
        <ele>172</ele>
        <time>2023-11-13T08:28:19Z</time>
      </trkpt>
      <trkpt lat="46.94486" lon="-0.87003">
        <ele>171</ele>
        <time>2023-11-13T08:29:58Z</time>
      </trkpt>
      <trkpt lat="46.94432" lon="-0.8693">
        <ele>168</ele>
        <time>2023-11-13T08:31:36Z</time>
      </trkpt>
      <trkpt lat="46.94393" lon="-0.86872">
        <ele>166</ele>
        <time>2023-11-13T08:32:50Z</time>
      </trkpt>
      <trkpt lat="46.94382" lon="-0.8685">
        <ele>166</ele>
        <time>2023-11-13T08:33:15Z</time>
      </trkpt>
      <trkpt lat="46.94355" lon="-0.86814">
        <ele>165</ele>
        <time>2023-11-13T08:34:04Z</time>
      </trkpt>
      <trkpt lat="46.94292" lon="-0.86754">
        <ele>163</ele>
        <time>2023-11-13T08:35:44Z</time>
      </trkpt>
      <trkpt lat="46.94248" lon="-0.86703">
        <ele>164</ele>
        <time>2023-11-13T08:36:59Z</time>
      </trkpt>
      <trkpt lat="46.94181" lon="-0.8661">
        <ele>161</ele>
        <time>2023-11-13T08:39:02Z</time>
      </trkpt>
      <trkpt lat="46.94136" lon="-0.86562">
        <ele>159</ele>
        <time>2023-11-13T08:40:17Z</time>
      </trkpt>
      <trkpt lat="46.94089" lon="-0.86519">
        <ele>156</ele>
        <time>2023-11-13T08:41:30Z</time>
      </trkpt>
      <trkpt lat="46.94039" lon="-0.86484">
        <ele>153</ele>
        <time>2023-11-13T08:42:44Z</time>
      </trkpt>
      <trkpt lat="46.94021" lon="-0.86476">
        <ele>152</ele>
        <time>2023-11-13T08:43:10Z</time>
      </trkpt>
      <trkpt lat="46.9399" lon="-0.86445">
        <ele>151</ele>
        <time>2023-11-13T08:44:00Z</time>
      </trkpt>
      <trkpt lat="46.93965" lon="-0.86405">
        <ele>152</ele>
        <time>2023-11-13T08:44:49Z</time>
      </trkpt>
      <trkpt lat="46.93948" lon="-0.86329">
        <ele>154</ele>
        <time>2023-11-13T08:46:02Z</time>
      </trkpt>
      <trkpt lat="46.9393" lon="-0.8628">
        <ele>155</ele>
        <time>2023-11-13T08:46:53Z</time>
      </trkpt>
      <trkpt lat="46.93919" lon="-0.86258">
        <ele>155</ele>
        <time>2023-11-13T08:47:17Z</time>
      </trkpt>
      <trkpt lat="46.93894" lon="-0.8622">
        <ele>155</ele>
        <time>2023-11-13T08:48:06Z</time>
      </trkpt>
      <trkpt lat="46.93879" lon="-0.86203">
        <ele>155</ele>
        <time>2023-11-13T08:48:31Z</time>
      </trkpt>
      <trkpt lat="46.93816" lon="-0.86144">
        <ele>156</ele>
        <time>2023-11-13T08:50:11Z</time>
      </trkpt>
      <trkpt lat="46.93773" lon="-0.86097">
        <ele>159</ele>
        <time>2023-11-13T08:51:22Z</time>
      </trkpt>
      <trkpt lat="46.9368" lon="-0.86004">
        <ele>165</ele>
        <time>2023-11-13T08:53:53Z</time>
      </trkpt>
      <trkpt lat="46.93664" lon="-0.85991">
        <ele>166</ele>
        <time>2023-11-13T08:54:17Z</time>
      </trkpt>
      <trkpt lat="46.93612" lon="-0.8596">
        <ele>166</ele>
        <time>2023-11-13T08:55:32Z</time>
      </trkpt>
      <trkpt lat="46.93606" lon="-0.85986">
        <ele>166</ele>
        <time>2023-11-13T08:55:57Z</time>
      </trkpt>
      <trkpt lat="46.93606" lon="-0.86012">
        <ele>166</ele>
        <time>2023-11-13T08:56:21Z</time>
      </trkpt>
      <trkpt lat="46.93592" lon="-0.86031">
        <ele>166</ele>
        <time>2023-11-13T08:56:46Z</time>
      </trkpt>
      <trkpt lat="46.93539" lon="-0.86059">
        <ele>164</ele>
        <time>2023-11-13T08:58:01Z</time>
      </trkpt>
      <trkpt lat="46.93522" lon="-0.86071">
        <ele>164</ele>
        <time>2023-11-13T08:58:26Z</time>
      </trkpt>
      <trkpt lat="46.93473" lon="-0.86111">
        <ele>163</ele>
        <time>2023-11-13T08:59:41Z</time>
      </trkpt>
      <trkpt lat="46.93444" lon="-0.86144">
        <ele>163</ele>
        <time>2023-11-13T09:00:30Z</time>
      </trkpt>
      <trkpt lat="46.93412" lon="-0.8621">
        <ele>162</ele>
        <time>2023-11-13T09:01:44Z</time>
      </trkpt>
      <trkpt lat="46.93385" lon="-0.86281">
        <ele>159</ele>
        <time>2023-11-13T09:02:58Z</time>
      </trkpt>
      <trkpt lat="46.93374" lon="-0.86303">
        <ele>158</ele>
        <time>2023-11-13T09:03:23Z</time>
      </trkpt>
      <trkpt lat="46.93367" lon="-0.86329">
        <ele>158</ele>
        <time>2023-11-13T09:03:48Z</time>
      </trkpt>
      <trkpt lat="46.93358" lon="-0.86437">
        <ele>157</ele>
        <time>2023-11-13T09:05:28Z</time>
      </trkpt>
      <trkpt lat="46.93365" lon="-0.86462">
        <ele>156</ele>
        <time>2023-11-13T09:05:52Z</time>
      </trkpt>
      <trkpt lat="46.93388" lon="-0.86504">
        <ele>153</ele>
        <time>2023-11-13T09:06:41Z</time>
      </trkpt>
      <trkpt lat="46.93416" lon="-0.86541">
        <ele>150</ele>
        <time>2023-11-13T09:07:32Z</time>
      </trkpt>
      <trkpt lat="46.93431" lon="-0.86554">
        <ele>149</ele>
        <time>2023-11-13T09:07:55Z</time>
      </trkpt>
      <trkpt lat="46.9345" lon="-0.86563">
        <ele>148</ele>
        <time>2023-11-13T09:08:21Z</time>
      </trkpt>
      <trkpt lat="46.93458" lon="-0.86587">
        <ele>146</ele>
        <time>2023-11-13T09:08:46Z</time>
      </trkpt>
      <trkpt lat="46.93443" lon="-0.86664">
        <ele>138</ele>
        <time>2023-11-13T09:09:59Z</time>
      </trkpt>
      <trkpt lat="46.93434" lon="-0.86688">
        <ele>136</ele>
        <time>2023-11-13T09:10:24Z</time>
      </trkpt>
      <trkpt lat="46.9343" lon="-0.86713">
        <ele>134</ele>
        <time>2023-11-13T09:10:47Z</time>
      </trkpt>
      <trkpt lat="46.93411" lon="-0.86789">
        <ele>127</ele>
        <time>2023-11-13T09:12:01Z</time>
      </trkpt>
      <trkpt lat="46.93402" lon="-0.86813">
        <ele>125</ele>
        <time>2023-11-13T09:12:26Z</time>
      </trkpt>
      <trkpt lat="46.93389" lon="-0.86832">
        <ele>124</ele>
        <time>2023-11-13T09:12:50Z</time>
      </trkpt>
      <trkpt lat="46.93373" lon="-0.86848">
        <ele>125</ele>
        <time>2023-11-13T09:13:16Z</time>
      </trkpt>
      <trkpt lat="46.93357" lon="-0.8686">
        <ele>125</ele>
        <time>2023-11-13T09:13:40Z</time>
      </trkpt>
      <trkpt lat="46.93301" lon="-0.86862">
        <ele>126</ele>
        <time>2023-11-13T09:14:55Z</time>
      </trkpt>
      <trkpt lat="46.93283" lon="-0.86856">
        <ele>126</ele>
        <time>2023-11-13T09:15:20Z</time>
      </trkpt>
      <trkpt lat="46.93264" lon="-0.86856">
        <ele>127</ele>
        <time>2023-11-13T09:15:45Z</time>
      </trkpt>
      <trkpt lat="46.93246" lon="-0.86862">
        <ele>126</ele>
        <time>2023-11-13T09:16:10Z</time>
      </trkpt>
      <trkpt lat="46.93209" lon="-0.86855">
        <ele>126</ele>
        <time>2023-11-13T09:16:59Z</time>
      </trkpt>
      <trkpt lat="46.93193" lon="-0.86841">
        <ele>126</ele>
        <time>2023-11-13T09:17:24Z</time>
      </trkpt>
      <trkpt lat="46.93174" lon="-0.86835">
        <ele>126</ele>
        <time>2023-11-13T09:17:50Z</time>
      </trkpt>
      <trkpt lat="46.93156" lon="-0.86839">
        <ele>125</ele>
        <time>2023-11-13T09:18:14Z</time>
      </trkpt>
      <trkpt lat="46.93139" lon="-0.8683">
        <ele>125</ele>
        <time>2023-11-13T09:18:39Z</time>
      </trkpt>
      <trkpt lat="46.93124" lon="-0.86815">
        <ele>125</ele>
        <time>2023-11-13T09:19:03Z</time>
      </trkpt>
      <trkpt lat="46.93133" lon="-0.86791">
        <ele>127</ele>
        <time>2023-11-13T09:19:28Z</time>
      </trkpt>
      <trkpt lat="46.93124" lon="-0.86767">
        <ele>127</ele>
        <time>2023-11-13T09:19:53Z</time>
      </trkpt>
      <trkpt lat="46.93104" lon="-0.86692">
        <ele>126</ele>
        <time>2023-11-13T09:21:06Z</time>
      </trkpt>
      <trkpt lat="46.93072" lon="-0.86595">
        <ele>124</ele>
        <time>2023-11-13T09:22:44Z</time>
      </trkpt>
      <trkpt lat="46.93059" lon="-0.86575">
        <ele>124</ele>
        <time>2023-11-13T09:23:09Z</time>
      </trkpt>
      <trkpt lat="46.93023" lon="-0.86591">
        <ele>122</ele>
        <time>2023-11-13T09:24:00Z</time>
      </trkpt>
      <trkpt lat="46.92988" lon="-0.8661">
        <ele>121</ele>
        <time>2023-11-13T09:24:49Z</time>
      </trkpt>
      <trkpt lat="46.9297" lon="-0.8661">
        <ele>121</ele>
        <time>2023-11-13T09:25:13Z</time>
      </trkpt>
      <trkpt lat="46.92892" lon="-0.86535">
        <ele>126</ele>
        <time>2023-11-13T09:27:18Z</time>
      </trkpt>
      <trkpt lat="46.92875" lon="-0.86527">
        <ele>128</ele>
        <time>2023-11-13T09:27:42Z</time>
      </trkpt>
      <trkpt lat="46.92828" lon="-0.86569">
        <ele>133</ele>
        <time>2023-11-13T09:28:55Z</time>
      </trkpt>
      <trkpt lat="46.92818" lon="-0.86591">
        <ele>135</ele>
        <time>2023-11-13T09:29:19Z</time>
      </trkpt>
      <trkpt lat="46.92801" lon="-0.86601">
        <ele>139</ele>
        <time>2023-11-13T09:29:44Z</time>
      </trkpt>
      <trkpt lat="46.92767" lon="-0.86581">
        <ele>150</ele>
        <time>2023-11-13T09:30:33Z</time>
      </trkpt>
      <trkpt lat="46.92749" lon="-0.86579">
        <ele>155</ele>
        <time>2023-11-13T09:30:57Z</time>
      </trkpt>
      <trkpt lat="46.92732" lon="-0.86567">
        <ele>158</ele>
        <time>2023-11-13T09:31:22Z</time>
      </trkpt>
      <trkpt lat="46.92714" lon="-0.86565">
        <ele>160</ele>
        <time>2023-11-13T09:31:46Z</time>
      </trkpt>
      <trkpt lat="46.92697" lon="-0.86572">
        <ele>162</ele>
        <time>2023-11-13T09:32:10Z</time>
      </trkpt>
      <trkpt lat="46.92665" lon="-0.86602">
        <ele>164</ele>
        <time>2023-11-13T09:33:00Z</time>
      </trkpt>
      <trkpt lat="46.92647" lon="-0.86611">
        <ele>165</ele>
        <time>2023-11-13T09:33:26Z</time>
      </trkpt>
      <trkpt lat="46.92572" lon="-0.86626">
        <ele>170</ele>
        <time>2023-11-13T09:35:07Z</time>
      </trkpt>
      <trkpt lat="46.92555" lon="-0.86634">
        <ele>172</ele>
        <time>2023-11-13T09:35:31Z</time>
      </trkpt>
      <trkpt lat="46.92536" lon="-0.86638">
        <ele>173</ele>
        <time>2023-11-13T09:35:56Z</time>
      </trkpt>
      <trkpt lat="46.92463" lon="-0.86635">
        <ele>179</ele>
        <time>2023-11-13T09:37:34Z</time>
      </trkpt>
      <trkpt lat="46.92445" lon="-0.86632">
        <ele>180</ele>
        <time>2023-11-13T09:37:58Z</time>
      </trkpt>
      <trkpt lat="46.92427" lon="-0.86638">
        <ele>181</ele>
        <time>2023-11-13T09:38:22Z</time>
      </trkpt>
      <trkpt lat="46.92409" lon="-0.86634">
        <ele>183</ele>
        <time>2023-11-13T09:38:47Z</time>
      </trkpt>
      <trkpt lat="46.92374" lon="-0.86614">
        <ele>185</ele>
        <time>2023-11-13T09:39:37Z</time>
      </trkpt>
      <trkpt lat="46.92364" lon="-0.86591">
        <ele>186</ele>
        <time>2023-11-13T09:40:02Z</time>
      </trkpt>
      <trkpt lat="46.92346" lon="-0.8659">
        <ele>186</ele>
        <time>2023-11-13T09:40:26Z</time>
      </trkpt>
      <trkpt lat="46.92328" lon="-0.86601">
        <ele>187</ele>
        <time>2023-11-13T09:40:52Z</time>
      </trkpt>
      <trkpt lat="46.92311" lon="-0.86608">
        <ele>187</ele>
        <time>2023-11-13T09:41:15Z</time>
      </trkpt>
      <trkpt lat="46.92275" lon="-0.86617">
        <ele>186</ele>
        <time>2023-11-13T09:42:04Z</time>
      </trkpt>
      <trkpt lat="46.92257" lon="-0.86624">
        <ele>186</ele>
        <time>2023-11-13T09:42:29Z</time>
      </trkpt>
      <trkpt lat="46.92206" lon="-0.86655">
        <ele>184</ele>
        <time>2023-11-13T09:43:43Z</time>
      </trkpt>
      <trkpt lat="46.92188" lon="-0.86662">
        <ele>184</ele>
        <time>2023-11-13T09:44:07Z</time>
      </trkpt>
      <trkpt lat="46.92151" lon="-0.86667">
        <ele>182</ele>
        <time>2023-11-13T09:44:57Z</time>
      </trkpt>
      <trkpt lat="46.92076" lon="-0.86664">
        <ele>179</ele>
        <time>2023-11-13T09:46:37Z</time>
      </trkpt>
      <trkpt lat="46.92021" lon="-0.86652">
        <ele>176</ele>
        <time>2023-11-13T09:47:51Z</time>
      </trkpt>
      <trkpt lat="46.91947" lon="-0.86651">
        <ele>172</ele>
        <time>2023-11-13T09:49:30Z</time>
      </trkpt>
      <trkpt lat="46.9193" lon="-0.86642">
        <ele>171</ele>
        <time>2023-11-13T09:49:54Z</time>
      </trkpt>
      <trkpt lat="46.91912" lon="-0.86641">
        <ele>170</ele>
        <time>2023-11-13T09:50:18Z</time>
      </trkpt>
      <trkpt lat="46.91894" lon="-0.86648">
        <ele>169</ele>
        <time>2023-11-13T09:50:43Z</time>
      </trkpt>
      <trkpt lat="46.91875" lon="-0.86645">
        <ele>167</ele>
        <time>2023-11-13T09:51:09Z</time>
      </trkpt>
      <trkpt lat="46.91838" lon="-0.86644">
        <ele>164</ele>
        <time>2023-11-13T09:51:58Z</time>
      </trkpt>
      <trkpt lat="46.91801" lon="-0.86636">
        <ele>162</ele>
        <time>2023-11-13T09:52:48Z</time>
      </trkpt>
      <trkpt lat="46.91765" lon="-0.86624">
        <ele>160</ele>
        <time>2023-11-13T09:53:37Z</time>
      </trkpt>
      <trkpt lat="46.91731" lon="-0.86602">
        <ele>158</ele>
        <time>2023-11-13T09:54:27Z</time>
      </trkpt>
      <trkpt lat="46.91685" lon="-0.86562">
        <ele>156</ele>
        <time>2023-11-13T09:55:38Z</time>
      </trkpt>
      <trkpt lat="46.91649" lon="-0.86541">
        <ele>153</ele>
        <time>2023-11-13T09:56:30Z</time>
      </trkpt>
      <trkpt lat="46.91635" lon="-0.86522">
        <ele>153</ele>
        <time>2023-11-13T09:56:55Z</time>
      </trkpt>
      <trkpt lat="46.9162" lon="-0.86507">
        <ele>152</ele>
        <time>2023-11-13T09:57:20Z</time>
      </trkpt>
      <trkpt lat="46.91602" lon="-0.86514">
        <ele>150</ele>
        <time>2023-11-13T09:57:44Z</time>
      </trkpt>
      <trkpt lat="46.91568" lon="-0.86536">
        <ele>149</ele>
        <time>2023-11-13T09:58:34Z</time>
      </trkpt>
      <trkpt lat="46.9155" lon="-0.86543">
        <ele>148</ele>
        <time>2023-11-13T09:58:59Z</time>
      </trkpt>
      <trkpt lat="46.9152" lon="-0.86572">
        <ele>147</ele>
        <time>2023-11-13T09:59:47Z</time>
      </trkpt>
      <trkpt lat="46.91407" lon="-0.86664">
        <ele>142</ele>
        <time>2023-11-13T10:02:39Z</time>
      </trkpt>
      <trkpt lat="46.91325" lon="-0.86723">
        <ele>139</ele>
        <time>2023-11-13T10:04:41Z</time>
      </trkpt>
      <trkpt lat="46.91319" lon="-0.86749">
        <ele>138</ele>
        <time>2023-11-13T10:05:06Z</time>
      </trkpt>
      <trkpt lat="46.91325" lon="-0.86774">
        <ele>137</ele>
        <time>2023-11-13T10:05:31Z</time>
      </trkpt>
      <trkpt lat="46.91328" lon="-0.868">
        <ele>135</ele>
        <time>2023-11-13T10:05:55Z</time>
      </trkpt>
      <trkpt lat="46.91335" lon="-0.86825">
        <ele>134</ele>
        <time>2023-11-13T10:06:19Z</time>
      </trkpt>
      <trkpt lat="46.91338" lon="-0.86851">
        <ele>132</ele>
        <time>2023-11-13T10:06:43Z</time>
      </trkpt>
      <trkpt lat="46.91328" lon="-0.86875">
        <ele>130</ele>
        <time>2023-11-13T10:07:09Z</time>
      </trkpt>
      <trkpt lat="46.9131" lon="-0.86878">
        <ele>130</ele>
        <time>2023-11-13T10:07:33Z</time>
      </trkpt>
      <trkpt lat="46.91274" lon="-0.86878">
        <ele>129</ele>
        <time>2023-11-13T10:08:21Z</time>
      </trkpt>
      <trkpt lat="46.91255" lon="-0.86875">
        <ele>129</ele>
        <time>2023-11-13T10:08:47Z</time>
      </trkpt>
      <trkpt lat="46.91239" lon="-0.86865">
        <ele>129</ele>
        <time>2023-11-13T10:09:10Z</time>
      </trkpt>
      <trkpt lat="46.91225" lon="-0.86847">
        <ele>130</ele>
        <time>2023-11-13T10:09:35Z</time>
      </trkpt>
      <trkpt lat="46.91204" lon="-0.86803">
        <ele>131</ele>
        <time>2023-11-13T10:10:24Z</time>
      </trkpt>
      <trkpt lat="46.91187" lon="-0.86755">
        <ele>131</ele>
        <time>2023-11-13T10:11:13Z</time>
      </trkpt>
      <trkpt lat="46.91172" lon="-0.86741">
        <ele>131</ele>
        <time>2023-11-13T10:11:37Z</time>
      </trkpt>
      <trkpt lat="46.91153" lon="-0.86737">
        <ele>130</ele>
        <time>2023-11-13T10:12:02Z</time>
      </trkpt>
      <trkpt lat="46.91137" lon="-0.86724">
        <ele>130</ele>
        <time>2023-11-13T10:12:27Z</time>
      </trkpt>
      <trkpt lat="46.9112" lon="-0.86716">
        <ele>129</ele>
        <time>2023-11-13T10:12:51Z</time>
      </trkpt>
      <trkpt lat="46.91115" lon="-0.8669">
        <ele>130</ele>
        <time>2023-11-13T10:13:15Z</time>
      </trkpt>
      <trkpt lat="46.91123" lon="-0.86666">
        <ele>131</ele>
        <time>2023-11-13T10:13:39Z</time>
      </trkpt>
      <trkpt lat="46.91112" lon="-0.86587">
        <ele>131</ele>
        <time>2023-11-13T10:14:53Z</time>
      </trkpt>
      <trkpt lat="46.91104" lon="-0.86563">
        <ele>132</ele>
        <time>2023-11-13T10:15:17Z</time>
      </trkpt>
      <trkpt lat="46.91118" lon="-0.86513">
        <ele>138</ele>
        <time>2023-11-13T10:16:07Z</time>
      </trkpt>
      <trkpt lat="46.911" lon="-0.86465">
        <ele>142</ele>
        <time>2023-11-13T10:16:57Z</time>
      </trkpt>
      <trkpt lat="46.91096" lon="-0.86386">
        <ele>149</ele>
        <time>2023-11-13T10:18:09Z</time>
      </trkpt>
      <trkpt lat="46.91078" lon="-0.86391">
        <ele>149</ele>
        <time>2023-11-13T10:18:33Z</time>
      </trkpt>
      <trkpt lat="46.91079" lon="-0.86418">
        <ele>148</ele>
        <time>2023-11-13T10:18:58Z</time>
      </trkpt>
      <trkpt lat="46.91089" lon="-0.86395">
        <ele>149</ele>
        <time>2023-11-13T10:19:23Z</time>
      </trkpt>
      <trkpt lat="46.91106" lon="-0.86385">
        <ele>149</ele>
        <time>2023-11-13T10:19:47Z</time>
      </trkpt>
      <trkpt lat="46.9112" lon="-0.86403">
        <ele>148</ele>
        <time>2023-11-13T10:20:12Z</time>
      </trkpt>
      <trkpt lat="46.91156" lon="-0.86392">
        <ele>149</ele>
        <time>2023-11-13T10:21:01Z</time>
      </trkpt>
      <trkpt lat="46.91173" lon="-0.86384">
        <ele>149</ele>
        <time>2023-11-13T10:21:25Z</time>
      </trkpt>
      <trkpt lat="46.91191" lon="-0.86385">
        <ele>148</ele>
        <time>2023-11-13T10:21:49Z</time>
      </trkpt>
      <trkpt lat="46.91202" lon="-0.86406">
        <ele>147</ele>
        <time>2023-11-13T10:22:13Z</time>
      </trkpt>
      <trkpt lat="46.91206" lon="-0.86459">
        <ele>142</ele>
        <time>2023-11-13T10:23:02Z</time>
      </trkpt>
      <trkpt lat="46.91222" lon="-0.86447">
        <ele>143</ele>
        <time>2023-11-13T10:23:26Z</time>
      </trkpt>
      <trkpt lat="46.91205" lon="-0.86457">
        <ele>143</ele>
        <time>2023-11-13T10:23:50Z</time>
      </trkpt>
      <trkpt lat="46.91201" lon="-0.86483">
        <ele>140</ele>
        <time>2023-11-13T10:24:14Z</time>
      </trkpt>
      <trkpt lat="46.91194" lon="-0.86507">
        <ele>139</ele>
        <time>2023-11-13T10:24:38Z</time>
      </trkpt>
      <trkpt lat="46.9118" lon="-0.86526">
        <ele>139</ele>
        <time>2023-11-13T10:25:04Z</time>
      </trkpt>
      <trkpt lat="46.91197" lon="-0.86534">
        <ele>138</ele>
        <time>2023-11-13T10:25:28Z</time>
      </trkpt>
      <trkpt lat="46.91206" lon="-0.86557">
        <ele>137</ele>
        <time>2023-11-13T10:25:52Z</time>
      </trkpt>
      <trkpt lat="46.91203" lon="-0.86584">
        <ele>136</ele>
        <time>2023-11-13T10:26:17Z</time>
      </trkpt>
      <trkpt lat="46.91197" lon="-0.8661">
        <ele>136</ele>
        <time>2023-11-13T10:26:42Z</time>
      </trkpt>
      <trkpt lat="46.91191" lon="-0.86665">
        <ele>135</ele>
        <time>2023-11-13T10:27:32Z</time>
      </trkpt>
      <trkpt lat="46.91179" lon="-0.86717">
        <ele>132</ele>
        <time>2023-11-13T10:28:22Z</time>
      </trkpt>
      <trkpt lat="46.91186" lon="-0.86742">
        <ele>132</ele>
        <time>2023-11-13T10:28:47Z</time>
      </trkpt>
      <trkpt lat="46.91178" lon="-0.86767">
        <ele>130</ele>
        <time>2023-11-13T10:29:12Z</time>
      </trkpt>
      <trkpt lat="46.91183" lon="-0.86742">
        <ele>131</ele>
        <time>2023-11-13T10:29:36Z</time>
      </trkpt>
      <trkpt lat="46.91194" lon="-0.86763">
        <ele>131</ele>
        <time>2023-11-13T10:30:00Z</time>
      </trkpt>
      <trkpt lat="46.91211" lon="-0.86812">
        <ele>131</ele>
        <time>2023-11-13T10:30:50Z</time>
      </trkpt>
      <trkpt lat="46.91237" lon="-0.8685">
        <ele>130</ele>
        <time>2023-11-13T10:31:39Z</time>
      </trkpt>
      <trkpt lat="46.91252" lon="-0.86865">
        <ele>130</ele>
        <time>2023-11-13T10:32:03Z</time>
      </trkpt>
      <trkpt lat="46.9127" lon="-0.86871">
        <ele>130</ele>
        <time>2023-11-13T10:32:28Z</time>
      </trkpt>
      <trkpt lat="46.91307" lon="-0.86874">
        <ele>130</ele>
        <time>2023-11-13T10:33:18Z</time>
      </trkpt>
      <trkpt lat="46.91324" lon="-0.86886">
        <ele>129</ele>
        <time>2023-11-13T10:33:43Z</time>
      </trkpt>
      <trkpt lat="46.91338" lon="-0.86903">
        <ele>128</ele>
        <time>2023-11-13T10:34:07Z</time>
      </trkpt>
      <trkpt lat="46.91338" lon="-0.86931">
        <ele>127</ele>
        <time>2023-11-13T10:34:33Z</time>
      </trkpt>
      <trkpt lat="46.91348" lon="-0.86983">
        <ele>126</ele>
        <time>2023-11-13T10:35:22Z</time>
      </trkpt>
      <trkpt lat="46.91361" lon="-0.87002">
        <ele>126</ele>
        <time>2023-11-13T10:35:46Z</time>
      </trkpt>
      <trkpt lat="46.9141" lon="-0.87039">
        <ele>126</ele>
        <time>2023-11-13T10:37:00Z</time>
      </trkpt>
      <trkpt lat="46.91444" lon="-0.87059">
        <ele>126</ele>
        <time>2023-11-13T10:37:49Z</time>
      </trkpt>
      <trkpt lat="46.91482" lon="-0.87118">
        <ele>125</ele>
        <time>2023-11-13T10:39:03Z</time>
      </trkpt>
      <trkpt lat="46.91493" lon="-0.87141">
        <ele>125</ele>
        <time>2023-11-13T10:39:28Z</time>
      </trkpt>
      <trkpt lat="46.91513" lon="-0.87215">
        <ele>124</ele>
        <time>2023-11-13T10:40:41Z</time>
      </trkpt>
      <trkpt lat="46.91547" lon="-0.87277">
        <ele>124</ele>
        <time>2023-11-13T10:41:53Z</time>
      </trkpt>
      <trkpt lat="46.91604" lon="-0.87346">
        <ele>125</ele>
        <time>2023-11-13T10:43:32Z</time>
      </trkpt>
      <trkpt lat="46.9162" lon="-0.87357">
        <ele>125</ele>
        <time>2023-11-13T10:43:56Z</time>
      </trkpt>
      <trkpt lat="46.91628" lon="-0.87381">
        <ele>126</ele>
        <time>2023-11-13T10:44:20Z</time>
      </trkpt>
      <trkpt lat="46.91641" lon="-0.87401">
        <ele>126</ele>
        <time>2023-11-13T10:44:45Z</time>
      </trkpt>
      <trkpt lat="46.91695" lon="-0.87425">
        <ele>125</ele>
        <time>2023-11-13T10:46:00Z</time>
      </trkpt>
      <trkpt lat="46.9173" lon="-0.87447">
        <ele>126</ele>
        <time>2023-11-13T10:46:51Z</time>
      </trkpt>
      <trkpt lat="46.91748" lon="-0.87444">
        <ele>125</ele>
        <time>2023-11-13T10:47:15Z</time>
      </trkpt>
      <trkpt lat="46.91767" lon="-0.87445">
        <ele>126</ele>
        <time>2023-11-13T10:47:41Z</time>
      </trkpt>
      <trkpt lat="46.91804" lon="-0.87451">
        <ele>126</ele>
        <time>2023-11-13T10:48:30Z</time>
      </trkpt>
      <trkpt lat="46.91878" lon="-0.87443">
        <ele>129</ele>
        <time>2023-11-13T10:50:09Z</time>
      </trkpt>
      <trkpt lat="46.91897" lon="-0.87448">
        <ele>129</ele>
        <time>2023-11-13T10:50:35Z</time>
      </trkpt>
      <trkpt lat="46.91915" lon="-0.87449">
        <ele>129</ele>
        <time>2023-11-13T10:50:59Z</time>
      </trkpt>
      <trkpt lat="46.91934" lon="-0.87446">
        <ele>130</ele>
        <time>2023-11-13T10:51:25Z</time>
      </trkpt>
      <trkpt lat="46.91951" lon="-0.87435">
        <ele>130</ele>
        <time>2023-11-13T10:51:50Z</time>
      </trkpt>
      <trkpt lat="46.91979" lon="-0.87395">
        <ele>131</ele>
        <time>2023-11-13T10:52:42Z</time>
      </trkpt>
      <trkpt lat="46.92009" lon="-0.87364">
        <ele>130</ele>
        <time>2023-11-13T10:53:31Z</time>
      </trkpt>
      <trkpt lat="46.92044" lon="-0.87346">
        <ele>129</ele>
        <time>2023-11-13T10:54:20Z</time>
      </trkpt>
      <trkpt lat="46.92061" lon="-0.87335">
        <ele>128</ele>
        <time>2023-11-13T10:54:45Z</time>
      </trkpt>
      <trkpt lat="46.92076" lon="-0.87321">
        <ele>129</ele>
        <time>2023-11-13T10:55:09Z</time>
      </trkpt>
      <trkpt lat="46.92093" lon="-0.87332">
        <ele>127</ele>
        <time>2023-11-13T10:55:34Z</time>
      </trkpt>
      <trkpt lat="46.92109" lon="-0.8732">
        <ele>128</ele>
        <time>2023-11-13T10:55:58Z</time>
      </trkpt>
      <trkpt lat="46.92127" lon="-0.87323">
        <ele>128</ele>
        <time>2023-11-13T10:56:22Z</time>
      </trkpt>
      <trkpt lat="46.92144" lon="-0.87334">
        <ele>126</ele>
        <time>2023-11-13T10:56:47Z</time>
      </trkpt>
      <trkpt lat="46.92149" lon="-0.87361">
        <ele>128</ele>
        <time>2023-11-13T10:57:12Z</time>
      </trkpt>
      <trkpt lat="46.92167" lon="-0.87361">
        <ele>127</ele>
        <time>2023-11-13T10:57:36Z</time>
      </trkpt>
      <trkpt lat="46.92205" lon="-0.87356">
        <ele>127</ele>
        <time>2023-11-13T10:58:27Z</time>
      </trkpt>
      <trkpt lat="46.92223" lon="-0.87357">
        <ele>127</ele>
        <time>2023-11-13T10:58:51Z</time>
      </trkpt>
      <trkpt lat="46.92239" lon="-0.87371">
        <ele>127</ele>
        <time>2023-11-13T10:59:16Z</time>
      </trkpt>
      <trkpt lat="46.92314" lon="-0.8739">
        <ele>131</ele>
        <time>2023-11-13T11:00:58Z</time>
      </trkpt>
      <trkpt lat="46.92374" lon="-0.87395">
        <ele>132</ele>
        <time>2023-11-13T11:02:18Z</time>
      </trkpt>
      <trkpt lat="46.92396" lon="-0.87386">
        <ele>131</ele>
        <time>2023-11-13T11:02:48Z</time>
      </trkpt>
      <trkpt lat="46.92447" lon="-0.8732">
        <ele>127</ele>
        <time>2023-11-13T11:04:19Z</time>
      </trkpt>
      <trkpt lat="46.92471" lon="-0.87268">
        <ele>129</ele>
        <time>2023-11-13T11:05:16Z</time>
      </trkpt>
      <trkpt lat="46.9251" lon="-0.87274">
        <ele>127</ele>
        <time>2023-11-13T11:06:09Z</time>
      </trkpt>
      <trkpt lat="46.92584" lon="-0.87313">
        <ele>125</ele>
        <time>2023-11-13T11:07:54Z</time>
      </trkpt>
      <trkpt lat="46.92625" lon="-0.87296">
        <ele>125</ele>
        <time>2023-11-13T11:08:50Z</time>
      </trkpt>
      <trkpt lat="46.9265" lon="-0.87255">
        <ele>123</ele>
        <time>2023-11-13T11:09:40Z</time>
      </trkpt>
      <trkpt lat="46.92677" lon="-0.87219">
        <ele>124</ele>
        <time>2023-11-13T11:10:29Z</time>
      </trkpt>
      <trkpt lat="46.92721" lon="-0.87232">
        <ele>122</ele>
        <time>2023-11-13T11:11:29Z</time>
      </trkpt>
      <trkpt lat="46.92755" lon="-0.87272">
        <ele>123</ele>
        <time>2023-11-13T11:12:27Z</time>
      </trkpt>
      <trkpt lat="46.92792" lon="-0.87302">
        <ele>125</ele>
        <time>2023-11-13T11:13:24Z</time>
      </trkpt>
      <trkpt lat="46.92837" lon="-0.87328">
        <ele>126</ele>
        <time>2023-11-13T11:14:28Z</time>
      </trkpt>
      <trkpt lat="46.92869" lon="-0.873">
        <ele>127</ele>
        <time>2023-11-13T11:15:18Z</time>
      </trkpt>
      <trkpt lat="46.92887" lon="-0.87242">
        <ele>127</ele>
        <time>2023-11-13T11:16:16Z</time>
      </trkpt>
      <trkpt lat="46.92918" lon="-0.8712">
        <ele>131</ele>
        <time>2023-11-13T11:18:15Z</time>
      </trkpt>
      <trkpt lat="46.92902" lon="-0.87038">
        <ele>129</ele>
        <time>2023-11-13T11:19:32Z</time>
      </trkpt>
      <trkpt lat="46.92877" lon="-0.86993">
        <ele>127</ele>
        <time>2023-11-13T11:20:25Z</time>
      </trkpt>
      <trkpt lat="46.92903" lon="-0.86938">
        <ele>128</ele>
        <time>2023-11-13T11:21:26Z</time>
      </trkpt>
      <trkpt lat="46.92941" lon="-0.86897">
        <ele>129</ele>
        <time>2023-11-13T11:22:29Z</time>
      </trkpt>
      <trkpt lat="46.9299" lon="-0.8692">
        <ele>134</ele>
        <time>2023-11-13T11:23:38Z</time>
      </trkpt>
      <trkpt lat="46.93025" lon="-0.86944">
        <ele>134</ele>
        <time>2023-11-13T11:24:29Z</time>
      </trkpt>
      <trkpt lat="46.93075" lon="-0.86938">
        <ele>130</ele>
        <time>2023-11-13T11:25:36Z</time>
      </trkpt>
      <trkpt lat="46.93117" lon="-0.86942">
        <ele>126</ele>
        <time>2023-11-13T11:26:33Z</time>
      </trkpt>
      <trkpt lat="46.93149" lon="-0.8695">
        <ele>124</ele>
        <time>2023-11-13T11:27:16Z</time>
      </trkpt>
      <trkpt lat="46.93201" lon="-0.86944">
        <ele>121</ele>
        <time>2023-11-13T11:28:26Z</time>
      </trkpt>
      <trkpt lat="46.93237" lon="-0.86948">
        <ele>121</ele>
        <time>2023-11-13T11:29:14Z</time>
      </trkpt>
      <trkpt lat="46.93275" lon="-0.86976">
        <ele>120</ele>
        <time>2023-11-13T11:30:10Z</time>
      </trkpt>
      <trkpt lat="46.93289" lon="-0.87034">
        <ele>122</ele>
        <time>2023-11-13T11:31:07Z</time>
      </trkpt>
      <trkpt lat="46.93308" lon="-0.87096">
        <ele>126</ele>
        <time>2023-11-13T11:32:08Z</time>
      </trkpt>
      <trkpt lat="46.93321" lon="-0.87154">
        <ele>129</ele>
        <time>2023-11-13T11:33:04Z</time>
      </trkpt>
      <trkpt lat="46.93338" lon="-0.87197">
        <ele>131</ele>
        <time>2023-11-13T11:33:49Z</time>
      </trkpt>
      <trkpt lat="46.93381" lon="-0.87223">
        <ele>132</ele>
        <time>2023-11-13T11:34:51Z</time>
      </trkpt>
      <trkpt lat="46.93375" lon="-0.87292">
        <ele>134</ele>
        <time>2023-11-13T11:35:55Z</time>
      </trkpt>
      <trkpt lat="46.93356" lon="-0.87354">
        <ele>136</ele>
        <time>2023-11-13T11:36:57Z</time>
      </trkpt>
      <trkpt lat="46.9341" lon="-0.87365">
        <ele>134</ele>
        <time>2023-11-13T11:38:10Z</time>
      </trkpt>
      <trkpt lat="46.93464" lon="-0.87395">
        <ele>135</ele>
        <time>2023-11-13T11:39:27Z</time>
      </trkpt>
      <trkpt lat="46.93502" lon="-0.87412">
        <ele>136</ele>
        <time>2023-11-13T11:40:20Z</time>
      </trkpt>
      <trkpt lat="46.93538" lon="-0.87435">
        <ele>137</ele>
        <time>2023-11-13T11:41:12Z</time>
      </trkpt>
      <trkpt lat="46.93546" lon="-0.8748">
        <ele>136</ele>
        <time>2023-11-13T11:41:54Z</time>
      </trkpt>
      <trkpt lat="46.93517" lon="-0.87485">
        <ele>137</ele>
        <time>2023-11-13T11:42:33Z</time>
      </trkpt>
      <trkpt lat="46.93497" lon="-0.87493">
        <ele>137</ele>
        <time>2023-11-13T11:43:01Z</time>
      </trkpt>
      <trkpt lat="46.93504" lon="-0.87536">
        <ele>135</ele>
        <time>2023-11-13T11:43:41Z</time>
      </trkpt>
      <trkpt lat="46.93621" lon="-0.87639">
        <ele>136</ele>
        <time>2023-11-13T11:46:43Z</time>
      </trkpt>
      <trkpt lat="46.93653" lon="-0.87691">
        <ele>139</ele>
        <time>2023-11-13T11:47:47Z</time>
      </trkpt>
      <trkpt lat="46.93678" lon="-0.87815">
        <ele>140</ele>
        <time>2023-11-13T11:49:45Z</time>
      </trkpt>
      <trkpt lat="46.93709" lon="-0.87877">
        <ele>140</ele>
        <time>2023-11-13T11:50:55Z</time>
      </trkpt>
      <trkpt lat="46.93735" lon="-0.87946">
        <ele>139</ele>
        <time>2023-11-13T11:52:07Z</time>
      </trkpt>
      <trkpt lat="46.93746" lon="-0.88021">
        <ele>140</ele>
        <time>2023-11-13T11:53:17Z</time>
      </trkpt>
      <trkpt lat="46.93782" lon="-0.88058">
        <ele>140</ele>
        <time>2023-11-13T11:54:15Z</time>
      </trkpt>
      <trkpt lat="46.93826" lon="-0.88094">
        <ele>138</ele>
        <time>2023-11-13T11:55:23Z</time>
      </trkpt>
      <trkpt lat="46.93866" lon="-0.88133">
        <ele>137</ele>
        <time>2023-11-13T11:56:27Z</time>
      </trkpt>
      <trkpt lat="46.93888" lon="-0.88208">
        <ele>138</ele>
        <time>2023-11-13T11:57:41Z</time>
      </trkpt>
      <trkpt lat="46.9391" lon="-0.88255">
        <ele>141</ele>
        <time>2023-11-13T11:58:33Z</time>
      </trkpt>
      <trkpt lat="46.94036" lon="-0.88345">
        <ele>159</ele>
        <time>2023-11-13T12:01:40Z</time>
      </trkpt>
      <trkpt lat="46.94065" lon="-0.88373">
        <ele>162</ele>
        <time>2023-11-13T12:02:27Z</time>
      </trkpt>
      <trkpt lat="46.94106" lon="-0.88392">
        <ele>164</ele>
        <time>2023-11-13T12:03:24Z</time>
      </trkpt>
      <trkpt lat="46.94146" lon="-0.88401">
        <ele>166</ele>
        <time>2023-11-13T12:04:18Z</time>
      </trkpt>
      <trkpt lat="46.94182" lon="-0.88433">
        <ele>167</ele>
        <time>2023-11-13T12:05:14Z</time>
      </trkpt>
      <trkpt lat="46.9426" lon="-0.88525">
        <ele>165</ele>
        <time>2023-11-13T12:07:28Z</time>
      </trkpt>
      <trkpt lat="46.94288" lon="-0.88583">
        <ele>165</ele>
        <time>2023-11-13T12:08:33Z</time>
      </trkpt>
      <trkpt lat="46.9431" lon="-0.88646">
        <ele>166</ele>
        <time>2023-11-13T12:09:37Z</time>
      </trkpt>
      <trkpt lat="46.94336" lon="-0.88577">
        <ele>164</ele>
        <time>2023-11-13T12:10:49Z</time>
      </trkpt>
      <trkpt lat="46.94355" lon="-0.88549">
        <ele>162</ele>
        <time>2023-11-13T12:11:25Z</time>
      </trkpt>
      <trkpt lat="46.94371" lon="-0.88498">
        <ele>160</ele>
        <time>2023-11-13T12:12:16Z</time>
      </trkpt>
      <trkpt lat="46.94395" lon="-0.88437">
        <ele>157</ele>
        <time>2023-11-13T12:13:20Z</time>
      </trkpt>
      <trkpt lat="46.94418" lon="-0.88392">
        <ele>152</ele>
        <time>2023-11-13T12:14:11Z</time>
      </trkpt>
      <trkpt lat="46.94456" lon="-0.88388">
        <ele>150</ele>
        <time>2023-11-13T12:15:02Z</time>
      </trkpt>
      <trkpt lat="46.94491" lon="-0.88365">
        <ele>146</ele>
        <time>2023-11-13T12:15:53Z</time>
      </trkpt>
      <trkpt lat="46.94521" lon="-0.88382">
        <ele>147</ele>
        <time>2023-11-13T12:16:36Z</time>
      </trkpt>
      <trkpt lat="46.94532" lon="-0.88422">
        <ele>150</ele>
        <time>2023-11-13T12:17:16Z</time>
      </trkpt>
      <trkpt lat="46.94566" lon="-0.88442">
        <ele>153</ele>
        <time>2023-11-13T12:18:04Z</time>
      </trkpt>
      <trkpt lat="46.94603" lon="-0.88427">
        <ele>152</ele>
        <time>2023-11-13T12:18:56Z</time>
      </trkpt>
      <trkpt lat="46.94645" lon="-0.88405">
        <ele>148</ele>
        <time>2023-11-13T12:19:55Z</time>
      </trkpt>
      <trkpt lat="46.94689" lon="-0.88365">
        <ele>143</ele>
        <time>2023-11-13T12:21:04Z</time>
      </trkpt>
      <trkpt lat="46.94774" lon="-0.88325">
        <ele>136</ele>
        <time>2023-11-13T12:23:03Z</time>
      </trkpt>
      <trkpt lat="46.94803" lon="-0.88256">
        <ele>127</ele>
        <time>2023-11-13T12:24:17Z</time>
      </trkpt>
      <trkpt lat="46.9474" lon="-0.88245">
        <ele>129</ele>
        <time>2023-11-13T12:25:42Z</time>
      </trkpt>
      <trkpt lat="46.94767" lon="-0.88227">
        <ele>126</ele>
        <time>2023-11-13T12:26:21Z</time>
      </trkpt>
      <trkpt lat="46.94808" lon="-0.88223">
        <ele>123</ele>
        <time>2023-11-13T12:27:16Z</time>
      </trkpt>
      <trkpt lat="46.94822" lon="-0.88182">
        <ele>119</ele>
        <time>2023-11-13T12:27:58Z</time>
      </trkpt>
      <trkpt lat="46.94836" lon="-0.88107">
        <ele>116</ele>
        <time>2023-11-13T12:29:09Z</time>
      </trkpt>
      <trkpt lat="46.94856" lon="-0.88073">
        <ele>115</ele>
        <time>2023-11-13T12:29:50Z</time>
      </trkpt>
      <trkpt lat="46.94949" lon="-0.8815">
        <ele>116</ele>
        <time>2023-11-13T12:32:12Z</time>
      </trkpt>
      <trkpt lat="46.9496" lon="-0.88152">
        <ele>116</ele>
        <time>2023-11-13T12:32:27Z</time>
      </trkpt>
      <trkpt lat="46.94977" lon="-0.88143">
        <ele>117</ele>
        <time>2023-11-13T12:32:51Z</time>
      </trkpt>
      <trkpt lat="46.94996" lon="-0.8814">
        <ele>118</ele>
        <time>2023-11-13T12:33:17Z</time>
      </trkpt>
      <trkpt lat="46.95013" lon="-0.88147">
        <ele>120</ele>
        <time>2023-11-13T12:33:40Z</time>
      </trkpt>
      <trkpt lat="46.95058" lon="-0.88197">
        <ele>123</ele>
        <time>2023-11-13T12:34:56Z</time>
      </trkpt>
      <trkpt lat="46.9507" lon="-0.88218">
        <ele>123</ele>
        <time>2023-11-13T12:35:21Z</time>
      </trkpt>
      <trkpt lat="46.95081" lon="-0.88239">
        <ele>123</ele>
        <time>2023-11-13T12:35:45Z</time>
      </trkpt>
      <trkpt lat="46.95096" lon="-0.88289">
        <ele>122</ele>
        <time>2023-11-13T12:36:35Z</time>
      </trkpt>
      <trkpt lat="46.95106" lon="-0.88311">
        <ele>122</ele>
        <time>2023-11-13T12:36:59Z</time>
      </trkpt>
      <trkpt lat="46.95121" lon="-0.88328">
        <ele>122</ele>
        <time>2023-11-13T12:37:24Z</time>
      </trkpt>
      <trkpt lat="46.95154" lon="-0.88352">
        <ele>122</ele>
        <time>2023-11-13T12:38:13Z</time>
      </trkpt>
      <trkpt lat="46.95169" lon="-0.88367">
        <ele>121</ele>
        <time>2023-11-13T12:38:37Z</time>
      </trkpt>
      <trkpt lat="46.95187" lon="-0.8837">
        <ele>121</ele>
        <time>2023-11-13T12:39:01Z</time>
      </trkpt>
      <trkpt lat="46.95204" lon="-0.88379">
        <ele>121</ele>
        <time>2023-11-13T12:39:26Z</time>
      </trkpt>
      <trkpt lat="46.95223" lon="-0.8838">
        <ele>121</ele>
        <time>2023-11-13T12:39:51Z</time>
      </trkpt>
      <trkpt lat="46.95261" lon="-0.8839">
        <ele>119</ele>
        <time>2023-11-13T12:40:42Z</time>
      </trkpt>
      <trkpt lat="46.95298" lon="-0.8838">
        <ele>118</ele>
        <time>2023-11-13T12:41:33Z</time>
      </trkpt>
      <trkpt lat="46.95334" lon="-0.88363">
        <ele>116</ele>
        <time>2023-11-13T12:42:23Z</time>
      </trkpt>
      <trkpt lat="46.95352" lon="-0.8837">
        <ele>115</ele>
        <time>2023-11-13T12:42:48Z</time>
      </trkpt>
      <trkpt lat="46.95366" lon="-0.88388">
        <ele>113</ele>
        <time>2023-11-13T12:43:13Z</time>
      </trkpt>
      <trkpt lat="46.95384" lon="-0.88381">
        <ele>113</ele>
        <time>2023-11-13T12:43:38Z</time>
      </trkpt>
      <trkpt lat="46.95458" lon="-0.88366">
        <ele>113</ele>
        <time>2023-11-13T12:45:17Z</time>
      </trkpt>
      <trkpt lat="46.95487" lon="-0.88331">
        <ele>114</ele>
        <time>2023-11-13T12:46:08Z</time>
      </trkpt>
      <trkpt lat="46.95503" lon="-0.88318">
        <ele>116</ele>
        <time>2023-11-13T12:46:32Z</time>
      </trkpt>
      <trkpt lat="46.95521" lon="-0.88313">
        <ele>118</ele>
        <time>2023-11-13T12:46:56Z</time>
      </trkpt>
      <trkpt lat="46.95539" lon="-0.88314">
        <ele>118</ele>
        <time>2023-11-13T12:47:20Z</time>
      </trkpt>
      <trkpt lat="46.95558" lon="-0.88317">
        <ele>118</ele>
        <time>2023-11-13T12:47:46Z</time>
      </trkpt>
      <trkpt lat="46.95576" lon="-0.88325">
        <ele>118</ele>
        <time>2023-11-13T12:48:11Z</time>
      </trkpt>
      <trkpt lat="46.95604" lon="-0.88361">
        <ele>114</ele>
        <time>2023-11-13T12:49:01Z</time>
      </trkpt>
      <trkpt lat="46.9562" lon="-0.88375">
        <ele>113</ele>
        <time>2023-11-13T12:49:26Z</time>
      </trkpt>
      <trkpt lat="46.95656" lon="-0.88392">
        <ele>112</ele>
        <time>2023-11-13T12:50:16Z</time>
      </trkpt>
      <trkpt lat="46.95673" lon="-0.88405">
        <ele>111</ele>
        <time>2023-11-13T12:50:42Z</time>
      </trkpt>
      <trkpt lat="46.95715" lon="-0.88458">
        <ele>111</ele>
        <time>2023-11-13T12:51:56Z</time>
      </trkpt>
      <trkpt lat="46.95761" lon="-0.88503">
        <ele>110</ele>
        <time>2023-11-13T12:53:09Z</time>
      </trkpt>
      <trkpt lat="46.95787" lon="-0.88542">
        <ele>111</ele>
        <time>2023-11-13T12:53:59Z</time>
      </trkpt>
      <trkpt lat="46.95802" lon="-0.88557">
        <ele>111</ele>
        <time>2023-11-13T12:54:23Z</time>
      </trkpt>
      <trkpt lat="46.95835" lon="-0.88624">
        <ele>111</ele>
        <time>2023-11-13T12:55:39Z</time>
      </trkpt>
      <trkpt lat="46.95859" lon="-0.88664">
        <ele>111</ele>
        <time>2023-11-13T12:56:27Z</time>
      </trkpt>
      <trkpt lat="46.95844" lon="-0.88678">
        <ele>111</ele>
        <time>2023-11-13T12:56:51Z</time>
      </trkpt>
    </trkseg>
  </trk>
  <trk>
    <name><![CDATA[StLaurentSevre_MallievreAR_18.3km-8386774]]></name>
    <extensions>
      <line xmlns="http://www.topografix.com/GPX/gpx_style/0/2">
        <color>00FF00</color>
        <width>4</width>
      </line>
    </extensions>
    <trkseg>
      <trkpt lat="46.9589" lon="-0.88689">
        <ele>112</ele>
        <time>2023-11-13T07:30:10Z</time>
      </trkpt>
      <trkpt lat="46.95872" lon="-0.88687">
        <ele>111</ele>
        <time>2023-11-13T07:30:34Z</time>
      </trkpt>
      <trkpt lat="46.95858" lon="-0.88671">
        <ele>111</ele>
        <time>2023-11-13T07:30:58Z</time>
      </trkpt>
      <trkpt lat="46.95847" lon="-0.88648">
        <ele>111</ele>
        <time>2023-11-13T07:31:23Z</time>
      </trkpt>
      <trkpt lat="46.95822" lon="-0.88609">
        <ele>111</ele>
        <time>2023-11-13T07:32:12Z</time>
      </trkpt>
      <trkpt lat="46.95803" lon="-0.88562">
        <ele>111</ele>
        <time>2023-11-13T07:33:02Z</time>
      </trkpt>
      <trkpt lat="46.95788" lon="-0.88547">
        <ele>111</ele>
        <time>2023-11-13T07:33:26Z</time>
      </trkpt>
      <trkpt lat="46.95763" lon="-0.88506">
        <ele>110</ele>
        <time>2023-11-13T07:34:16Z</time>
      </trkpt>
      <trkpt lat="46.95733" lon="-0.88475">
        <ele>111</ele>
        <time>2023-11-13T07:35:05Z</time>
      </trkpt>
      <trkpt lat="46.95716" lon="-0.88462">
        <ele>111</ele>
        <time>2023-11-13T07:35:31Z</time>
      </trkpt>
      <trkpt lat="46.95673" lon="-0.8841">
        <ele>111</ele>
        <time>2023-11-13T07:36:45Z</time>
      </trkpt>
      <trkpt lat="46.95638" lon="-0.88388">
        <ele>112</ele>
        <time>2023-11-13T07:37:36Z</time>
      </trkpt>
      <trkpt lat="46.95602" lon="-0.8837">
        <ele>114</ele>
        <time>2023-11-13T07:38:27Z</time>
      </trkpt>
      <trkpt lat="46.95589" lon="-0.8835">
        <ele>116</ele>
        <time>2023-11-13T07:38:52Z</time>
      </trkpt>
      <trkpt lat="46.95575" lon="-0.88334">
        <ele>117</ele>
        <time>2023-11-13T07:39:16Z</time>
      </trkpt>
      <trkpt lat="46.95519" lon="-0.88331">
        <ele>115</ele>
        <time>2023-11-13T07:40:30Z</time>
      </trkpt>
      <trkpt lat="46.955" lon="-0.88336">
        <ele>114</ele>
        <time>2023-11-13T07:40:56Z</time>
      </trkpt>
      <trkpt lat="46.9547" lon="-0.88367">
        <ele>113</ele>
        <time>2023-11-13T07:41:45Z</time>
      </trkpt>
      <trkpt lat="46.95438" lon="-0.88395">
        <ele>112</ele>
        <time>2023-11-13T07:42:35Z</time>
      </trkpt>
      <trkpt lat="46.95419" lon="-0.88399">
        <ele>111</ele>
        <time>2023-11-13T07:43:00Z</time>
      </trkpt>
      <trkpt lat="46.95401" lon="-0.88395">
        <ele>112</ele>
        <time>2023-11-13T07:43:25Z</time>
      </trkpt>
      <trkpt lat="46.95382" lon="-0.88394">
        <ele>113</ele>
        <time>2023-11-13T07:43:50Z</time>
      </trkpt>
      <trkpt lat="46.95346" lon="-0.88382">
        <ele>114</ele>
        <time>2023-11-13T07:44:39Z</time>
      </trkpt>
      <trkpt lat="46.95328" lon="-0.88382">
        <ele>115</ele>
        <time>2023-11-13T07:45:03Z</time>
      </trkpt>
      <trkpt lat="46.95291" lon="-0.88396">
        <ele>117</ele>
        <time>2023-11-13T07:45:54Z</time>
      </trkpt>
      <trkpt lat="46.95273" lon="-0.88399">
        <ele>117</ele>
        <time>2023-11-13T07:46:19Z</time>
      </trkpt>
      <trkpt lat="46.95254" lon="-0.88397">
        <ele>119</ele>
        <time>2023-11-13T07:46:44Z</time>
      </trkpt>
      <trkpt lat="46.95235" lon="-0.8839">
        <ele>120</ele>
        <time>2023-11-13T07:47:10Z</time>
      </trkpt>
      <trkpt lat="46.95198" lon="-0.88385">
        <ele>120</ele>
        <time>2023-11-13T07:48:00Z</time>
      </trkpt>
      <trkpt lat="46.95163" lon="-0.88366">
        <ele>121</ele>
        <time>2023-11-13T07:48:50Z</time>
      </trkpt>
      <trkpt lat="46.95129" lon="-0.88342">
        <ele>121</ele>
        <time>2023-11-13T07:49:40Z</time>
      </trkpt>
      <trkpt lat="46.95114" lon="-0.88328">
        <ele>121</ele>
        <time>2023-11-13T07:50:04Z</time>
      </trkpt>
      <trkpt lat="46.95064" lon="-0.88213">
        <ele>123</ele>
        <time>2023-11-13T07:52:08Z</time>
      </trkpt>
      <trkpt lat="46.95023" lon="-0.88157">
        <ele>120</ele>
        <time>2023-11-13T07:53:23Z</time>
      </trkpt>
      <trkpt lat="46.95006" lon="-0.88143">
        <ele>119</ele>
        <time>2023-11-13T07:53:49Z</time>
      </trkpt>
      <trkpt lat="46.94987" lon="-0.88139">
        <ele>118</ele>
        <time>2023-11-13T07:54:14Z</time>
      </trkpt>
      <trkpt lat="46.94969" lon="-0.88147">
        <ele>117</ele>
        <time>2023-11-13T07:54:39Z</time>
      </trkpt>
      <trkpt lat="46.94951" lon="-0.88149">
        <ele>116</ele>
        <time>2023-11-13T07:55:03Z</time>
      </trkpt>
      <trkpt lat="46.94933" lon="-0.88139">
        <ele>115</ele>
        <time>2023-11-13T07:55:29Z</time>
      </trkpt>
      <trkpt lat="46.94868" lon="-0.88087">
        <ele>115</ele>
        <time>2023-11-13T07:57:08Z</time>
      </trkpt>
      <trkpt lat="46.94833" lon="-0.88065">
        <ele>115</ele>
        <time>2023-11-13T07:57:59Z</time>
      </trkpt>
      <trkpt lat="46.94814" lon="-0.8806">
        <ele>116</ele>
        <time>2023-11-13T07:58:25Z</time>
      </trkpt>
      <trkpt lat="46.94777" lon="-0.8807">
        <ele>117</ele>
        <time>2023-11-13T07:59:15Z</time>
      </trkpt>
      <trkpt lat="46.94758" lon="-0.88067">
        <ele>117</ele>
        <time>2023-11-13T07:59:40Z</time>
      </trkpt>
      <trkpt lat="46.94743" lon="-0.88049">
        <ele>118</ele>
        <time>2023-11-13T08:00:06Z</time>
      </trkpt>
      <trkpt lat="46.94731" lon="-0.88029">
        <ele>119</ele>
        <time>2023-11-13T08:00:30Z</time>
      </trkpt>
      <trkpt lat="46.94715" lon="-0.88016">
        <ele>121</ele>
        <time>2023-11-13T08:00:55Z</time>
      </trkpt>
      <trkpt lat="46.94681" lon="-0.88036">
        <ele>122</ele>
        <time>2023-11-13T08:01:44Z</time>
      </trkpt>
      <trkpt lat="46.94664" lon="-0.8803">
        <ele>123</ele>
        <time>2023-11-13T08:02:07Z</time>
      </trkpt>
      <trkpt lat="46.94609" lon="-0.88045">
        <ele>127</ele>
        <time>2023-11-13T08:03:22Z</time>
      </trkpt>
      <trkpt lat="46.94594" lon="-0.88059">
        <ele>127</ele>
        <time>2023-11-13T08:03:45Z</time>
      </trkpt>
      <trkpt lat="46.9456" lon="-0.88079">
        <ele>126</ele>
        <time>2023-11-13T08:04:34Z</time>
      </trkpt>
      <trkpt lat="46.94545" lon="-0.88095">
        <ele>125</ele>
        <time>2023-11-13T08:04:59Z</time>
      </trkpt>
      <trkpt lat="46.9447" lon="-0.88101">
        <ele>124</ele>
        <time>2023-11-13T08:06:39Z</time>
      </trkpt>
      <trkpt lat="46.94452" lon="-0.88097">
        <ele>124</ele>
        <time>2023-11-13T08:07:04Z</time>
      </trkpt>
      <trkpt lat="46.9442" lon="-0.88069">
        <ele>125</ele>
        <time>2023-11-13T08:07:53Z</time>
      </trkpt>
      <trkpt lat="46.944" lon="-0.88024">
        <ele>129</ele>
        <time>2023-11-13T08:08:42Z</time>
      </trkpt>
      <trkpt lat="46.94346" lon="-0.87948">
        <ele>131</ele>
        <time>2023-11-13T08:10:22Z</time>
      </trkpt>
      <trkpt lat="46.9434" lon="-0.87922">
        <ele>132</ele>
        <time>2023-11-13T08:10:47Z</time>
      </trkpt>
      <trkpt lat="46.94339" lon="-0.87868">
        <ele>136</ele>
        <time>2023-11-13T08:11:36Z</time>
      </trkpt>
      <trkpt lat="46.94328" lon="-0.87845">
        <ele>137</ele>
        <time>2023-11-13T08:12:02Z</time>
      </trkpt>
      <trkpt lat="46.9431" lon="-0.87841">
        <ele>135</ele>
        <time>2023-11-13T08:12:26Z</time>
      </trkpt>
      <trkpt lat="46.94276" lon="-0.87821">
        <ele>133</ele>
        <time>2023-11-13T08:13:15Z</time>
      </trkpt>
      <trkpt lat="46.94257" lon="-0.87814">
        <ele>132</ele>
        <time>2023-11-13T08:13:41Z</time>
      </trkpt>
      <trkpt lat="46.9424" lon="-0.87803">
        <ele>132</ele>
        <time>2023-11-13T08:14:06Z</time>
      </trkpt>
      <trkpt lat="46.94227" lon="-0.87785">
        <ele>132</ele>
        <time>2023-11-13T08:14:30Z</time>
      </trkpt>
      <trkpt lat="46.94211" lon="-0.87772">
        <ele>132</ele>
        <time>2023-11-13T08:14:54Z</time>
      </trkpt>
      <trkpt lat="46.94182" lon="-0.87737">
        <ele>131</ele>
        <time>2023-11-13T08:15:45Z</time>
      </trkpt>
      <trkpt lat="46.94168" lon="-0.87719">
        <ele>131</ele>
        <time>2023-11-13T08:16:09Z</time>
      </trkpt>
      <trkpt lat="46.94149" lon="-0.87687">
        <ele>132</ele>
        <time>2023-11-13T08:16:48Z</time>
      </trkpt>
      <trkpt lat="46.94169" lon="-0.87696">
        <ele>134</ele>
        <time>2023-11-13T08:17:16Z</time>
      </trkpt>
      <trkpt lat="46.94155" lon="-0.87678">
        <ele>133</ele>
        <time>2023-11-13T08:17:41Z</time>
      </trkpt>
      <trkpt lat="46.94163" lon="-0.87653">
        <ele>138</ele>
        <time>2023-11-13T08:18:06Z</time>
      </trkpt>
      <trkpt lat="46.9418" lon="-0.87644">
        <ele>142</ele>
        <time>2023-11-13T08:18:30Z</time>
      </trkpt>
      <trkpt lat="46.94198" lon="-0.87641">
        <ele>146</ele>
        <time>2023-11-13T08:18:54Z</time>
      </trkpt>
      <trkpt lat="46.94236" lon="-0.87666">
        <ele>148</ele>
        <time>2023-11-13T08:19:50Z</time>
      </trkpt>
      <trkpt lat="46.94253" lon="-0.87656">
        <ele>152</ele>
        <time>2023-11-13T08:20:14Z</time>
      </trkpt>
      <trkpt lat="46.94267" lon="-0.87639">
        <ele>157</ele>
        <time>2023-11-13T08:20:39Z</time>
      </trkpt>
      <trkpt lat="46.94286" lon="-0.87637">
        <ele>159</ele>
        <time>2023-11-13T08:21:04Z</time>
      </trkpt>
      <trkpt lat="46.94301" lon="-0.87651">
        <ele>158</ele>
        <time>2023-11-13T08:21:28Z</time>
      </trkpt>
      <trkpt lat="46.94319" lon="-0.87645">
        <ele>161</ele>
        <time>2023-11-13T08:21:52Z</time>
      </trkpt>
      <trkpt lat="46.94319" lon="-0.87617">
        <ele>165</ele>
        <time>2023-11-13T08:22:18Z</time>
      </trkpt>
      <trkpt lat="46.94326" lon="-0.87592">
        <ele>169</ele>
        <time>2023-11-13T08:22:43Z</time>
      </trkpt>
      <trkpt lat="46.94344" lon="-0.87588">
        <ele>169</ele>
        <time>2023-11-13T08:23:07Z</time>
      </trkpt>
      <trkpt lat="46.94358" lon="-0.87605">
        <ele>167</ele>
        <time>2023-11-13T08:23:31Z</time>
      </trkpt>
      <trkpt lat="46.94372" lon="-0.87655">
        <ele>162</ele>
        <time>2023-11-13T08:24:20Z</time>
      </trkpt>
      <trkpt lat="46.94382" lon="-0.87706">
        <ele>157</ele>
        <time>2023-11-13T08:25:09Z</time>
      </trkpt>
      <trkpt lat="46.94376" lon="-0.87731">
        <ele>154</ele>
        <time>2023-11-13T08:25:33Z</time>
      </trkpt>
      <trkpt lat="46.94362" lon="-0.8775">
        <ele>152</ele>
        <time>2023-11-13T08:25:58Z</time>
      </trkpt>
      <trkpt lat="46.94368" lon="-0.87786">
        <ele>148</ele>
        <time>2023-11-13T08:26:32Z</time>
      </trkpt>
      <trkpt lat="46.94388" lon="-0.87793">
        <ele>148</ele>
        <time>2023-11-13T08:27:00Z</time>
      </trkpt>
      <trkpt lat="46.94405" lon="-0.87782">
        <ele>151</ele>
        <time>2023-11-13T08:27:24Z</time>
      </trkpt>
      <trkpt lat="46.94415" lon="-0.8776">
        <ele>154</ele>
        <time>2023-11-13T08:27:48Z</time>
      </trkpt>
      <trkpt lat="46.94433" lon="-0.87756">
        <ele>155</ele>
        <time>2023-11-13T08:28:13Z</time>
      </trkpt>
      <trkpt lat="46.94452" lon="-0.87755">
        <ele>156</ele>
        <time>2023-11-13T08:28:38Z</time>
      </trkpt>
      <trkpt lat="46.94466" lon="-0.87737">
        <ele>157</ele>
        <time>2023-11-13T08:29:03Z</time>
      </trkpt>
      <trkpt lat="46.94484" lon="-0.8773">
        <ele>158</ele>
        <time>2023-11-13T08:29:28Z</time>
      </trkpt>
      <trkpt lat="46.94499" lon="-0.87714">
        <ele>159</ele>
        <time>2023-11-13T08:29:53Z</time>
      </trkpt>
      <trkpt lat="46.94511" lon="-0.87694">
        <ele>159</ele>
        <time>2023-11-13T08:30:17Z</time>
      </trkpt>
      <trkpt lat="46.94526" lon="-0.87679">
        <ele>160</ele>
        <time>2023-11-13T08:30:41Z</time>
      </trkpt>
      <trkpt lat="46.94554" lon="-0.87642">
        <ele>160</ele>
        <time>2023-11-13T08:31:31Z</time>
      </trkpt>
      <trkpt lat="46.946" lon="-0.87556">
        <ele>157</ele>
        <time>2023-11-13T08:33:11Z</time>
      </trkpt>
      <trkpt lat="46.9466" lon="-0.87451">
        <ele>158</ele>
        <time>2023-11-13T08:35:16Z</time>
      </trkpt>
      <trkpt lat="46.94681" lon="-0.87408">
        <ele>159</ele>
        <time>2023-11-13T08:36:04Z</time>
      </trkpt>
      <trkpt lat="46.94694" lon="-0.87387">
        <ele>160</ele>
        <time>2023-11-13T08:36:30Z</time>
      </trkpt>
      <trkpt lat="46.94709" lon="-0.87372">
        <ele>160</ele>
        <time>2023-11-13T08:36:54Z</time>
      </trkpt>
      <trkpt lat="46.94715" lon="-0.87347">
        <ele>160</ele>
        <time>2023-11-13T08:37:18Z</time>
      </trkpt>
      <trkpt lat="46.94707" lon="-0.87323">
        <ele>160</ele>
        <time>2023-11-13T08:37:42Z</time>
      </trkpt>
      <trkpt lat="46.9469" lon="-0.8731">
        <ele>161</ele>
        <time>2023-11-13T08:38:08Z</time>
      </trkpt>
      <trkpt lat="46.94606" lon="-0.87202">
        <ele>165</ele>
        <time>2023-11-13T08:40:37Z</time>
      </trkpt>
      <trkpt lat="46.94593" lon="-0.87182">
        <ele>166</ele>
        <time>2023-11-13T08:41:02Z</time>
      </trkpt>
      <trkpt lat="46.94514" lon="-0.87035">
        <ele>171</ele>
        <time>2023-11-13T08:43:53Z</time>
      </trkpt>
      <trkpt lat="46.94488" lon="-0.86995">
        <ele>171</ele>
        <time>2023-11-13T08:44:43Z</time>
      </trkpt>
      <trkpt lat="46.94433" lon="-0.86923">
        <ele>167</ele>
        <time>2023-11-13T08:46:21Z</time>
      </trkpt>
      <trkpt lat="46.94369" lon="-0.86822">
        <ele>165</ele>
        <time>2023-11-13T08:48:27Z</time>
      </trkpt>
      <trkpt lat="46.94354" lon="-0.86804">
        <ele>165</ele>
        <time>2023-11-13T08:48:53Z</time>
      </trkpt>
      <trkpt lat="46.94323" lon="-0.86774">
        <ele>164</ele>
        <time>2023-11-13T08:49:42Z</time>
      </trkpt>
      <trkpt lat="46.94306" lon="-0.86763">
        <ele>164</ele>
        <time>2023-11-13T08:50:07Z</time>
      </trkpt>
      <trkpt lat="46.94277" lon="-0.86729">
        <ele>164</ele>
        <time>2023-11-13T08:50:57Z</time>
      </trkpt>
      <trkpt lat="46.94182" lon="-0.866">
        <ele>161</ele>
        <time>2023-11-13T08:53:50Z</time>
      </trkpt>
      <trkpt lat="46.94168" lon="-0.86584">
        <ele>160</ele>
        <time>2023-11-13T08:54:13Z</time>
      </trkpt>
      <trkpt lat="46.94121" lon="-0.8654">
        <ele>158</ele>
        <time>2023-11-13T08:55:28Z</time>
      </trkpt>
      <trkpt lat="46.94019" lon="-0.8647">
        <ele>152</ele>
        <time>2023-11-13T08:57:58Z</time>
      </trkpt>
      <trkpt lat="46.94003" lon="-0.86456">
        <ele>151</ele>
        <time>2023-11-13T08:58:23Z</time>
      </trkpt>
      <trkpt lat="46.93989" lon="-0.86439">
        <ele>151</ele>
        <time>2023-11-13T08:58:47Z</time>
      </trkpt>
      <trkpt lat="46.93976" lon="-0.8642">
        <ele>151</ele>
        <time>2023-11-13T08:59:12Z</time>
      </trkpt>
      <trkpt lat="46.9396" lon="-0.86371">
        <ele>153</ele>
        <time>2023-11-13T09:00:01Z</time>
      </trkpt>
      <trkpt lat="46.93951" lon="-0.86318">
        <ele>154</ele>
        <time>2023-11-13T09:00:51Z</time>
      </trkpt>
      <trkpt lat="46.93905" lon="-0.86232">
        <ele>155</ele>
        <time>2023-11-13T09:02:31Z</time>
      </trkpt>
      <trkpt lat="46.93891" lon="-0.86213">
        <ele>155</ele>
        <time>2023-11-13T09:02:56Z</time>
      </trkpt>
      <trkpt lat="46.93752" lon="-0.86074">
        <ele>160</ele>
        <time>2023-11-13T09:06:41Z</time>
      </trkpt>
      <trkpt lat="46.93723" lon="-0.8604">
        <ele>162</ele>
        <time>2023-11-13T09:07:30Z</time>
      </trkpt>
      <trkpt lat="46.93706" lon="-0.86028">
        <ele>163</ele>
        <time>2023-11-13T09:07:55Z</time>
      </trkpt>
      <trkpt lat="46.93692" lon="-0.86009">
        <ele>165</ele>
        <time>2023-11-13T09:08:21Z</time>
      </trkpt>
      <trkpt lat="46.93624" lon="-0.85967">
        <ele>166</ele>
        <time>2023-11-13T09:09:59Z</time>
      </trkpt>
      <trkpt lat="46.93606" lon="-0.85974">
        <ele>166</ele>
        <time>2023-11-13T09:10:24Z</time>
      </trkpt>
      <trkpt lat="46.93604" lon="-0.86028">
        <ele>166</ele>
        <time>2023-11-13T09:11:13Z</time>
      </trkpt>
      <trkpt lat="46.93586" lon="-0.8603">
        <ele>166</ele>
        <time>2023-11-13T09:11:38Z</time>
      </trkpt>
      <trkpt lat="46.93535" lon="-0.86059">
        <ele>164</ele>
        <time>2023-11-13T09:12:51Z</time>
      </trkpt>
      <trkpt lat="46.93469" lon="-0.86109">
        <ele>162</ele>
        <time>2023-11-13T09:14:30Z</time>
      </trkpt>
      <trkpt lat="46.93454" lon="-0.86125">
        <ele>162</ele>
        <time>2023-11-13T09:14:55Z</time>
      </trkpt>
      <trkpt lat="46.93428" lon="-0.86163">
        <ele>163</ele>
        <time>2023-11-13T09:15:44Z</time>
      </trkpt>
      <trkpt lat="46.93388" lon="-0.86254">
        <ele>160</ele>
        <time>2023-11-13T09:17:22Z</time>
      </trkpt>
      <trkpt lat="46.93369" lon="-0.86303">
        <ele>158</ele>
        <time>2023-11-13T09:18:13Z</time>
      </trkpt>
      <trkpt lat="46.93361" lon="-0.86328">
        <ele>158</ele>
        <time>2023-11-13T09:18:39Z</time>
      </trkpt>
      <trkpt lat="46.93358" lon="-0.86354">
        <ele>158</ele>
        <time>2023-11-13T09:19:03Z</time>
      </trkpt>
      <trkpt lat="46.93357" lon="-0.86435">
        <ele>157</ele>
        <time>2023-11-13T09:20:16Z</time>
      </trkpt>
      <trkpt lat="46.93362" lon="-0.86461">
        <ele>156</ele>
        <time>2023-11-13T09:20:41Z</time>
      </trkpt>
      <trkpt lat="46.93395" lon="-0.86526">
        <ele>152</ele>
        <time>2023-11-13T09:21:55Z</time>
      </trkpt>
      <trkpt lat="46.93427" lon="-0.86554">
        <ele>149</ele>
        <time>2023-11-13T09:22:45Z</time>
      </trkpt>
      <trkpt lat="46.93446" lon="-0.8656">
        <ele>148</ele>
        <time>2023-11-13T09:23:11Z</time>
      </trkpt>
      <trkpt lat="46.93456" lon="-0.86582">
        <ele>147</ele>
        <time>2023-11-13T09:23:35Z</time>
      </trkpt>
      <trkpt lat="46.93442" lon="-0.86661">
        <ele>139</ele>
        <time>2023-11-13T09:24:49Z</time>
      </trkpt>
      <trkpt lat="46.93421" lon="-0.86739">
        <ele>131</ele>
        <time>2023-11-13T09:26:05Z</time>
      </trkpt>
      <trkpt lat="46.93411" lon="-0.86791">
        <ele>127</ele>
        <time>2023-11-13T09:26:55Z</time>
      </trkpt>
      <trkpt lat="46.93399" lon="-0.86813">
        <ele>126</ele>
        <time>2023-11-13T09:27:20Z</time>
      </trkpt>
      <trkpt lat="46.93386" lon="-0.86832">
        <ele>125</ele>
        <time>2023-11-13T09:27:45Z</time>
      </trkpt>
      <trkpt lat="46.93355" lon="-0.86859">
        <ele>125</ele>
        <time>2023-11-13T09:28:33Z</time>
      </trkpt>
      <trkpt lat="46.93336" lon="-0.86864">
        <ele>125</ele>
        <time>2023-11-13T09:28:59Z</time>
      </trkpt>
      <trkpt lat="46.93299" lon="-0.86863">
        <ele>126</ele>
        <time>2023-11-13T09:29:48Z</time>
      </trkpt>
      <trkpt lat="46.93281" lon="-0.86872">
        <ele>125</ele>
        <time>2023-11-13T09:30:14Z</time>
      </trkpt>
      <trkpt lat="46.93264" lon="-0.86862">
        <ele>126</ele>
        <time>2023-11-13T09:30:38Z</time>
      </trkpt>
      <trkpt lat="46.93228" lon="-0.86856">
        <ele>126</ele>
        <time>2023-11-13T09:31:26Z</time>
      </trkpt>
      <trkpt lat="46.93192" lon="-0.8684">
        <ele>126</ele>
        <time>2023-11-13T09:32:17Z</time>
      </trkpt>
      <trkpt lat="46.93174" lon="-0.86835">
        <ele>126</ele>
        <time>2023-11-13T09:32:41Z</time>
      </trkpt>
      <trkpt lat="46.93155" lon="-0.86838">
        <ele>125</ele>
        <time>2023-11-13T09:33:06Z</time>
      </trkpt>
      <trkpt lat="46.93138" lon="-0.86829">
        <ele>125</ele>
        <time>2023-11-13T09:33:31Z</time>
      </trkpt>
      <trkpt lat="46.93127" lon="-0.86807">
        <ele>125</ele>
        <time>2023-11-13T09:33:55Z</time>
      </trkpt>
      <trkpt lat="46.93131" lon="-0.86781">
        <ele>127</ele>
        <time>2023-11-13T09:34:20Z</time>
      </trkpt>
      <trkpt lat="46.93119" lon="-0.8673">
        <ele>127</ele>
        <time>2023-11-13T09:35:09Z</time>
      </trkpt>
      <trkpt lat="46.93071" lon="-0.86585">
        <ele>124</ele>
        <time>2023-11-13T09:37:36Z</time>
      </trkpt>
      <trkpt lat="46.93054" lon="-0.86577">
        <ele>124</ele>
        <time>2023-11-13T09:38:00Z</time>
      </trkpt>
      <trkpt lat="46.93035" lon="-0.86584">
        <ele>123</ele>
        <time>2023-11-13T09:38:26Z</time>
      </trkpt>
      <trkpt lat="46.92983" lon="-0.86612">
        <ele>121</ele>
        <time>2023-11-13T09:39:40Z</time>
      </trkpt>
      <trkpt lat="46.92965" lon="-0.86605">
        <ele>121</ele>
        <time>2023-11-13T09:40:04Z</time>
      </trkpt>
      <trkpt lat="46.92934" lon="-0.86573">
        <ele>123</ele>
        <time>2023-11-13T09:40:55Z</time>
      </trkpt>
      <trkpt lat="46.92887" lon="-0.86531">
        <ele>127</ele>
        <time>2023-11-13T09:42:09Z</time>
      </trkpt>
      <trkpt lat="46.92869" lon="-0.8653">
        <ele>129</ele>
        <time>2023-11-13T09:42:33Z</time>
      </trkpt>
      <trkpt lat="46.92851" lon="-0.8654">
        <ele>131</ele>
        <time>2023-11-13T09:42:58Z</time>
      </trkpt>
      <trkpt lat="46.9282" lon="-0.86571">
        <ele>135</ele>
        <time>2023-11-13T09:43:48Z</time>
      </trkpt>
      <trkpt lat="46.92809" lon="-0.86592">
        <ele>137</ele>
        <time>2023-11-13T09:44:13Z</time>
      </trkpt>
      <trkpt lat="46.92791" lon="-0.86601">
        <ele>142</ele>
        <time>2023-11-13T09:44:38Z</time>
      </trkpt>
      <trkpt lat="46.92774" lon="-0.8659">
        <ele>148</ele>
        <time>2023-11-13T09:45:03Z</time>
      </trkpt>
      <trkpt lat="46.92756" lon="-0.86587">
        <ele>153</ele>
        <time>2023-11-13T09:45:27Z</time>
      </trkpt>
      <trkpt lat="46.92739" lon="-0.86577">
        <ele>157</ele>
        <time>2023-11-13T09:45:51Z</time>
      </trkpt>
      <trkpt lat="46.92721" lon="-0.86572">
        <ele>159</ele>
        <time>2023-11-13T09:46:16Z</time>
      </trkpt>
      <trkpt lat="46.92702" lon="-0.8657">
        <ele>161</ele>
        <time>2023-11-13T09:46:41Z</time>
      </trkpt>
      <trkpt lat="46.92684" lon="-0.86576">
        <ele>163</ele>
        <time>2023-11-13T09:47:06Z</time>
      </trkpt>
      <trkpt lat="46.92654" lon="-0.86606">
        <ele>165</ele>
        <time>2023-11-13T09:47:54Z</time>
      </trkpt>
      <trkpt lat="46.92636" lon="-0.86616">
        <ele>166</ele>
        <time>2023-11-13T09:48:20Z</time>
      </trkpt>
      <trkpt lat="46.92581" lon="-0.86627">
        <ele>169</ele>
        <time>2023-11-13T09:49:34Z</time>
      </trkpt>
      <trkpt lat="46.92563" lon="-0.86633">
        <ele>171</ele>
        <time>2023-11-13T09:49:59Z</time>
      </trkpt>
      <trkpt lat="46.92526" lon="-0.86638">
        <ele>174</ele>
        <time>2023-11-13T09:50:48Z</time>
      </trkpt>
      <trkpt lat="46.92508" lon="-0.86637">
        <ele>176</ele>
        <time>2023-11-13T09:51:12Z</time>
      </trkpt>
      <trkpt lat="46.9249" lon="-0.86632">
        <ele>178</ele>
        <time>2023-11-13T09:51:37Z</time>
      </trkpt>
      <trkpt lat="46.92452" lon="-0.86631">
        <ele>180</ele>
        <time>2023-11-13T09:52:27Z</time>
      </trkpt>
      <trkpt lat="46.92415" lon="-0.86633">
        <ele>182</ele>
        <time>2023-11-13T09:53:17Z</time>
      </trkpt>
      <trkpt lat="46.92397" lon="-0.86626">
        <ele>183</ele>
        <time>2023-11-13T09:53:42Z</time>
      </trkpt>
      <trkpt lat="46.92381" lon="-0.86614">
        <ele>184</ele>
        <time>2023-11-13T09:54:06Z</time>
      </trkpt>
      <trkpt lat="46.92368" lon="-0.86594">
        <ele>186</ele>
        <time>2023-11-13T09:54:31Z</time>
      </trkpt>
      <trkpt lat="46.9235" lon="-0.86585">
        <ele>186</ele>
        <time>2023-11-13T09:54:56Z</time>
      </trkpt>
      <trkpt lat="46.92297" lon="-0.8661">
        <ele>187</ele>
        <time>2023-11-13T09:56:11Z</time>
      </trkpt>
      <trkpt lat="46.92261" lon="-0.86617">
        <ele>186</ele>
        <time>2023-11-13T09:56:59Z</time>
      </trkpt>
      <trkpt lat="46.92193" lon="-0.86659">
        <ele>184</ele>
        <time>2023-11-13T09:58:38Z</time>
      </trkpt>
      <trkpt lat="46.92175" lon="-0.86665">
        <ele>183</ele>
        <time>2023-11-13T09:59:02Z</time>
      </trkpt>
      <trkpt lat="46.92139" lon="-0.8667">
        <ele>182</ele>
        <time>2023-11-13T09:59:50Z</time>
      </trkpt>
      <trkpt lat="46.92102" lon="-0.86668">
        <ele>180</ele>
        <time>2023-11-13T10:00:40Z</time>
      </trkpt>
      <trkpt lat="46.92028" lon="-0.86653">
        <ele>177</ele>
        <time>2023-11-13T10:02:20Z</time>
      </trkpt>
      <trkpt lat="46.91973" lon="-0.86652">
        <ele>174</ele>
        <time>2023-11-13T10:03:33Z</time>
      </trkpt>
      <trkpt lat="46.91936" lon="-0.86647">
        <ele>172</ele>
        <time>2023-11-13T10:04:23Z</time>
      </trkpt>
      <trkpt lat="46.91919" lon="-0.86637">
        <ele>171</ele>
        <time>2023-11-13T10:04:47Z</time>
      </trkpt>
      <trkpt lat="46.91902" lon="-0.86647">
        <ele>169</ele>
        <time>2023-11-13T10:05:11Z</time>
      </trkpt>
      <trkpt lat="46.91884" lon="-0.86648">
        <ele>168</ele>
        <time>2023-11-13T10:05:35Z</time>
      </trkpt>
      <trkpt lat="46.91829" lon="-0.86642">
        <ele>163</ele>
        <time>2023-11-13T10:06:49Z</time>
      </trkpt>
      <trkpt lat="46.91794" lon="-0.86633">
        <ele>162</ele>
        <time>2023-11-13T10:07:36Z</time>
      </trkpt>
      <trkpt lat="46.91741" lon="-0.86607">
        <ele>159</ele>
        <time>2023-11-13T10:08:51Z</time>
      </trkpt>
      <trkpt lat="46.91725" lon="-0.86595">
        <ele>158</ele>
        <time>2023-11-13T10:09:15Z</time>
      </trkpt>
      <trkpt lat="46.91696" lon="-0.86562">
        <ele>156</ele>
        <time>2023-11-13T10:10:04Z</time>
      </trkpt>
      <trkpt lat="46.91644" lon="-0.86531">
        <ele>153</ele>
        <time>2023-11-13T10:11:19Z</time>
      </trkpt>
      <trkpt lat="46.91631" lon="-0.8651">
        <ele>152</ele>
        <time>2023-11-13T10:11:45Z</time>
      </trkpt>
      <trkpt lat="46.91612" lon="-0.86508">
        <ele>151</ele>
        <time>2023-11-13T10:12:10Z</time>
      </trkpt>
      <trkpt lat="46.9156" lon="-0.86537">
        <ele>148</ele>
        <time>2023-11-13T10:13:25Z</time>
      </trkpt>
      <trkpt lat="46.91527" lon="-0.86562">
        <ele>148</ele>
        <time>2023-11-13T10:14:14Z</time>
      </trkpt>
      <trkpt lat="46.91509" lon="-0.86571">
        <ele>147</ele>
        <time>2023-11-13T10:14:39Z</time>
      </trkpt>
      <trkpt lat="46.91494" lon="-0.86586">
        <ele>147</ele>
        <time>2023-11-13T10:15:04Z</time>
      </trkpt>
      <trkpt lat="46.91461" lon="-0.8661">
        <ele>144</ele>
        <time>2023-11-13T10:15:53Z</time>
      </trkpt>
      <trkpt lat="46.91429" lon="-0.86639">
        <ele>142</ele>
        <time>2023-11-13T10:16:43Z</time>
      </trkpt>
      <trkpt lat="46.91396" lon="-0.86664">
        <ele>141</ele>
        <time>2023-11-13T10:17:33Z</time>
      </trkpt>
      <trkpt lat="46.91378" lon="-0.86671">
        <ele>141</ele>
        <time>2023-11-13T10:17:58Z</time>
      </trkpt>
      <trkpt lat="46.91362" lon="-0.86658">
        <ele>141</ele>
        <time>2023-11-13T10:18:22Z</time>
      </trkpt>
      <trkpt lat="46.91304" lon="-0.8659">
        <ele>138</ele>
        <time>2023-11-13T10:20:01Z</time>
      </trkpt>
      <trkpt lat="46.91286" lon="-0.86579">
        <ele>137</ele>
        <time>2023-11-13T10:20:27Z</time>
      </trkpt>
      <trkpt lat="46.91256" lon="-0.86548">
        <ele>136</ele>
        <time>2023-11-13T10:21:16Z</time>
      </trkpt>
      <trkpt lat="46.91239" lon="-0.86538">
        <ele>136</ele>
        <time>2023-11-13T10:21:41Z</time>
      </trkpt>
      <trkpt lat="46.91221" lon="-0.86535">
        <ele>137</ele>
        <time>2023-11-13T10:22:05Z</time>
      </trkpt>
      <trkpt lat="46.91202" lon="-0.8654">
        <ele>138</ele>
        <time>2023-11-13T10:22:31Z</time>
      </trkpt>
      <trkpt lat="46.91184" lon="-0.86539">
        <ele>138</ele>
        <time>2023-11-13T10:22:55Z</time>
      </trkpt>
      <trkpt lat="46.91183" lon="-0.86513">
        <ele>139</ele>
        <time>2023-11-13T10:23:18Z</time>
      </trkpt>
      <trkpt lat="46.91198" lon="-0.86498">
        <ele>139</ele>
        <time>2023-11-13T10:23:43Z</time>
      </trkpt>
      <trkpt lat="46.91205" lon="-0.86473">
        <ele>141</ele>
        <time>2023-11-13T10:24:07Z</time>
      </trkpt>
      <trkpt lat="46.91222" lon="-0.86449">
        <ele>142</ele>
        <time>2023-11-13T10:24:39Z</time>
      </trkpt>
      <trkpt lat="46.91204" lon="-0.86448">
        <ele>143</ele>
        <time>2023-11-13T10:25:03Z</time>
      </trkpt>
      <trkpt lat="46.91206" lon="-0.8642">
        <ele>146</ele>
        <time>2023-11-13T10:25:28Z</time>
      </trkpt>
      <trkpt lat="46.91204" lon="-0.86392">
        <ele>147</ele>
        <time>2023-11-13T10:25:54Z</time>
      </trkpt>
      <trkpt lat="46.91166" lon="-0.86388">
        <ele>149</ele>
        <time>2023-11-13T10:26:45Z</time>
      </trkpt>
      <trkpt lat="46.91148" lon="-0.86397">
        <ele>149</ele>
        <time>2023-11-13T10:27:10Z</time>
      </trkpt>
      <trkpt lat="46.91131" lon="-0.86409">
        <ele>148</ele>
        <time>2023-11-13T10:27:35Z</time>
      </trkpt>
      <trkpt lat="46.91114" lon="-0.86396">
        <ele>149</ele>
        <time>2023-11-13T10:28:01Z</time>
      </trkpt>
      <trkpt lat="46.91097" lon="-0.86388">
        <ele>149</ele>
        <time>2023-11-13T10:28:25Z</time>
      </trkpt>
      <trkpt lat="46.9106" lon="-0.86379">
        <ele>150</ele>
        <time>2023-11-13T10:29:15Z</time>
      </trkpt>
      <trkpt lat="46.91081" lon="-0.86384">
        <ele>149</ele>
        <time>2023-11-13T10:29:43Z</time>
      </trkpt>
      <trkpt lat="46.91064" lon="-0.86376">
        <ele>150</ele>
        <time>2023-11-13T10:30:07Z</time>
      </trkpt>
      <trkpt lat="46.91008" lon="-0.86382">
        <ele>152</ele>
        <time>2023-11-13T10:31:22Z</time>
      </trkpt>
      <trkpt lat="46.90989" lon="-0.86381">
        <ele>152</ele>
        <time>2023-11-13T10:31:47Z</time>
      </trkpt>
      <trkpt lat="46.90972" lon="-0.86388">
        <ele>151</ele>
        <time>2023-11-13T10:32:11Z</time>
      </trkpt>
      <trkpt lat="46.90954" lon="-0.86383">
        <ele>150</ele>
        <time>2023-11-13T10:32:36Z</time>
      </trkpt>
      <trkpt lat="46.90937" lon="-0.86374">
        <ele>150</ele>
        <time>2023-11-13T10:33:00Z</time>
      </trkpt>
      <trkpt lat="46.90922" lon="-0.86357">
        <ele>150</ele>
        <time>2023-11-13T10:33:25Z</time>
      </trkpt>
      <trkpt lat="46.90909" lon="-0.86337">
        <ele>151</ele>
        <time>2023-11-13T10:33:50Z</time>
      </trkpt>
      <trkpt lat="46.90891" lon="-0.8634">
        <ele>150</ele>
        <time>2023-11-13T10:34:14Z</time>
      </trkpt>
      <trkpt lat="46.90884" lon="-0.86365">
        <ele>149</ele>
        <time>2023-11-13T10:34:39Z</time>
      </trkpt>
      <trkpt lat="46.90874" lon="-0.86388">
        <ele>147</ele>
        <time>2023-11-13T10:35:04Z</time>
      </trkpt>
      <trkpt lat="46.90869" lon="-0.86415">
        <ele>145</ele>
        <time>2023-11-13T10:35:29Z</time>
      </trkpt>
      <trkpt lat="46.90846" lon="-0.86491">
        <ele>135</ele>
        <time>2023-11-13T10:36:45Z</time>
      </trkpt>
      <trkpt lat="46.90855" lon="-0.86514">
        <ele>134</ele>
        <time>2023-11-13T10:37:09Z</time>
      </trkpt>
      <trkpt lat="46.9088" lon="-0.86534">
        <ele>135</ele>
        <time>2023-11-13T10:37:47Z</time>
      </trkpt>
      <trkpt lat="46.90901" lon="-0.86533">
        <ele>136</ele>
        <time>2023-11-13T10:38:15Z</time>
      </trkpt>
      <trkpt lat="46.90937" lon="-0.86541">
        <ele>136</ele>
        <time>2023-11-13T10:39:04Z</time>
      </trkpt>
      <trkpt lat="46.90966" lon="-0.86552">
        <ele>133</ele>
        <time>2023-11-13T10:39:44Z</time>
      </trkpt>
      <trkpt lat="46.91013" lon="-0.8654">
        <ele>134</ele>
        <time>2023-11-13T10:40:48Z</time>
      </trkpt>
      <trkpt lat="46.91052" lon="-0.8655">
        <ele>132</ele>
        <time>2023-11-13T10:41:40Z</time>
      </trkpt>
      <trkpt lat="46.9107" lon="-0.86559">
        <ele>131</ele>
        <time>2023-11-13T10:42:06Z</time>
      </trkpt>
      <trkpt lat="46.91088" lon="-0.86564">
        <ele>131</ele>
        <time>2023-11-13T10:42:30Z</time>
      </trkpt>
      <trkpt lat="46.91106" lon="-0.86553">
        <ele>133</ele>
        <time>2023-11-13T10:42:56Z</time>
      </trkpt>
      <trkpt lat="46.9112" lon="-0.86604">
        <ele>132</ele>
        <time>2023-11-13T10:43:46Z</time>
      </trkpt>
      <trkpt lat="46.9112" lon="-0.86631">
        <ele>131</ele>
        <time>2023-11-13T10:44:11Z</time>
      </trkpt>
      <trkpt lat="46.91115" lon="-0.8669">
        <ele>130</ele>
        <time>2023-11-13T10:45:05Z</time>
      </trkpt>
      <trkpt lat="46.91123" lon="-0.86714">
        <ele>130</ele>
        <time>2023-11-13T10:45:29Z</time>
      </trkpt>
      <trkpt lat="46.91139" lon="-0.86729">
        <ele>130</ele>
        <time>2023-11-13T10:45:55Z</time>
      </trkpt>
      <trkpt lat="46.91157" lon="-0.86738">
        <ele>130</ele>
        <time>2023-11-13T10:46:20Z</time>
      </trkpt>
      <trkpt lat="46.91176" lon="-0.86736">
        <ele>131</ele>
        <time>2023-11-13T10:46:46Z</time>
      </trkpt>
      <trkpt lat="46.91183" lon="-0.86761">
        <ele>131</ele>
        <time>2023-11-13T10:47:10Z</time>
      </trkpt>
      <trkpt lat="46.91199" lon="-0.86773">
        <ele>131</ele>
        <time>2023-11-13T10:47:34Z</time>
      </trkpt>
      <trkpt lat="46.91206" lon="-0.86799">
        <ele>131</ele>
        <time>2023-11-13T10:48:00Z</time>
      </trkpt>
      <trkpt lat="46.91217" lon="-0.86821">
        <ele>131</ele>
        <time>2023-11-13T10:48:25Z</time>
      </trkpt>
      <trkpt lat="46.91229" lon="-0.86842">
        <ele>130</ele>
        <time>2023-11-13T10:48:50Z</time>
      </trkpt>
      <trkpt lat="46.91244" lon="-0.8686">
        <ele>130</ele>
        <time>2023-11-13T10:49:15Z</time>
      </trkpt>
      <trkpt lat="46.9126" lon="-0.86874">
        <ele>129</ele>
        <time>2023-11-13T10:49:40Z</time>
      </trkpt>
      <trkpt lat="46.91279" lon="-0.86876">
        <ele>129</ele>
        <time>2023-11-13T10:50:06Z</time>
      </trkpt>
      <trkpt lat="46.91318" lon="-0.86887">
        <ele>129</ele>
        <time>2023-11-13T10:50:59Z</time>
      </trkpt>
      <trkpt lat="46.91333" lon="-0.86901">
        <ele>128</ele>
        <time>2023-11-13T10:51:22Z</time>
      </trkpt>
      <trkpt lat="46.91338" lon="-0.86927">
        <ele>127</ele>
        <time>2023-11-13T10:51:47Z</time>
      </trkpt>
      <trkpt lat="46.91343" lon="-0.86984">
        <ele>126</ele>
        <time>2023-11-13T10:52:39Z</time>
      </trkpt>
      <trkpt lat="46.91354" lon="-0.87005">
        <ele>126</ele>
        <time>2023-11-13T10:53:04Z</time>
      </trkpt>
      <trkpt lat="46.91371" lon="-0.87015">
        <ele>126</ele>
        <time>2023-11-13T10:53:28Z</time>
      </trkpt>
      <trkpt lat="46.91389" lon="-0.87022">
        <ele>127</ele>
        <time>2023-11-13T10:53:53Z</time>
      </trkpt>
      <trkpt lat="46.91441" lon="-0.87055">
        <ele>126</ele>
        <time>2023-11-13T10:55:09Z</time>
      </trkpt>
      <trkpt lat="46.91492" lon="-0.87145">
        <ele>125</ele>
        <time>2023-11-13T10:56:55Z</time>
      </trkpt>
      <trkpt lat="46.91499" lon="-0.87172">
        <ele>124</ele>
        <time>2023-11-13T10:57:21Z</time>
      </trkpt>
      <trkpt lat="46.91536" lon="-0.87266">
        <ele>124</ele>
        <time>2023-11-13T10:59:00Z</time>
      </trkpt>
      <trkpt lat="46.91577" lon="-0.8732">
        <ele>124</ele>
        <time>2023-11-13T11:00:14Z</time>
      </trkpt>
      <trkpt lat="46.91593" lon="-0.87336">
        <ele>124</ele>
        <time>2023-11-13T11:00:40Z</time>
      </trkpt>
      <trkpt lat="46.9161" lon="-0.87348">
        <ele>125</ele>
        <time>2023-11-13T11:01:05Z</time>
      </trkpt>
      <trkpt lat="46.91624" lon="-0.87365">
        <ele>125</ele>
        <time>2023-11-13T11:01:29Z</time>
      </trkpt>
      <trkpt lat="46.9163" lon="-0.87389">
        <ele>126</ele>
        <time>2023-11-13T11:01:53Z</time>
      </trkpt>
      <trkpt lat="46.91647" lon="-0.87404">
        <ele>125</ele>
        <time>2023-11-13T11:02:19Z</time>
      </trkpt>
      <trkpt lat="46.91735" lon="-0.87446">
        <ele>126</ele>
        <time>2023-11-13T11:04:23Z</time>
      </trkpt>
      <trkpt lat="46.91772" lon="-0.87446">
        <ele>126</ele>
        <time>2023-11-13T11:05:12Z</time>
      </trkpt>
      <trkpt lat="46.9183" lon="-0.87452">
        <ele>126</ele>
        <time>2023-11-13T11:06:30Z</time>
      </trkpt>
      <trkpt lat="46.91848" lon="-0.87447">
        <ele>127</ele>
        <time>2023-11-13T11:06:54Z</time>
      </trkpt>
      <trkpt lat="46.91867" lon="-0.87448">
        <ele>128</ele>
        <time>2023-11-13T11:07:19Z</time>
      </trkpt>
      <trkpt lat="46.91885" lon="-0.87453">
        <ele>128</ele>
        <time>2023-11-13T11:07:44Z</time>
      </trkpt>
      <trkpt lat="46.91921" lon="-0.87444">
        <ele>130</ele>
        <time>2023-11-13T11:08:33Z</time>
      </trkpt>
      <trkpt lat="46.91941" lon="-0.87443">
        <ele>130</ele>
        <time>2023-11-13T11:08:59Z</time>
      </trkpt>
      <trkpt lat="46.91957" lon="-0.87429">
        <ele>130</ele>
        <time>2023-11-13T11:09:24Z</time>
      </trkpt>
      <trkpt lat="46.91981" lon="-0.8739">
        <ele>131</ele>
        <time>2023-11-13T11:10:12Z</time>
      </trkpt>
      <trkpt lat="46.92011" lon="-0.87359">
        <ele>130</ele>
        <time>2023-11-13T11:11:01Z</time>
      </trkpt>
      <trkpt lat="46.92066" lon="-0.87342">
        <ele>128</ele>
        <time>2023-11-13T11:12:16Z</time>
      </trkpt>
      <trkpt lat="46.92087" lon="-0.87333">
        <ele>127</ele>
        <time>2023-11-13T11:12:45Z</time>
      </trkpt>
      <trkpt lat="46.9209" lon="-0.87307">
        <ele>130</ele>
        <time>2023-11-13T11:13:09Z</time>
      </trkpt>
      <trkpt lat="46.92091" lon="-0.87278">
        <ele>133</ele>
        <time>2023-11-13T11:13:36Z</time>
      </trkpt>
      <trkpt lat="46.92085" lon="-0.87254">
        <ele>136</ele>
        <time>2023-11-13T11:13:59Z</time>
      </trkpt>
      <trkpt lat="46.92068" lon="-0.87239">
        <ele>139</ele>
        <time>2023-11-13T11:14:25Z</time>
      </trkpt>
      <trkpt lat="46.9205" lon="-0.87234">
        <ele>141</ele>
        <time>2023-11-13T11:14:50Z</time>
      </trkpt>
      <trkpt lat="46.92032" lon="-0.87239">
        <ele>142</ele>
        <time>2023-11-13T11:15:14Z</time>
      </trkpt>
      <trkpt lat="46.92025" lon="-0.87215">
        <ele>145</ele>
        <time>2023-11-13T11:15:38Z</time>
      </trkpt>
      <trkpt lat="46.92011" lon="-0.87199">
        <ele>147</ele>
        <time>2023-11-13T11:16:02Z</time>
      </trkpt>
      <trkpt lat="46.92002" lon="-0.87175">
        <ele>149</ele>
        <time>2023-11-13T11:16:27Z</time>
      </trkpt>
      <trkpt lat="46.92004" lon="-0.87094">
        <ele>153</ele>
        <time>2023-11-13T11:17:41Z</time>
      </trkpt>
      <trkpt lat="46.91995" lon="-0.8707">
        <ele>153</ele>
        <time>2023-11-13T11:18:06Z</time>
      </trkpt>
      <trkpt lat="46.91951" lon="-0.8702">
        <ele>150</ele>
        <time>2023-11-13T11:19:20Z</time>
      </trkpt>
      <trkpt lat="46.91948" lon="-0.86992">
        <ele>151</ele>
        <time>2023-11-13T11:19:46Z</time>
      </trkpt>
      <trkpt lat="46.91961" lon="-0.86941">
        <ele>155</ele>
        <time>2023-11-13T11:20:35Z</time>
      </trkpt>
      <trkpt lat="46.91965" lon="-0.86915">
        <ele>157</ele>
        <time>2023-11-13T11:21:00Z</time>
      </trkpt>
      <trkpt lat="46.91962" lon="-0.86888">
        <ele>158</ele>
        <time>2023-11-13T11:21:25Z</time>
      </trkpt>
      <trkpt lat="46.91964" lon="-0.86861">
        <ele>160</ele>
        <time>2023-11-13T11:21:49Z</time>
      </trkpt>
      <trkpt lat="46.91953" lon="-0.8681">
        <ele>162</ele>
        <time>2023-11-13T11:22:38Z</time>
      </trkpt>
      <trkpt lat="46.91951" lon="-0.86783">
        <ele>164</ele>
        <time>2023-11-13T11:23:03Z</time>
      </trkpt>
      <trkpt lat="46.91933" lon="-0.86679">
        <ele>170</ele>
        <time>2023-11-13T11:24:41Z</time>
      </trkpt>
      <trkpt lat="46.91931" lon="-0.86653">
        <ele>171</ele>
        <time>2023-11-13T11:25:05Z</time>
      </trkpt>
      <trkpt lat="46.91949" lon="-0.86647">
        <ele>172</ele>
        <time>2023-11-13T11:25:29Z</time>
      </trkpt>
      <trkpt lat="46.91986" lon="-0.86652">
        <ele>175</ele>
        <time>2023-11-13T11:26:19Z</time>
      </trkpt>
      <trkpt lat="46.92023" lon="-0.86652">
        <ele>176</ele>
        <time>2023-11-13T11:27:08Z</time>
      </trkpt>
      <trkpt lat="46.92077" lon="-0.86665">
        <ele>179</ele>
        <time>2023-11-13T11:28:21Z</time>
      </trkpt>
      <trkpt lat="46.92152" lon="-0.86671">
        <ele>182</ele>
        <time>2023-11-13T11:30:01Z</time>
      </trkpt>
      <trkpt lat="46.9219" lon="-0.86663">
        <ele>184</ele>
        <time>2023-11-13T11:30:53Z</time>
      </trkpt>
      <trkpt lat="46.92242" lon="-0.86634">
        <ele>186</ele>
        <time>2023-11-13T11:32:07Z</time>
      </trkpt>
      <trkpt lat="46.92258" lon="-0.86621">
        <ele>186</ele>
        <time>2023-11-13T11:32:31Z</time>
      </trkpt>
      <trkpt lat="46.92275" lon="-0.86612">
        <ele>186</ele>
        <time>2023-11-13T11:32:55Z</time>
      </trkpt>
      <trkpt lat="46.92312" lon="-0.86605">
        <ele>187</ele>
        <time>2023-11-13T11:33:45Z</time>
      </trkpt>
      <trkpt lat="46.92347" lon="-0.86588">
        <ele>186</ele>
        <time>2023-11-13T11:34:34Z</time>
      </trkpt>
      <trkpt lat="46.92379" lon="-0.86615">
        <ele>185</ele>
        <time>2023-11-13T11:35:24Z</time>
      </trkpt>
      <trkpt lat="46.92414" lon="-0.86632">
        <ele>182</ele>
        <time>2023-11-13T11:36:13Z</time>
      </trkpt>
      <trkpt lat="46.92509" lon="-0.86632">
        <ele>176</ele>
        <time>2023-11-13T11:38:20Z</time>
      </trkpt>
      <trkpt lat="46.9253" lon="-0.86639">
        <ele>174</ele>
        <time>2023-11-13T11:38:48Z</time>
      </trkpt>
      <trkpt lat="46.92548" lon="-0.8664">
        <ele>172</ele>
        <time>2023-11-13T11:39:12Z</time>
      </trkpt>
      <trkpt lat="46.92565" lon="-0.86631">
        <ele>171</ele>
        <time>2023-11-13T11:39:37Z</time>
      </trkpt>
      <trkpt lat="46.92639" lon="-0.86613">
        <ele>165</ele>
        <time>2023-11-13T11:41:17Z</time>
      </trkpt>
      <trkpt lat="46.92658" lon="-0.86605">
        <ele>165</ele>
        <time>2023-11-13T11:41:43Z</time>
      </trkpt>
      <trkpt lat="46.92673" lon="-0.86589">
        <ele>164</ele>
        <time>2023-11-13T11:42:08Z</time>
      </trkpt>
      <trkpt lat="46.9269" lon="-0.86577">
        <ele>162</ele>
        <time>2023-11-13T11:42:33Z</time>
      </trkpt>
      <trkpt lat="46.92707" lon="-0.86571">
        <ele>161</ele>
        <time>2023-11-13T11:42:56Z</time>
      </trkpt>
      <trkpt lat="46.92725" lon="-0.8657">
        <ele>158</ele>
        <time>2023-11-13T11:43:20Z</time>
      </trkpt>
      <trkpt lat="46.92742" lon="-0.86579">
        <ele>156</ele>
        <time>2023-11-13T11:43:44Z</time>
      </trkpt>
      <trkpt lat="46.92761" lon="-0.86579">
        <ele>152</ele>
        <time>2023-11-13T11:44:10Z</time>
      </trkpt>
      <trkpt lat="46.92794" lon="-0.86601">
        <ele>141</ele>
        <time>2023-11-13T11:44:58Z</time>
      </trkpt>
      <trkpt lat="46.92813" lon="-0.86587">
        <ele>137</ele>
        <time>2023-11-13T11:45:27Z</time>
      </trkpt>
      <trkpt lat="46.92825" lon="-0.86567">
        <ele>134</ele>
        <time>2023-11-13T11:45:51Z</time>
      </trkpt>
      <trkpt lat="46.92856" lon="-0.86535">
        <ele>131</ele>
        <time>2023-11-13T11:46:41Z</time>
      </trkpt>
      <trkpt lat="46.92874" lon="-0.86528">
        <ele>128</ele>
        <time>2023-11-13T11:47:06Z</time>
      </trkpt>
      <trkpt lat="46.92892" lon="-0.86532">
        <ele>126</ele>
        <time>2023-11-13T11:47:31Z</time>
      </trkpt>
      <trkpt lat="46.9297" lon="-0.86606">
        <ele>121</ele>
        <time>2023-11-13T11:49:35Z</time>
      </trkpt>
      <trkpt lat="46.92988" lon="-0.86609">
        <ele>121</ele>
        <time>2023-11-13T11:49:59Z</time>
      </trkpt>
      <trkpt lat="46.93004" lon="-0.86597">
        <ele>121</ele>
        <time>2023-11-13T11:50:23Z</time>
      </trkpt>
      <trkpt lat="46.93039" lon="-0.86581">
        <ele>123</ele>
        <time>2023-11-13T11:51:12Z</time>
      </trkpt>
      <trkpt lat="46.93056" lon="-0.8657">
        <ele>124</ele>
        <time>2023-11-13T11:51:37Z</time>
      </trkpt>
      <trkpt lat="46.93069" lon="-0.86588">
        <ele>124</ele>
        <time>2023-11-13T11:52:00Z</time>
      </trkpt>
      <trkpt lat="46.93126" lon="-0.86758">
        <ele>128</ele>
        <time>2023-11-13T11:54:53Z</time>
      </trkpt>
      <trkpt lat="46.93131" lon="-0.86785">
        <ele>127</ele>
        <time>2023-11-13T11:55:19Z</time>
      </trkpt>
      <trkpt lat="46.9313" lon="-0.86812">
        <ele>125</ele>
        <time>2023-11-13T11:55:43Z</time>
      </trkpt>
      <trkpt lat="46.93145" lon="-0.8683">
        <ele>125</ele>
        <time>2023-11-13T11:56:09Z</time>
      </trkpt>
      <trkpt lat="46.93182" lon="-0.86832">
        <ele>127</ele>
        <time>2023-11-13T11:56:58Z</time>
      </trkpt>
      <trkpt lat="46.93218" lon="-0.86847">
        <ele>127</ele>
        <time>2023-11-13T11:57:48Z</time>
      </trkpt>
      <trkpt lat="46.93236" lon="-0.86857">
        <ele>126</ele>
        <time>2023-11-13T11:58:14Z</time>
      </trkpt>
      <trkpt lat="46.93254" lon="-0.86852">
        <ele>127</ele>
        <time>2023-11-13T11:58:39Z</time>
      </trkpt>
      <trkpt lat="46.9331" lon="-0.86859">
        <ele>126</ele>
        <time>2023-11-13T11:59:54Z</time>
      </trkpt>
      <trkpt lat="46.93347" lon="-0.86852">
        <ele>126</ele>
        <time>2023-11-13T12:00:43Z</time>
      </trkpt>
      <trkpt lat="46.93381" lon="-0.8683">
        <ele>125</ele>
        <time>2023-11-13T12:01:33Z</time>
      </trkpt>
      <trkpt lat="46.93396" lon="-0.86814">
        <ele>126</ele>
        <time>2023-11-13T12:01:58Z</time>
      </trkpt>
      <trkpt lat="46.93408" lon="-0.86793">
        <ele>127</ele>
        <time>2023-11-13T12:02:23Z</time>
      </trkpt>
      <trkpt lat="46.93441" lon="-0.86668">
        <ele>138</ele>
        <time>2023-11-13T12:04:25Z</time>
      </trkpt>
      <trkpt lat="46.9347" lon="-0.8654">
        <ele>149</ele>
        <time>2023-11-13T12:06:28Z</time>
      </trkpt>
      <trkpt lat="46.93488" lon="-0.86494">
        <ele>152</ele>
        <time>2023-11-13T12:07:16Z</time>
      </trkpt>
      <trkpt lat="46.93502" lon="-0.86476">
        <ele>153</ele>
        <time>2023-11-13T12:07:41Z</time>
      </trkpt>
      <trkpt lat="46.93519" lon="-0.86466">
        <ele>153</ele>
        <time>2023-11-13T12:08:05Z</time>
      </trkpt>
      <trkpt lat="46.93547" lon="-0.86431">
        <ele>155</ele>
        <time>2023-11-13T12:08:54Z</time>
      </trkpt>
      <trkpt lat="46.9356" lon="-0.86411">
        <ele>156</ele>
        <time>2023-11-13T12:09:20Z</time>
      </trkpt>
      <trkpt lat="46.93591" lon="-0.86344">
        <ele>159</ele>
        <time>2023-11-13T12:10:33Z</time>
      </trkpt>
      <trkpt lat="46.93605" lon="-0.86182">
        <ele>164</ele>
        <time>2023-11-13T12:13:02Z</time>
      </trkpt>
      <trkpt lat="46.93604" lon="-0.86128">
        <ele>165</ele>
        <time>2023-11-13T12:13:51Z</time>
      </trkpt>
      <trkpt lat="46.93609" lon="-0.86048">
        <ele>165</ele>
        <time>2023-11-13T12:15:05Z</time>
      </trkpt>
      <trkpt lat="46.93606" lon="-0.86021">
        <ele>166</ele>
        <time>2023-11-13T12:15:29Z</time>
      </trkpt>
      <trkpt lat="46.93607" lon="-0.85967">
        <ele>166</ele>
        <time>2023-11-13T12:16:19Z</time>
      </trkpt>
      <trkpt lat="46.93625" lon="-0.85965">
        <ele>166</ele>
        <time>2023-11-13T12:16:43Z</time>
      </trkpt>
      <trkpt lat="46.93675" lon="-0.85997">
        <ele>166</ele>
        <time>2023-11-13T12:17:56Z</time>
      </trkpt>
      <trkpt lat="46.93813" lon="-0.86138">
        <ele>157</ele>
        <time>2023-11-13T12:21:40Z</time>
      </trkpt>
      <trkpt lat="46.93891" lon="-0.86213">
        <ele>155</ele>
        <time>2023-11-13T12:23:45Z</time>
      </trkpt>
      <trkpt lat="46.93905" lon="-0.86232">
        <ele>155</ele>
        <time>2023-11-13T12:24:10Z</time>
      </trkpt>
      <trkpt lat="46.9394" lon="-0.86296">
        <ele>155</ele>
        <time>2023-11-13T12:25:25Z</time>
      </trkpt>
      <trkpt lat="46.93981" lon="-0.86419">
        <ele>151</ele>
        <time>2023-11-13T12:27:30Z</time>
      </trkpt>
      <trkpt lat="46.93993" lon="-0.86439">
        <ele>151</ele>
        <time>2023-11-13T12:27:54Z</time>
      </trkpt>
      <trkpt lat="46.94008" lon="-0.86457">
        <ele>151</ele>
        <time>2023-11-13T12:28:20Z</time>
      </trkpt>
      <trkpt lat="46.94024" lon="-0.86471">
        <ele>152</ele>
        <time>2023-11-13T12:28:45Z</time>
      </trkpt>
      <trkpt lat="46.94057" lon="-0.86493">
        <ele>154</ele>
        <time>2023-11-13T12:29:33Z</time>
      </trkpt>
      <trkpt lat="46.94072" lon="-0.86509">
        <ele>155</ele>
        <time>2023-11-13T12:29:58Z</time>
      </trkpt>
      <trkpt lat="46.94156" lon="-0.86564">
        <ele>159</ele>
        <time>2023-11-13T12:32:00Z</time>
      </trkpt>
      <trkpt lat="46.94212" lon="-0.86636">
        <ele>162</ele>
        <time>2023-11-13T12:33:40Z</time>
      </trkpt>
      <trkpt lat="46.94278" lon="-0.86733">
        <ele>164</ele>
        <time>2023-11-13T12:35:45Z</time>
      </trkpt>
      <trkpt lat="46.94309" lon="-0.86764">
        <ele>164</ele>
        <time>2023-11-13T12:36:35Z</time>
      </trkpt>
      <trkpt lat="46.94341" lon="-0.8679">
        <ele>164</ele>
        <time>2023-11-13T12:37:24Z</time>
      </trkpt>
      <trkpt lat="46.94371" lon="-0.86821">
        <ele>165</ele>
        <time>2023-11-13T12:38:13Z</time>
      </trkpt>
      <trkpt lat="46.94448" lon="-0.86941">
        <ele>168</ele>
        <time>2023-11-13T12:40:43Z</time>
      </trkpt>
      <trkpt lat="46.94502" lon="-0.87016">
        <ele>171</ele>
        <time>2023-11-13T12:42:22Z</time>
      </trkpt>
      <trkpt lat="46.94541" lon="-0.87075">
        <ele>171</ele>
        <time>2023-11-13T12:43:37Z</time>
      </trkpt>
      <trkpt lat="46.94573" lon="-0.87141">
        <ele>169</ele>
        <time>2023-11-13T12:44:50Z</time>
      </trkpt>
      <trkpt lat="46.94597" lon="-0.87182">
        <ele>166</ele>
        <time>2023-11-13T12:45:40Z</time>
      </trkpt>
      <trkpt lat="46.94663" lon="-0.87275">
        <ele>162</ele>
        <time>2023-11-13T12:47:42Z</time>
      </trkpt>
      <trkpt lat="46.94706" lon="-0.87328">
        <ele>160</ele>
        <time>2023-11-13T12:48:57Z</time>
      </trkpt>
      <trkpt lat="46.9471" lon="-0.87355">
        <ele>160</ele>
        <time>2023-11-13T12:49:22Z</time>
      </trkpt>
      <trkpt lat="46.947" lon="-0.87378">
        <ele>160</ele>
        <time>2023-11-13T12:49:47Z</time>
      </trkpt>
      <trkpt lat="46.94675" lon="-0.87419">
        <ele>159</ele>
        <time>2023-11-13T12:50:37Z</time>
      </trkpt>
      <trkpt lat="46.9462" lon="-0.87528">
        <ele>156</ele>
        <time>2023-11-13T12:52:40Z</time>
      </trkpt>
      <trkpt lat="46.94607" lon="-0.87548">
        <ele>157</ele>
        <time>2023-11-13T12:53:06Z</time>
      </trkpt>
      <trkpt lat="46.94561" lon="-0.87634">
        <ele>160</ele>
        <time>2023-11-13T12:54:45Z</time>
      </trkpt>
      <trkpt lat="46.94569" lon="-0.87688">
        <ele>160</ele>
        <time>2023-11-13T12:55:35Z</time>
      </trkpt>
      <trkpt lat="46.94581" lon="-0.8771">
        <ele>160</ele>
        <time>2023-11-13T12:56:01Z</time>
      </trkpt>
      <trkpt lat="46.94585" lon="-0.87736">
        <ele>160</ele>
        <time>2023-11-13T12:56:25Z</time>
      </trkpt>
      <trkpt lat="46.94572" lon="-0.87787">
        <ele>157</ele>
        <time>2023-11-13T12:57:15Z</time>
      </trkpt>
      <trkpt lat="46.9455" lon="-0.87831">
        <ele>154</ele>
        <time>2023-11-13T12:58:05Z</time>
      </trkpt>
      <trkpt lat="46.94524" lon="-0.87867">
        <ele>152</ele>
        <time>2023-11-13T12:58:52Z</time>
      </trkpt>
      <trkpt lat="46.94514" lon="-0.87891">
        <ele>151</ele>
        <time>2023-11-13T12:59:18Z</time>
      </trkpt>
      <trkpt lat="46.94547" lon="-0.87912">
        <ele>148</ele>
        <time>2023-11-13T13:00:06Z</time>
      </trkpt>
      <trkpt lat="46.9456" lon="-0.87933">
        <ele>145</ele>
        <time>2023-11-13T13:00:32Z</time>
      </trkpt>
      <trkpt lat="46.94568" lon="-0.87957">
        <ele>142</ele>
        <time>2023-11-13T13:00:56Z</time>
      </trkpt>
      <trkpt lat="46.94572" lon="-0.87983">
        <ele>139</ele>
        <time>2023-11-13T13:01:21Z</time>
      </trkpt>
      <trkpt lat="46.94584" lon="-0.88003">
        <ele>136</ele>
        <time>2023-11-13T13:01:45Z</time>
      </trkpt>
      <trkpt lat="46.94602" lon="-0.87998">
        <ele>134</ele>
        <time>2023-11-13T13:02:09Z</time>
      </trkpt>
      <trkpt lat="46.94619" lon="-0.88004">
        <ele>131</ele>
        <time>2023-11-13T13:02:33Z</time>
      </trkpt>
      <trkpt lat="46.94637" lon="-0.88014">
        <ele>128</ele>
        <time>2023-11-13T13:02:58Z</time>
      </trkpt>
      <trkpt lat="46.94656" lon="-0.88013">
        <ele>125</ele>
        <time>2023-11-13T13:03:24Z</time>
      </trkpt>
      <trkpt lat="46.94669" lon="-0.8803">
        <ele>123</ele>
        <time>2023-11-13T13:03:47Z</time>
      </trkpt>
      <trkpt lat="46.94688" lon="-0.88033">
        <ele>121</ele>
        <time>2023-11-13T13:04:12Z</time>
      </trkpt>
      <trkpt lat="46.94721" lon="-0.88012">
        <ele>121</ele>
        <time>2023-11-13T13:05:00Z</time>
      </trkpt>
      <trkpt lat="46.94748" lon="-0.88049">
        <ele>118</ele>
        <time>2023-11-13T13:05:50Z</time>
      </trkpt>
      <trkpt lat="46.94764" lon="-0.88064">
        <ele>117</ele>
        <time>2023-11-13T13:06:15Z</time>
      </trkpt>
      <trkpt lat="46.94782" lon="-0.88063">
        <ele>117</ele>
        <time>2023-11-13T13:06:39Z</time>
      </trkpt>
      <trkpt lat="46.948" lon="-0.88056">
        <ele>116</ele>
        <time>2023-11-13T13:07:04Z</time>
      </trkpt>
      <trkpt lat="46.94818" lon="-0.88053">
        <ele>116</ele>
        <time>2023-11-13T13:07:28Z</time>
      </trkpt>
      <trkpt lat="46.94836" lon="-0.88059">
        <ele>116</ele>
        <time>2023-11-13T13:07:53Z</time>
      </trkpt>
      <trkpt lat="46.94853" lon="-0.8807">
        <ele>116</ele>
        <time>2023-11-13T13:08:18Z</time>
      </trkpt>
      <trkpt lat="46.94902" lon="-0.8811">
        <ele>115</ele>
        <time>2023-11-13T13:09:32Z</time>
      </trkpt>
      <trkpt lat="46.94936" lon="-0.88133">
        <ele>115</ele>
        <time>2023-11-13T13:10:22Z</time>
      </trkpt>
      <trkpt lat="46.94954" lon="-0.88139">
        <ele>116</ele>
        <time>2023-11-13T13:10:47Z</time>
      </trkpt>
      <trkpt lat="46.94991" lon="-0.88131">
        <ele>119</ele>
        <time>2023-11-13T13:11:37Z</time>
      </trkpt>
      <trkpt lat="46.95009" lon="-0.88139">
        <ele>120</ele>
        <time>2023-11-13T13:12:02Z</time>
      </trkpt>
      <trkpt lat="46.9504" lon="-0.88169">
        <ele>122</ele>
        <time>2023-11-13T13:12:52Z</time>
      </trkpt>
      <trkpt lat="46.95067" lon="-0.88205">
        <ele>123</ele>
        <time>2023-11-13T13:13:40Z</time>
      </trkpt>
      <trkpt lat="46.95089" lon="-0.8825">
        <ele>124</ele>
        <time>2023-11-13T13:14:31Z</time>
      </trkpt>
      <trkpt lat="46.95097" lon="-0.88274">
        <ele>123</ele>
        <time>2023-11-13T13:14:55Z</time>
      </trkpt>
      <trkpt lat="46.95121" lon="-0.88316">
        <ele>123</ele>
        <time>2023-11-13T13:15:45Z</time>
      </trkpt>
      <trkpt lat="46.95135" lon="-0.88334">
        <ele>122</ele>
        <time>2023-11-13T13:16:10Z</time>
      </trkpt>
      <trkpt lat="46.95182" lon="-0.88377">
        <ele>120</ele>
        <time>2023-11-13T13:17:24Z</time>
      </trkpt>
      <trkpt lat="46.95201" lon="-0.8838">
        <ele>120</ele>
        <time>2023-11-13T13:17:49Z</time>
      </trkpt>
      <trkpt lat="46.95219" lon="-0.88374">
        <ele>122</ele>
        <time>2023-11-13T13:18:14Z</time>
      </trkpt>
      <trkpt lat="46.95255" lon="-0.8839">
        <ele>120</ele>
        <time>2023-11-13T13:19:04Z</time>
      </trkpt>
      <trkpt lat="46.95274" lon="-0.88392">
        <ele>118</ele>
        <time>2023-11-13T13:19:30Z</time>
      </trkpt>
      <trkpt lat="46.95327" lon="-0.88372">
        <ele>116</ele>
        <time>2023-11-13T13:20:43Z</time>
      </trkpt>
      <trkpt lat="46.95345" lon="-0.88372">
        <ele>115</ele>
        <time>2023-11-13T13:21:07Z</time>
      </trkpt>
      <trkpt lat="46.95382" lon="-0.88382">
        <ele>113</ele>
        <time>2023-11-13T13:21:57Z</time>
      </trkpt>
      <trkpt lat="46.95418" lon="-0.88382">
        <ele>112</ele>
        <time>2023-11-13T13:22:45Z</time>
      </trkpt>
      <trkpt lat="46.95437" lon="-0.88379">
        <ele>112</ele>
        <time>2023-11-13T13:23:10Z</time>
      </trkpt>
      <trkpt lat="46.95454" lon="-0.88372">
        <ele>112</ele>
        <time>2023-11-13T13:23:34Z</time>
      </trkpt>
      <trkpt lat="46.95501" lon="-0.88329">
        <ele>115</ele>
        <time>2023-11-13T13:24:48Z</time>
      </trkpt>
      <trkpt lat="46.95518" lon="-0.88319">
        <ele>117</ele>
        <time>2023-11-13T13:25:12Z</time>
      </trkpt>
      <trkpt lat="46.95573" lon="-0.88325">
        <ele>118</ele>
        <time>2023-11-13T13:26:26Z</time>
      </trkpt>
      <trkpt lat="46.95601" lon="-0.88363">
        <ele>114</ele>
        <time>2023-11-13T13:27:17Z</time>
      </trkpt>
      <trkpt lat="46.95616" lon="-0.88377">
        <ele>113</ele>
        <time>2023-11-13T13:27:41Z</time>
      </trkpt>
      <trkpt lat="46.95634" lon="-0.88384">
        <ele>112</ele>
        <time>2023-11-13T13:28:05Z</time>
      </trkpt>
      <trkpt lat="46.95669" lon="-0.88403">
        <ele>111</ele>
        <time>2023-11-13T13:28:55Z</time>
      </trkpt>
      <trkpt lat="46.95697" lon="-0.88438">
        <ele>111</ele>
        <time>2023-11-13T13:29:44Z</time>
      </trkpt>
      <trkpt lat="46.95758" lon="-0.88498">
        <ele>110</ele>
        <time>2023-11-13T13:31:22Z</time>
      </trkpt>
      <trkpt lat="46.95784" lon="-0.88538">
        <ele>111</ele>
        <time>2023-11-13T13:32:13Z</time>
      </trkpt>
      <trkpt lat="46.95799" lon="-0.88555">
        <ele>111</ele>
        <time>2023-11-13T13:32:38Z</time>
      </trkpt>
      <trkpt lat="46.95829" lon="-0.88623">
        <ele>111</ele>
        <time>2023-11-13T13:33:52Z</time>
      </trkpt>
      <trkpt lat="46.95854" lon="-0.88662">
        <ele>111</ele>
        <time>2023-11-13T13:34:41Z</time>
      </trkpt>
      <trkpt lat="46.95865" lon="-0.88684">
        <ele>111</ele>
        <time>2023-11-13T13:35:05Z</time>
      </trkpt>
      <trkpt lat="46.95883" lon="-0.88679">
        <ele>112</ele>
        <time>2023-11-13T13:35:30Z</time>
      </trkpt>
    </trkseg>
  </trk>
  <trk>
    <name><![CDATA[StLaurentSèvre_MoulinGuy_11.4km-6542746]]></name>
    <extensions>
      <line xmlns="http://www.topografix.com/GPX/gpx_style/0/2">
        <color>FF0000</color>
        <width>4</width>
      </line>
    </extensions>
    <trkseg>
      <trkpt lat="46.95896" lon="-0.88966">
        <ele>116</ele>
        <time>2023-11-13T07:30:01Z</time>
      </trkpt>
      <trkpt lat="46.95665" lon="-0.89135">
        <ele>128</ele>
        <time>2023-11-13T07:35:46Z</time>
      </trkpt>
      <trkpt lat="46.95826" lon="-0.89298">
        <ele>127</ele>
        <time>2023-11-13T07:40:07Z</time>
      </trkpt>
      <trkpt lat="46.95776" lon="-0.89538">
        <ele>135</ele>
        <time>2023-11-13T07:43:55Z</time>
      </trkpt>
      <trkpt lat="46.95808" lon="-0.89594">
        <ele>135</ele>
        <time>2023-11-13T07:45:02Z</time>
      </trkpt>
      <trkpt lat="46.9584" lon="-0.898">
        <ele>134</ele>
        <time>2023-11-13T07:48:14Z</time>
      </trkpt>
      <trkpt lat="46.95647" lon="-0.89817">
        <ele>140</ele>
        <time>2023-11-13T07:52:32Z</time>
      </trkpt>
      <trkpt lat="46.95662" lon="-0.89933">
        <ele>138</ele>
        <time>2023-11-13T07:54:20Z</time>
      </trkpt>
      <trkpt lat="46.95829" lon="-0.89989">
        <ele>139</ele>
        <time>2023-11-13T07:58:08Z</time>
      </trkpt>
      <trkpt lat="46.95726" lon="-0.90203">
        <ele>150</ele>
        <time>2023-11-13T08:02:07Z</time>
      </trkpt>
      <trkpt lat="46.95767" lon="-0.90324">
        <ele>149</ele>
        <time>2023-11-13T08:04:10Z</time>
      </trkpt>
      <trkpt lat="46.95963" lon="-0.90276">
        <ele>150</ele>
        <time>2023-11-13T08:08:35Z</time>
      </trkpt>
      <trkpt lat="46.95996" lon="-0.90663">
        <ele>150</ele>
        <time>2023-11-13T08:14:30Z</time>
      </trkpt>
      <trkpt lat="46.96271" lon="-0.90907">
        <ele>157</ele>
        <time>2023-11-13T08:21:39Z</time>
      </trkpt>
      <trkpt lat="46.96206" lon="-0.91006">
        <ele>155</ele>
        <time>2023-11-13T08:23:44Z</time>
      </trkpt>
      <trkpt lat="46.96306" lon="-0.91272">
        <ele>144</ele>
        <time>2023-11-13T08:28:21Z</time>
      </trkpt>
      <trkpt lat="46.96309" lon="-0.91512">
        <ele>131</ele>
        <time>2023-11-13T08:32:00Z</time>
      </trkpt>
      <trkpt lat="46.96409" lon="-0.91645">
        <ele>122</ele>
        <time>2023-11-13T08:35:00Z</time>
      </trkpt>
      <trkpt lat="46.96511" lon="-0.91701">
        <ele>115</ele>
        <time>2023-11-13T08:37:25Z</time>
      </trkpt>
      <trkpt lat="46.96567" lon="-0.91791">
        <ele>105</ele>
        <time>2023-11-13T08:39:16Z</time>
      </trkpt>
      <trkpt lat="46.96505" lon="-0.91903">
        <ele>105</ele>
        <time>2023-11-13T08:41:27Z</time>
      </trkpt>
      <trkpt lat="46.96406" lon="-0.91972">
        <ele>118</ele>
        <time>2023-11-13T08:43:54Z</time>
      </trkpt>
      <trkpt lat="46.96423" lon="-0.92113">
        <ele>117</ele>
        <time>2023-11-13T08:46:04Z</time>
      </trkpt>
      <trkpt lat="46.9652" lon="-0.92148">
        <ele>101</ele>
        <time>2023-11-13T08:48:17Z</time>
      </trkpt>
      <trkpt lat="46.96552" lon="-0.92199">
        <ele>102</ele>
        <time>2023-11-13T08:49:21Z</time>
      </trkpt>
      <trkpt lat="46.96423" lon="-0.92379">
        <ele>113</ele>
        <time>2023-11-13T08:53:18Z</time>
      </trkpt>
      <trkpt lat="46.96482" lon="-0.92585">
        <ele>109</ele>
        <time>2023-11-13T08:56:42Z</time>
      </trkpt>
      <trkpt lat="46.96379" lon="-0.92628">
        <ele>118</ele>
        <time>2023-11-13T08:59:05Z</time>
      </trkpt>
      <trkpt lat="46.96414" lon="-0.9271">
        <ele>115</ele>
        <time>2023-11-13T09:00:33Z</time>
      </trkpt>
      <trkpt lat="46.96508" lon="-0.92705">
        <ele>110</ele>
        <time>2023-11-13T09:02:38Z</time>
      </trkpt>
      <trkpt lat="46.96593" lon="-0.928">
        <ele>104</ele>
        <time>2023-11-13T09:05:01Z</time>
      </trkpt>
      <trkpt lat="46.96549" lon="-0.92907">
        <ele>105</ele>
        <time>2023-11-13T09:06:55Z</time>
      </trkpt>
      <trkpt lat="46.96625" lon="-0.92907">
        <ele>100</ele>
        <time>2023-11-13T09:08:36Z</time>
      </trkpt>
      <trkpt lat="46.96725" lon="-0.93014">
        <ele>109</ele>
        <time>2023-11-13T09:11:21Z</time>
      </trkpt>
      <trkpt lat="46.96836" lon="-0.92808">
        <ele>116</ele>
        <time>2023-11-13T09:15:20Z</time>
      </trkpt>
      <trkpt lat="46.96983" lon="-0.92933">
        <ele>129</ele>
        <time>2023-11-13T09:19:07Z</time>
      </trkpt>
      <trkpt lat="46.97044" lon="-0.92946">
        <ele>130</ele>
        <time>2023-11-13T09:20:29Z</time>
      </trkpt>
      <trkpt lat="46.97202" lon="-0.92641">
        <ele>139</ele>
        <time>2023-11-13T09:26:18Z</time>
      </trkpt>
      <trkpt lat="46.97284" lon="-0.92602">
        <ele>139</ele>
        <time>2023-11-13T09:28:13Z</time>
      </trkpt>
      <trkpt lat="46.97325" lon="-0.9219">
        <ele>143</ele>
        <time>2023-11-13T09:34:32Z</time>
      </trkpt>
      <trkpt lat="46.96953" lon="-0.9195">
        <ele>133</ele>
        <time>2023-11-13T09:43:35Z</time>
      </trkpt>
      <trkpt lat="46.96669" lon="-0.92319">
        <ele>118</ele>
        <time>2023-11-13T09:52:01Z</time>
      </trkpt>
      <trkpt lat="46.96722" lon="-0.91946">
        <ele>109</ele>
        <time>2023-11-13T09:57:48Z</time>
      </trkpt>
      <trkpt lat="46.97029" lon="-0.91714">
        <ele>122</ele>
        <time>2023-11-13T10:05:29Z</time>
      </trkpt>
      <trkpt lat="46.9705" lon="-0.91598">
        <ele>124</ele>
        <time>2023-11-13T10:07:18Z</time>
      </trkpt>
      <trkpt lat="46.97053" lon="-0.90985">
        <ele>125</ele>
        <time>2023-11-13T10:16:37Z</time>
      </trkpt>
      <trkpt lat="46.97" lon="-0.90946">
        <ele>115</ele>
        <time>2023-11-13T10:17:56Z</time>
      </trkpt>
      <trkpt lat="46.9693" lon="-0.90718">
        <ele>111</ele>
        <time>2023-11-13T10:21:43Z</time>
      </trkpt>
      <trkpt lat="46.96822" lon="-0.90568">
        <ele>108</ele>
        <time>2023-11-13T10:25:02Z</time>
      </trkpt>
      <trkpt lat="46.96699" lon="-0.90311">
        <ele>114</ele>
        <time>2023-11-13T10:29:48Z</time>
      </trkpt>
      <trkpt lat="46.96584" lon="-0.90173">
        <ele>112</ele>
        <time>2023-11-13T10:33:06Z</time>
      </trkpt>
      <trkpt lat="46.96532" lon="-0.90218">
        <ele>110</ele>
        <time>2023-11-13T10:34:27Z</time>
      </trkpt>
      <trkpt lat="46.96376" lon="-0.90083">
        <ele>113</ele>
        <time>2023-11-13T10:38:29Z</time>
      </trkpt>
      <trkpt lat="46.96204" lon="-0.90064">
        <ele>132</ele>
        <time>2023-11-13T10:42:19Z</time>
      </trkpt>
      <trkpt lat="46.96064" lon="-0.90028">
        <ele>140</ele>
        <time>2023-11-13T10:45:28Z</time>
      </trkpt>
      <trkpt lat="46.95843" lon="-0.89987">
        <ele>140</ele>
        <time>2023-11-13T10:50:26Z</time>
      </trkpt>
      <trkpt lat="46.95649" lon="-0.8992">
        <ele>138</ele>
        <time>2023-11-13T10:54:52Z</time>
      </trkpt>
      <trkpt lat="46.95663" lon="-0.89794">
        <ele>139</ele>
        <time>2023-11-13T10:56:48Z</time>
      </trkpt>
      <trkpt lat="46.95823" lon="-0.89766">
        <ele>136</ele>
        <time>2023-11-13T11:00:23Z</time>
      </trkpt>
      <trkpt lat="46.95772" lon="-0.89508">
        <ele>136</ele>
        <time>2023-11-13T11:04:28Z</time>
      </trkpt>
      <trkpt lat="46.95839" lon="-0.89268">
        <ele>126</ele>
        <time>2023-11-13T11:08:24Z</time>
      </trkpt>
      <trkpt lat="46.95663" lon="-0.89111">
        <ele>128</ele>
        <time>2023-11-13T11:12:59Z</time>
      </trkpt>
      <trkpt lat="46.95889" lon="-0.88929">
        <ele>116</ele>
        <time>2023-11-13T11:18:43Z</time>
      </trkpt>
    </trkseg>
  </trk>
  <trk>
    <name><![CDATA[StLaurentSevre_boucleMallievre_16.3km-6636816]]></name>
    <extensions>
      <line xmlns="http://www.topografix.com/GPX/gpx_style/0/2">
        <color>00FFFF</color>
        <width>4</width>
      </line>
    </extensions>
    <trkseg>
      <trkpt lat="46.95845" lon="-0.88674">
        <ele>111</ele>
        <time>2023-11-13T07:29:52Z</time>
      </trkpt>
      <trkpt lat="46.95843" lon="-0.88646">
        <ele>111</ele>
        <time>2023-11-13T07:30:18Z</time>
      </trkpt>
      <trkpt lat="46.95819" lon="-0.88607">
        <ele>111</ele>
        <time>2023-11-13T07:31:05Z</time>
      </trkpt>
      <trkpt lat="46.95799" lon="-0.88559">
        <ele>111</ele>
        <time>2023-11-13T07:31:57Z</time>
      </trkpt>
      <trkpt lat="46.95783" lon="-0.88543">
        <ele>111</ele>
        <time>2023-11-13T07:32:23Z</time>
      </trkpt>
      <trkpt lat="46.95759" lon="-0.88502">
        <ele>110</ele>
        <time>2023-11-13T07:33:12Z</time>
      </trkpt>
      <trkpt lat="46.95695" lon="-0.88442">
        <ele>111</ele>
        <time>2023-11-13T07:34:53Z</time>
      </trkpt>
      <trkpt lat="46.95666" lon="-0.88408">
        <ele>111</ele>
        <time>2023-11-13T07:35:43Z</time>
      </trkpt>
      <trkpt lat="46.95631" lon="-0.88388">
        <ele>112</ele>
        <time>2023-11-13T07:36:33Z</time>
      </trkpt>
      <trkpt lat="46.95612" lon="-0.8838">
        <ele>113</ele>
        <time>2023-11-13T07:36:59Z</time>
      </trkpt>
      <trkpt lat="46.95596" lon="-0.88367">
        <ele>114</ele>
        <time>2023-11-13T07:37:24Z</time>
      </trkpt>
      <trkpt lat="46.95583" lon="-0.88348">
        <ele>116</ele>
        <time>2023-11-13T07:37:48Z</time>
      </trkpt>
      <trkpt lat="46.95568" lon="-0.88332">
        <ele>117</ele>
        <time>2023-11-13T07:38:13Z</time>
      </trkpt>
      <trkpt lat="46.95512" lon="-0.88329">
        <ele>115</ele>
        <time>2023-11-13T07:39:28Z</time>
      </trkpt>
      <trkpt lat="46.95495" lon="-0.88339">
        <ele>114</ele>
        <time>2023-11-13T07:39:52Z</time>
      </trkpt>
      <trkpt lat="46.95448" lon="-0.88382">
        <ele>112</ele>
        <time>2023-11-13T07:41:06Z</time>
      </trkpt>
      <trkpt lat="46.9543" lon="-0.8839">
        <ele>112</ele>
        <time>2023-11-13T07:41:31Z</time>
      </trkpt>
      <trkpt lat="46.95411" lon="-0.88395">
        <ele>112</ele>
        <time>2023-11-13T07:41:57Z</time>
      </trkpt>
      <trkpt lat="46.95392" lon="-0.88392">
        <ele>112</ele>
        <time>2023-11-13T07:42:22Z</time>
      </trkpt>
      <trkpt lat="46.95354" lon="-0.88393">
        <ele>113</ele>
        <time>2023-11-13T07:43:13Z</time>
      </trkpt>
      <trkpt lat="46.95337" lon="-0.88381">
        <ele>115</ele>
        <time>2023-11-13T07:43:38Z</time>
      </trkpt>
      <trkpt lat="46.95318" lon="-0.88383">
        <ele>116</ele>
        <time>2023-11-13T07:44:04Z</time>
      </trkpt>
      <trkpt lat="46.95301" lon="-0.88388">
        <ele>117</ele>
        <time>2023-11-13T07:44:27Z</time>
      </trkpt>
      <trkpt lat="46.95284" lon="-0.88398">
        <ele>117</ele>
        <time>2023-11-13T07:44:51Z</time>
      </trkpt>
      <trkpt lat="46.95265" lon="-0.88397">
        <ele>118</ele>
        <time>2023-11-13T07:45:17Z</time>
      </trkpt>
      <trkpt lat="46.95247" lon="-0.8839">
        <ele>120</ele>
        <time>2023-11-13T07:45:42Z</time>
      </trkpt>
      <trkpt lat="46.9521" lon="-0.88395">
        <ele>119</ele>
        <time>2023-11-13T07:46:31Z</time>
      </trkpt>
      <trkpt lat="46.95192" lon="-0.88392">
        <ele>119</ele>
        <time>2023-11-13T07:46:55Z</time>
      </trkpt>
      <trkpt lat="46.95175" lon="-0.88379">
        <ele>120</ele>
        <time>2023-11-13T07:47:21Z</time>
      </trkpt>
      <trkpt lat="46.95158" lon="-0.88372">
        <ele>120</ele>
        <time>2023-11-13T07:47:44Z</time>
      </trkpt>
      <trkpt lat="46.9514" lon="-0.8836">
        <ele>120</ele>
        <time>2023-11-13T07:48:11Z</time>
      </trkpt>
      <trkpt lat="46.95124" lon="-0.88346">
        <ele>121</ele>
        <time>2023-11-13T07:48:36Z</time>
      </trkpt>
      <trkpt lat="46.95109" lon="-0.88328">
        <ele>121</ele>
        <time>2023-11-13T07:49:02Z</time>
      </trkpt>
      <trkpt lat="46.95085" lon="-0.88284">
        <ele>121</ele>
        <time>2023-11-13T07:49:53Z</time>
      </trkpt>
      <trkpt lat="46.95072" lon="-0.88233">
        <ele>123</ele>
        <time>2023-11-13T07:50:43Z</time>
      </trkpt>
      <trkpt lat="46.95061" lon="-0.88211">
        <ele>122</ele>
        <time>2023-11-13T07:51:07Z</time>
      </trkpt>
      <trkpt lat="46.95034" lon="-0.88174">
        <ele>121</ele>
        <time>2023-11-13T07:51:57Z</time>
      </trkpt>
      <trkpt lat="46.95003" lon="-0.8814">
        <ele>119</ele>
        <time>2023-11-13T07:52:48Z</time>
      </trkpt>
      <trkpt lat="46.9499" lon="-0.88121">
        <ele>119</ele>
        <time>2023-11-13T07:53:13Z</time>
      </trkpt>
      <trkpt lat="46.94956" lon="-0.88054">
        <ele>120</ele>
        <time>2023-11-13T07:54:29Z</time>
      </trkpt>
      <trkpt lat="46.94943" lon="-0.88034">
        <ele>121</ele>
        <time>2023-11-13T07:54:54Z</time>
      </trkpt>
      <trkpt lat="46.94928" lon="-0.88019">
        <ele>121</ele>
        <time>2023-11-13T07:55:18Z</time>
      </trkpt>
      <trkpt lat="46.94915" lon="-0.87998">
        <ele>122</ele>
        <time>2023-11-13T07:55:44Z</time>
      </trkpt>
      <trkpt lat="46.9488" lon="-0.87904">
        <ele>127</ele>
        <time>2023-11-13T07:57:22Z</time>
      </trkpt>
      <trkpt lat="46.94883" lon="-0.87823">
        <ele>134</ele>
        <time>2023-11-13T07:58:36Z</time>
      </trkpt>
      <trkpt lat="46.94878" lon="-0.87797">
        <ele>134</ele>
        <time>2023-11-13T07:59:00Z</time>
      </trkpt>
      <trkpt lat="46.9487" lon="-0.87772">
        <ele>135</ele>
        <time>2023-11-13T07:59:25Z</time>
      </trkpt>
      <trkpt lat="46.94867" lon="-0.87746">
        <ele>135</ele>
        <time>2023-11-13T07:59:49Z</time>
      </trkpt>
      <trkpt lat="46.94872" lon="-0.87719">
        <ele>137</ele>
        <time>2023-11-13T08:00:15Z</time>
      </trkpt>
      <trkpt lat="46.94822" lon="-0.87757">
        <ele>134</ele>
        <time>2023-11-13T08:01:30Z</time>
      </trkpt>
      <trkpt lat="46.94787" lon="-0.87775">
        <ele>136</ele>
        <time>2023-11-13T08:02:20Z</time>
      </trkpt>
      <trkpt lat="46.94766" lon="-0.8782">
        <ele>133</ele>
        <time>2023-11-13T08:03:09Z</time>
      </trkpt>
      <trkpt lat="46.94758" lon="-0.87844">
        <ele>131</ele>
        <time>2023-11-13T08:03:33Z</time>
      </trkpt>
      <trkpt lat="46.94737" lon="-0.87948">
        <ele>122</ele>
        <time>2023-11-13T08:05:12Z</time>
      </trkpt>
      <trkpt lat="46.94737" lon="-0.87974">
        <ele>121</ele>
        <time>2023-11-13T08:05:36Z</time>
      </trkpt>
      <trkpt lat="46.94731" lon="-0.88001">
        <ele>120</ele>
        <time>2023-11-13T08:06:02Z</time>
      </trkpt>
      <trkpt lat="46.94717" lon="-0.8802">
        <ele>121</ele>
        <time>2023-11-13T08:06:27Z</time>
      </trkpt>
      <trkpt lat="46.947" lon="-0.8803">
        <ele>121</ele>
        <time>2023-11-13T08:06:52Z</time>
      </trkpt>
      <trkpt lat="46.94682" lon="-0.88037">
        <ele>122</ele>
        <time>2023-11-13T08:07:17Z</time>
      </trkpt>
      <trkpt lat="46.94648" lon="-0.88017">
        <ele>126</ele>
        <time>2023-11-13T08:08:06Z</time>
      </trkpt>
      <trkpt lat="46.94611" lon="-0.88006">
        <ele>132</ele>
        <time>2023-11-13T08:08:56Z</time>
      </trkpt>
      <trkpt lat="46.94594" lon="-0.88015">
        <ele>133</ele>
        <time>2023-11-13T08:09:20Z</time>
      </trkpt>
      <trkpt lat="46.94574" lon="-0.88009">
        <ele>136</ele>
        <time>2023-11-13T08:09:47Z</time>
      </trkpt>
      <trkpt lat="46.94563" lon="-0.87988">
        <ele>140</ele>
        <time>2023-11-13T08:10:11Z</time>
      </trkpt>
      <trkpt lat="46.94553" lon="-0.87936">
        <ele>145</ele>
        <time>2023-11-13T08:11:01Z</time>
      </trkpt>
      <trkpt lat="46.94522" lon="-0.87908">
        <ele>149</ele>
        <time>2023-11-13T08:11:49Z</time>
      </trkpt>
      <trkpt lat="46.94517" lon="-0.87882">
        <ele>151</ele>
        <time>2023-11-13T08:12:14Z</time>
      </trkpt>
      <trkpt lat="46.94523" lon="-0.87856">
        <ele>153</ele>
        <time>2023-11-13T08:12:39Z</time>
      </trkpt>
      <trkpt lat="46.94539" lon="-0.87842">
        <ele>153</ele>
        <time>2023-11-13T08:13:04Z</time>
      </trkpt>
      <trkpt lat="46.94549" lon="-0.8782">
        <ele>155</ele>
        <time>2023-11-13T08:13:28Z</time>
      </trkpt>
      <trkpt lat="46.94556" lon="-0.87795">
        <ele>156</ele>
        <time>2023-11-13T08:13:52Z</time>
      </trkpt>
      <trkpt lat="46.94571" lon="-0.87777">
        <ele>158</ele>
        <time>2023-11-13T08:14:18Z</time>
      </trkpt>
      <trkpt lat="46.94574" lon="-0.8775">
        <ele>160</ele>
        <time>2023-11-13T08:14:43Z</time>
      </trkpt>
      <trkpt lat="46.94585" lon="-0.87729">
        <ele>160</ele>
        <time>2023-11-13T08:15:07Z</time>
      </trkpt>
      <trkpt lat="46.94566" lon="-0.87683">
        <ele>160</ele>
        <time>2023-11-13T08:15:56Z</time>
      </trkpt>
      <trkpt lat="46.94562" lon="-0.87657">
        <ele>160</ele>
        <time>2023-11-13T08:16:21Z</time>
      </trkpt>
      <trkpt lat="46.94563" lon="-0.8763">
        <ele>160</ele>
        <time>2023-11-13T08:16:45Z</time>
      </trkpt>
      <trkpt lat="46.94607" lon="-0.87543">
        <ele>157</ele>
        <time>2023-11-13T08:18:24Z</time>
      </trkpt>
      <trkpt lat="46.94702" lon="-0.87377">
        <ele>160</ele>
        <time>2023-11-13T08:21:41Z</time>
      </trkpt>
      <trkpt lat="46.94711" lon="-0.87354">
        <ele>160</ele>
        <time>2023-11-13T08:22:05Z</time>
      </trkpt>
      <trkpt lat="46.94708" lon="-0.87328">
        <ele>160</ele>
        <time>2023-11-13T08:22:29Z</time>
      </trkpt>
      <trkpt lat="46.94691" lon="-0.87315">
        <ele>161</ele>
        <time>2023-11-13T08:22:55Z</time>
      </trkpt>
      <trkpt lat="46.94677" lon="-0.87298">
        <ele>161</ele>
        <time>2023-11-13T08:23:19Z</time>
      </trkpt>
      <trkpt lat="46.9462" lon="-0.87226">
        <ele>164</ele>
        <time>2023-11-13T08:25:00Z</time>
      </trkpt>
      <trkpt lat="46.94593" lon="-0.87188">
        <ele>166</ele>
        <time>2023-11-13T08:25:50Z</time>
      </trkpt>
      <trkpt lat="46.94558" lon="-0.87126">
        <ele>170</ele>
        <time>2023-11-13T08:27:03Z</time>
      </trkpt>
      <trkpt lat="46.94538" lon="-0.87081">
        <ele>172</ele>
        <time>2023-11-13T08:27:52Z</time>
      </trkpt>
      <trkpt lat="46.94486" lon="-0.87003">
        <ele>171</ele>
        <time>2023-11-13T08:29:31Z</time>
      </trkpt>
      <trkpt lat="46.94432" lon="-0.8693">
        <ele>168</ele>
        <time>2023-11-13T08:31:09Z</time>
      </trkpt>
      <trkpt lat="46.94393" lon="-0.86872">
        <ele>166</ele>
        <time>2023-11-13T08:32:23Z</time>
      </trkpt>
      <trkpt lat="46.94382" lon="-0.8685">
        <ele>166</ele>
        <time>2023-11-13T08:32:48Z</time>
      </trkpt>
      <trkpt lat="46.94355" lon="-0.86814">
        <ele>165</ele>
        <time>2023-11-13T08:33:37Z</time>
      </trkpt>
      <trkpt lat="46.94292" lon="-0.86754">
        <ele>163</ele>
        <time>2023-11-13T08:35:17Z</time>
      </trkpt>
      <trkpt lat="46.94248" lon="-0.86703">
        <ele>164</ele>
        <time>2023-11-13T08:36:32Z</time>
      </trkpt>
      <trkpt lat="46.94181" lon="-0.8661">
        <ele>161</ele>
        <time>2023-11-13T08:38:35Z</time>
      </trkpt>
      <trkpt lat="46.94136" lon="-0.86562">
        <ele>159</ele>
        <time>2023-11-13T08:39:50Z</time>
      </trkpt>
      <trkpt lat="46.94089" lon="-0.86519">
        <ele>156</ele>
        <time>2023-11-13T08:41:03Z</time>
      </trkpt>
      <trkpt lat="46.94039" lon="-0.86484">
        <ele>153</ele>
        <time>2023-11-13T08:42:17Z</time>
      </trkpt>
      <trkpt lat="46.94021" lon="-0.86476">
        <ele>152</ele>
        <time>2023-11-13T08:42:43Z</time>
      </trkpt>
      <trkpt lat="46.9399" lon="-0.86445">
        <ele>151</ele>
        <time>2023-11-13T08:43:33Z</time>
      </trkpt>
      <trkpt lat="46.93965" lon="-0.86405">
        <ele>152</ele>
        <time>2023-11-13T08:44:22Z</time>
      </trkpt>
      <trkpt lat="46.93948" lon="-0.86329">
        <ele>154</ele>
        <time>2023-11-13T08:45:35Z</time>
      </trkpt>
      <trkpt lat="46.9393" lon="-0.8628">
        <ele>155</ele>
        <time>2023-11-13T08:46:26Z</time>
      </trkpt>
      <trkpt lat="46.93919" lon="-0.86258">
        <ele>155</ele>
        <time>2023-11-13T08:46:50Z</time>
      </trkpt>
      <trkpt lat="46.93894" lon="-0.8622">
        <ele>155</ele>
        <time>2023-11-13T08:47:39Z</time>
      </trkpt>
      <trkpt lat="46.93879" lon="-0.86203">
        <ele>155</ele>
        <time>2023-11-13T08:48:04Z</time>
      </trkpt>
      <trkpt lat="46.93816" lon="-0.86144">
        <ele>156</ele>
        <time>2023-11-13T08:49:44Z</time>
      </trkpt>
      <trkpt lat="46.93773" lon="-0.86097">
        <ele>159</ele>
        <time>2023-11-13T08:50:55Z</time>
      </trkpt>
      <trkpt lat="46.9368" lon="-0.86004">
        <ele>165</ele>
        <time>2023-11-13T08:53:26Z</time>
      </trkpt>
      <trkpt lat="46.93664" lon="-0.85991">
        <ele>166</ele>
        <time>2023-11-13T08:53:50Z</time>
      </trkpt>
      <trkpt lat="46.93612" lon="-0.8596">
        <ele>166</ele>
        <time>2023-11-13T08:55:05Z</time>
      </trkpt>
      <trkpt lat="46.93606" lon="-0.85986">
        <ele>166</ele>
        <time>2023-11-13T08:55:30Z</time>
      </trkpt>
      <trkpt lat="46.93606" lon="-0.86012">
        <ele>166</ele>
        <time>2023-11-13T08:55:54Z</time>
      </trkpt>
      <trkpt lat="46.93592" lon="-0.86031">
        <ele>166</ele>
        <time>2023-11-13T08:56:19Z</time>
      </trkpt>
      <trkpt lat="46.93539" lon="-0.86059">
        <ele>164</ele>
        <time>2023-11-13T08:57:34Z</time>
      </trkpt>
      <trkpt lat="46.93522" lon="-0.86071">
        <ele>164</ele>
        <time>2023-11-13T08:57:59Z</time>
      </trkpt>
      <trkpt lat="46.93473" lon="-0.86111">
        <ele>163</ele>
        <time>2023-11-13T08:59:14Z</time>
      </trkpt>
      <trkpt lat="46.93444" lon="-0.86144">
        <ele>163</ele>
        <time>2023-11-13T09:00:03Z</time>
      </trkpt>
      <trkpt lat="46.93412" lon="-0.8621">
        <ele>162</ele>
        <time>2023-11-13T09:01:17Z</time>
      </trkpt>
      <trkpt lat="46.93385" lon="-0.86281">
        <ele>159</ele>
        <time>2023-11-13T09:02:31Z</time>
      </trkpt>
      <trkpt lat="46.93374" lon="-0.86303">
        <ele>158</ele>
        <time>2023-11-13T09:02:56Z</time>
      </trkpt>
      <trkpt lat="46.93367" lon="-0.86329">
        <ele>158</ele>
        <time>2023-11-13T09:03:21Z</time>
      </trkpt>
      <trkpt lat="46.93358" lon="-0.86437">
        <ele>157</ele>
        <time>2023-11-13T09:05:01Z</time>
      </trkpt>
      <trkpt lat="46.93365" lon="-0.86462">
        <ele>156</ele>
        <time>2023-11-13T09:05:25Z</time>
      </trkpt>
      <trkpt lat="46.93388" lon="-0.86504">
        <ele>153</ele>
        <time>2023-11-13T09:06:14Z</time>
      </trkpt>
      <trkpt lat="46.93416" lon="-0.86541">
        <ele>150</ele>
        <time>2023-11-13T09:07:05Z</time>
      </trkpt>
      <trkpt lat="46.93431" lon="-0.86554">
        <ele>149</ele>
        <time>2023-11-13T09:07:28Z</time>
      </trkpt>
      <trkpt lat="46.9345" lon="-0.86563">
        <ele>148</ele>
        <time>2023-11-13T09:07:54Z</time>
      </trkpt>
      <trkpt lat="46.93458" lon="-0.86587">
        <ele>146</ele>
        <time>2023-11-13T09:08:19Z</time>
      </trkpt>
      <trkpt lat="46.93443" lon="-0.86664">
        <ele>138</ele>
        <time>2023-11-13T09:09:32Z</time>
      </trkpt>
      <trkpt lat="46.93434" lon="-0.86688">
        <ele>136</ele>
        <time>2023-11-13T09:09:57Z</time>
      </trkpt>
      <trkpt lat="46.9343" lon="-0.86713">
        <ele>134</ele>
        <time>2023-11-13T09:10:20Z</time>
      </trkpt>
      <trkpt lat="46.93411" lon="-0.86789">
        <ele>127</ele>
        <time>2023-11-13T09:11:34Z</time>
      </trkpt>
      <trkpt lat="46.93402" lon="-0.86813">
        <ele>125</ele>
        <time>2023-11-13T09:11:59Z</time>
      </trkpt>
      <trkpt lat="46.93389" lon="-0.86832">
        <ele>124</ele>
        <time>2023-11-13T09:12:23Z</time>
      </trkpt>
      <trkpt lat="46.93373" lon="-0.86848">
        <ele>125</ele>
        <time>2023-11-13T09:12:49Z</time>
      </trkpt>
      <trkpt lat="46.93357" lon="-0.8686">
        <ele>125</ele>
        <time>2023-11-13T09:13:13Z</time>
      </trkpt>
      <trkpt lat="46.93301" lon="-0.86862">
        <ele>126</ele>
        <time>2023-11-13T09:14:28Z</time>
      </trkpt>
      <trkpt lat="46.93283" lon="-0.86856">
        <ele>126</ele>
        <time>2023-11-13T09:14:53Z</time>
      </trkpt>
      <trkpt lat="46.93264" lon="-0.86856">
        <ele>127</ele>
        <time>2023-11-13T09:15:18Z</time>
      </trkpt>
      <trkpt lat="46.93246" lon="-0.86862">
        <ele>126</ele>
        <time>2023-11-13T09:15:43Z</time>
      </trkpt>
      <trkpt lat="46.93209" lon="-0.86855">
        <ele>126</ele>
        <time>2023-11-13T09:16:32Z</time>
      </trkpt>
      <trkpt lat="46.93193" lon="-0.86841">
        <ele>126</ele>
        <time>2023-11-13T09:16:57Z</time>
      </trkpt>
      <trkpt lat="46.93174" lon="-0.86835">
        <ele>126</ele>
        <time>2023-11-13T09:17:23Z</time>
      </trkpt>
      <trkpt lat="46.93156" lon="-0.86839">
        <ele>125</ele>
        <time>2023-11-13T09:17:47Z</time>
      </trkpt>
      <trkpt lat="46.93139" lon="-0.8683">
        <ele>125</ele>
        <time>2023-11-13T09:18:12Z</time>
      </trkpt>
      <trkpt lat="46.93124" lon="-0.86815">
        <ele>125</ele>
        <time>2023-11-13T09:18:36Z</time>
      </trkpt>
      <trkpt lat="46.93133" lon="-0.86791">
        <ele>127</ele>
        <time>2023-11-13T09:19:01Z</time>
      </trkpt>
      <trkpt lat="46.93124" lon="-0.86767">
        <ele>127</ele>
        <time>2023-11-13T09:19:26Z</time>
      </trkpt>
      <trkpt lat="46.93104" lon="-0.86692">
        <ele>126</ele>
        <time>2023-11-13T09:20:39Z</time>
      </trkpt>
      <trkpt lat="46.93072" lon="-0.86595">
        <ele>124</ele>
        <time>2023-11-13T09:22:17Z</time>
      </trkpt>
      <trkpt lat="46.93059" lon="-0.86575">
        <ele>124</ele>
        <time>2023-11-13T09:22:42Z</time>
      </trkpt>
      <trkpt lat="46.93023" lon="-0.86591">
        <ele>122</ele>
        <time>2023-11-13T09:23:33Z</time>
      </trkpt>
      <trkpt lat="46.92988" lon="-0.8661">
        <ele>121</ele>
        <time>2023-11-13T09:24:22Z</time>
      </trkpt>
      <trkpt lat="46.9297" lon="-0.8661">
        <ele>121</ele>
        <time>2023-11-13T09:24:46Z</time>
      </trkpt>
      <trkpt lat="46.92892" lon="-0.86535">
        <ele>126</ele>
        <time>2023-11-13T09:26:51Z</time>
      </trkpt>
      <trkpt lat="46.92875" lon="-0.86527">
        <ele>128</ele>
        <time>2023-11-13T09:27:15Z</time>
      </trkpt>
      <trkpt lat="46.92828" lon="-0.86569">
        <ele>133</ele>
        <time>2023-11-13T09:28:28Z</time>
      </trkpt>
      <trkpt lat="46.92818" lon="-0.86591">
        <ele>135</ele>
        <time>2023-11-13T09:28:52Z</time>
      </trkpt>
      <trkpt lat="46.92801" lon="-0.86601">
        <ele>139</ele>
        <time>2023-11-13T09:29:17Z</time>
      </trkpt>
      <trkpt lat="46.92767" lon="-0.86581">
        <ele>150</ele>
        <time>2023-11-13T09:30:06Z</time>
      </trkpt>
      <trkpt lat="46.92749" lon="-0.86579">
        <ele>155</ele>
        <time>2023-11-13T09:30:30Z</time>
      </trkpt>
      <trkpt lat="46.92732" lon="-0.86567">
        <ele>158</ele>
        <time>2023-11-13T09:30:55Z</time>
      </trkpt>
      <trkpt lat="46.92714" lon="-0.86565">
        <ele>160</ele>
        <time>2023-11-13T09:31:19Z</time>
      </trkpt>
      <trkpt lat="46.92697" lon="-0.86572">
        <ele>162</ele>
        <time>2023-11-13T09:31:43Z</time>
      </trkpt>
      <trkpt lat="46.92665" lon="-0.86602">
        <ele>164</ele>
        <time>2023-11-13T09:32:33Z</time>
      </trkpt>
      <trkpt lat="46.92647" lon="-0.86611">
        <ele>165</ele>
        <time>2023-11-13T09:32:59Z</time>
      </trkpt>
      <trkpt lat="46.92572" lon="-0.86626">
        <ele>170</ele>
        <time>2023-11-13T09:34:40Z</time>
      </trkpt>
      <trkpt lat="46.92555" lon="-0.86634">
        <ele>172</ele>
        <time>2023-11-13T09:35:04Z</time>
      </trkpt>
      <trkpt lat="46.92536" lon="-0.86638">
        <ele>173</ele>
        <time>2023-11-13T09:35:29Z</time>
      </trkpt>
      <trkpt lat="46.92463" lon="-0.86635">
        <ele>179</ele>
        <time>2023-11-13T09:37:07Z</time>
      </trkpt>
      <trkpt lat="46.92445" lon="-0.86632">
        <ele>180</ele>
        <time>2023-11-13T09:37:31Z</time>
      </trkpt>
      <trkpt lat="46.92427" lon="-0.86638">
        <ele>181</ele>
        <time>2023-11-13T09:37:55Z</time>
      </trkpt>
      <trkpt lat="46.92409" lon="-0.86634">
        <ele>183</ele>
        <time>2023-11-13T09:38:20Z</time>
      </trkpt>
      <trkpt lat="46.92374" lon="-0.86614">
        <ele>185</ele>
        <time>2023-11-13T09:39:10Z</time>
      </trkpt>
      <trkpt lat="46.92364" lon="-0.86591">
        <ele>186</ele>
        <time>2023-11-13T09:39:35Z</time>
      </trkpt>
      <trkpt lat="46.92346" lon="-0.8659">
        <ele>186</ele>
        <time>2023-11-13T09:39:59Z</time>
      </trkpt>
      <trkpt lat="46.92328" lon="-0.86601">
        <ele>187</ele>
        <time>2023-11-13T09:40:25Z</time>
      </trkpt>
      <trkpt lat="46.92311" lon="-0.86608">
        <ele>187</ele>
        <time>2023-11-13T09:40:48Z</time>
      </trkpt>
      <trkpt lat="46.92275" lon="-0.86617">
        <ele>186</ele>
        <time>2023-11-13T09:41:37Z</time>
      </trkpt>
      <trkpt lat="46.92257" lon="-0.86624">
        <ele>186</ele>
        <time>2023-11-13T09:42:02Z</time>
      </trkpt>
      <trkpt lat="46.92206" lon="-0.86655">
        <ele>184</ele>
        <time>2023-11-13T09:43:16Z</time>
      </trkpt>
      <trkpt lat="46.92188" lon="-0.86662">
        <ele>184</ele>
        <time>2023-11-13T09:43:40Z</time>
      </trkpt>
      <trkpt lat="46.92151" lon="-0.86667">
        <ele>182</ele>
        <time>2023-11-13T09:44:30Z</time>
      </trkpt>
      <trkpt lat="46.92076" lon="-0.86664">
        <ele>179</ele>
        <time>2023-11-13T09:46:10Z</time>
      </trkpt>
      <trkpt lat="46.92021" lon="-0.86652">
        <ele>176</ele>
        <time>2023-11-13T09:47:24Z</time>
      </trkpt>
      <trkpt lat="46.91947" lon="-0.86651">
        <ele>172</ele>
        <time>2023-11-13T09:49:03Z</time>
      </trkpt>
      <trkpt lat="46.9193" lon="-0.86642">
        <ele>171</ele>
        <time>2023-11-13T09:49:27Z</time>
      </trkpt>
      <trkpt lat="46.91912" lon="-0.86641">
        <ele>170</ele>
        <time>2023-11-13T09:49:51Z</time>
      </trkpt>
      <trkpt lat="46.91894" lon="-0.86648">
        <ele>169</ele>
        <time>2023-11-13T09:50:16Z</time>
      </trkpt>
      <trkpt lat="46.91875" lon="-0.86645">
        <ele>167</ele>
        <time>2023-11-13T09:50:42Z</time>
      </trkpt>
      <trkpt lat="46.91838" lon="-0.86644">
        <ele>164</ele>
        <time>2023-11-13T09:51:31Z</time>
      </trkpt>
      <trkpt lat="46.91801" lon="-0.86636">
        <ele>162</ele>
        <time>2023-11-13T09:52:21Z</time>
      </trkpt>
      <trkpt lat="46.91765" lon="-0.86624">
        <ele>160</ele>
        <time>2023-11-13T09:53:10Z</time>
      </trkpt>
      <trkpt lat="46.91731" lon="-0.86602">
        <ele>158</ele>
        <time>2023-11-13T09:54:00Z</time>
      </trkpt>
      <trkpt lat="46.91685" lon="-0.86562">
        <ele>156</ele>
        <time>2023-11-13T09:55:11Z</time>
      </trkpt>
      <trkpt lat="46.91649" lon="-0.86541">
        <ele>153</ele>
        <time>2023-11-13T09:56:03Z</time>
      </trkpt>
      <trkpt lat="46.91635" lon="-0.86522">
        <ele>153</ele>
        <time>2023-11-13T09:56:28Z</time>
      </trkpt>
      <trkpt lat="46.9162" lon="-0.86507">
        <ele>152</ele>
        <time>2023-11-13T09:56:53Z</time>
      </trkpt>
      <trkpt lat="46.91602" lon="-0.86514">
        <ele>150</ele>
        <time>2023-11-13T09:57:17Z</time>
      </trkpt>
      <trkpt lat="46.91568" lon="-0.86536">
        <ele>149</ele>
        <time>2023-11-13T09:58:07Z</time>
      </trkpt>
      <trkpt lat="46.9155" lon="-0.86543">
        <ele>148</ele>
        <time>2023-11-13T09:58:32Z</time>
      </trkpt>
      <trkpt lat="46.9152" lon="-0.86572">
        <ele>147</ele>
        <time>2023-11-13T09:59:20Z</time>
      </trkpt>
      <trkpt lat="46.91407" lon="-0.86664">
        <ele>142</ele>
        <time>2023-11-13T10:02:12Z</time>
      </trkpt>
      <trkpt lat="46.91325" lon="-0.86723">
        <ele>139</ele>
        <time>2023-11-13T10:04:14Z</time>
      </trkpt>
      <trkpt lat="46.91319" lon="-0.86749">
        <ele>138</ele>
        <time>2023-11-13T10:04:39Z</time>
      </trkpt>
      <trkpt lat="46.91325" lon="-0.86774">
        <ele>137</ele>
        <time>2023-11-13T10:05:04Z</time>
      </trkpt>
      <trkpt lat="46.91328" lon="-0.868">
        <ele>135</ele>
        <time>2023-11-13T10:05:28Z</time>
      </trkpt>
      <trkpt lat="46.91335" lon="-0.86825">
        <ele>134</ele>
        <time>2023-11-13T10:05:52Z</time>
      </trkpt>
      <trkpt lat="46.91338" lon="-0.86851">
        <ele>132</ele>
        <time>2023-11-13T10:06:16Z</time>
      </trkpt>
      <trkpt lat="46.91328" lon="-0.86875">
        <ele>130</ele>
        <time>2023-11-13T10:06:42Z</time>
      </trkpt>
      <trkpt lat="46.9131" lon="-0.86878">
        <ele>130</ele>
        <time>2023-11-13T10:07:06Z</time>
      </trkpt>
      <trkpt lat="46.91274" lon="-0.86878">
        <ele>129</ele>
        <time>2023-11-13T10:07:54Z</time>
      </trkpt>
      <trkpt lat="46.91255" lon="-0.86875">
        <ele>129</ele>
        <time>2023-11-13T10:08:20Z</time>
      </trkpt>
      <trkpt lat="46.91239" lon="-0.86865">
        <ele>129</ele>
        <time>2023-11-13T10:08:43Z</time>
      </trkpt>
      <trkpt lat="46.91225" lon="-0.86847">
        <ele>130</ele>
        <time>2023-11-13T10:09:08Z</time>
      </trkpt>
      <trkpt lat="46.91204" lon="-0.86803">
        <ele>131</ele>
        <time>2023-11-13T10:09:57Z</time>
      </trkpt>
      <trkpt lat="46.91187" lon="-0.86755">
        <ele>131</ele>
        <time>2023-11-13T10:10:46Z</time>
      </trkpt>
      <trkpt lat="46.91172" lon="-0.86741">
        <ele>131</ele>
        <time>2023-11-13T10:11:10Z</time>
      </trkpt>
      <trkpt lat="46.91153" lon="-0.86737">
        <ele>130</ele>
        <time>2023-11-13T10:11:35Z</time>
      </trkpt>
      <trkpt lat="46.91137" lon="-0.86724">
        <ele>130</ele>
        <time>2023-11-13T10:12:00Z</time>
      </trkpt>
      <trkpt lat="46.9112" lon="-0.86716">
        <ele>129</ele>
        <time>2023-11-13T10:12:24Z</time>
      </trkpt>
      <trkpt lat="46.91115" lon="-0.8669">
        <ele>130</ele>
        <time>2023-11-13T10:12:48Z</time>
      </trkpt>
      <trkpt lat="46.91123" lon="-0.86666">
        <ele>131</ele>
        <time>2023-11-13T10:13:12Z</time>
      </trkpt>
      <trkpt lat="46.91112" lon="-0.86587">
        <ele>131</ele>
        <time>2023-11-13T10:14:26Z</time>
      </trkpt>
      <trkpt lat="46.91104" lon="-0.86563">
        <ele>132</ele>
        <time>2023-11-13T10:14:50Z</time>
      </trkpt>
      <trkpt lat="46.91118" lon="-0.86513">
        <ele>138</ele>
        <time>2023-11-13T10:15:40Z</time>
      </trkpt>
      <trkpt lat="46.911" lon="-0.86465">
        <ele>142</ele>
        <time>2023-11-13T10:16:30Z</time>
      </trkpt>
      <trkpt lat="46.91096" lon="-0.86386">
        <ele>149</ele>
        <time>2023-11-13T10:17:42Z</time>
      </trkpt>
      <trkpt lat="46.91078" lon="-0.86391">
        <ele>149</ele>
        <time>2023-11-13T10:18:06Z</time>
      </trkpt>
      <trkpt lat="46.91079" lon="-0.86418">
        <ele>148</ele>
        <time>2023-11-13T10:18:31Z</time>
      </trkpt>
      <trkpt lat="46.91089" lon="-0.86395">
        <ele>149</ele>
        <time>2023-11-13T10:18:56Z</time>
      </trkpt>
      <trkpt lat="46.91106" lon="-0.86385">
        <ele>149</ele>
        <time>2023-11-13T10:19:20Z</time>
      </trkpt>
      <trkpt lat="46.9112" lon="-0.86403">
        <ele>148</ele>
        <time>2023-11-13T10:19:45Z</time>
      </trkpt>
      <trkpt lat="46.91156" lon="-0.86392">
        <ele>149</ele>
        <time>2023-11-13T10:20:34Z</time>
      </trkpt>
      <trkpt lat="46.91173" lon="-0.86384">
        <ele>149</ele>
        <time>2023-11-13T10:20:58Z</time>
      </trkpt>
      <trkpt lat="46.91191" lon="-0.86385">
        <ele>148</ele>
        <time>2023-11-13T10:21:22Z</time>
      </trkpt>
      <trkpt lat="46.91202" lon="-0.86406">
        <ele>147</ele>
        <time>2023-11-13T10:21:46Z</time>
      </trkpt>
      <trkpt lat="46.91206" lon="-0.86459">
        <ele>142</ele>
        <time>2023-11-13T10:22:35Z</time>
      </trkpt>
      <trkpt lat="46.91222" lon="-0.86447">
        <ele>143</ele>
        <time>2023-11-13T10:22:59Z</time>
      </trkpt>
      <trkpt lat="46.91205" lon="-0.86457">
        <ele>143</ele>
        <time>2023-11-13T10:23:23Z</time>
      </trkpt>
      <trkpt lat="46.91201" lon="-0.86483">
        <ele>140</ele>
        <time>2023-11-13T10:23:47Z</time>
      </trkpt>
      <trkpt lat="46.91194" lon="-0.86507">
        <ele>139</ele>
        <time>2023-11-13T10:24:11Z</time>
      </trkpt>
      <trkpt lat="46.9118" lon="-0.86526">
        <ele>139</ele>
        <time>2023-11-13T10:24:37Z</time>
      </trkpt>
      <trkpt lat="46.91197" lon="-0.86534">
        <ele>138</ele>
        <time>2023-11-13T10:25:01Z</time>
      </trkpt>
      <trkpt lat="46.91206" lon="-0.86557">
        <ele>137</ele>
        <time>2023-11-13T10:25:25Z</time>
      </trkpt>
      <trkpt lat="46.91203" lon="-0.86584">
        <ele>136</ele>
        <time>2023-11-13T10:25:50Z</time>
      </trkpt>
      <trkpt lat="46.91197" lon="-0.8661">
        <ele>136</ele>
        <time>2023-11-13T10:26:15Z</time>
      </trkpt>
      <trkpt lat="46.91191" lon="-0.86665">
        <ele>135</ele>
        <time>2023-11-13T10:27:05Z</time>
      </trkpt>
      <trkpt lat="46.91179" lon="-0.86717">
        <ele>132</ele>
        <time>2023-11-13T10:27:55Z</time>
      </trkpt>
      <trkpt lat="46.91186" lon="-0.86742">
        <ele>132</ele>
        <time>2023-11-13T10:28:20Z</time>
      </trkpt>
      <trkpt lat="46.91178" lon="-0.86767">
        <ele>130</ele>
        <time>2023-11-13T10:28:45Z</time>
      </trkpt>
      <trkpt lat="46.91183" lon="-0.86742">
        <ele>131</ele>
        <time>2023-11-13T10:29:09Z</time>
      </trkpt>
      <trkpt lat="46.91194" lon="-0.86763">
        <ele>131</ele>
        <time>2023-11-13T10:29:33Z</time>
      </trkpt>
      <trkpt lat="46.91211" lon="-0.86812">
        <ele>131</ele>
        <time>2023-11-13T10:30:23Z</time>
      </trkpt>
      <trkpt lat="46.91237" lon="-0.8685">
        <ele>130</ele>
        <time>2023-11-13T10:31:12Z</time>
      </trkpt>
      <trkpt lat="46.91252" lon="-0.86865">
        <ele>130</ele>
        <time>2023-11-13T10:31:36Z</time>
      </trkpt>
      <trkpt lat="46.9127" lon="-0.86871">
        <ele>130</ele>
        <time>2023-11-13T10:32:01Z</time>
      </trkpt>
      <trkpt lat="46.91307" lon="-0.86874">
        <ele>130</ele>
        <time>2023-11-13T10:32:51Z</time>
      </trkpt>
      <trkpt lat="46.91324" lon="-0.86886">
        <ele>129</ele>
        <time>2023-11-13T10:33:16Z</time>
      </trkpt>
      <trkpt lat="46.91338" lon="-0.86903">
        <ele>128</ele>
        <time>2023-11-13T10:33:40Z</time>
      </trkpt>
      <trkpt lat="46.91338" lon="-0.86931">
        <ele>127</ele>
        <time>2023-11-13T10:34:06Z</time>
      </trkpt>
      <trkpt lat="46.91348" lon="-0.86983">
        <ele>126</ele>
        <time>2023-11-13T10:34:55Z</time>
      </trkpt>
      <trkpt lat="46.91361" lon="-0.87002">
        <ele>126</ele>
        <time>2023-11-13T10:35:19Z</time>
      </trkpt>
      <trkpt lat="46.9141" lon="-0.87039">
        <ele>126</ele>
        <time>2023-11-13T10:36:33Z</time>
      </trkpt>
      <trkpt lat="46.91444" lon="-0.87059">
        <ele>126</ele>
        <time>2023-11-13T10:37:22Z</time>
      </trkpt>
      <trkpt lat="46.91482" lon="-0.87118">
        <ele>125</ele>
        <time>2023-11-13T10:38:36Z</time>
      </trkpt>
      <trkpt lat="46.91493" lon="-0.87141">
        <ele>125</ele>
        <time>2023-11-13T10:39:01Z</time>
      </trkpt>
      <trkpt lat="46.91513" lon="-0.87215">
        <ele>124</ele>
        <time>2023-11-13T10:40:14Z</time>
      </trkpt>
      <trkpt lat="46.91547" lon="-0.87277">
        <ele>124</ele>
        <time>2023-11-13T10:41:26Z</time>
      </trkpt>
      <trkpt lat="46.91604" lon="-0.87346">
        <ele>125</ele>
        <time>2023-11-13T10:43:05Z</time>
      </trkpt>
      <trkpt lat="46.9162" lon="-0.87357">
        <ele>125</ele>
        <time>2023-11-13T10:43:29Z</time>
      </trkpt>
      <trkpt lat="46.91628" lon="-0.87381">
        <ele>126</ele>
        <time>2023-11-13T10:43:53Z</time>
      </trkpt>
      <trkpt lat="46.91641" lon="-0.87401">
        <ele>126</ele>
        <time>2023-11-13T10:44:18Z</time>
      </trkpt>
      <trkpt lat="46.91695" lon="-0.87425">
        <ele>125</ele>
        <time>2023-11-13T10:45:33Z</time>
      </trkpt>
      <trkpt lat="46.9173" lon="-0.87447">
        <ele>126</ele>
        <time>2023-11-13T10:46:24Z</time>
      </trkpt>
      <trkpt lat="46.91748" lon="-0.87444">
        <ele>125</ele>
        <time>2023-11-13T10:46:48Z</time>
      </trkpt>
      <trkpt lat="46.91767" lon="-0.87445">
        <ele>126</ele>
        <time>2023-11-13T10:47:14Z</time>
      </trkpt>
      <trkpt lat="46.91804" lon="-0.87451">
        <ele>126</ele>
        <time>2023-11-13T10:48:03Z</time>
      </trkpt>
      <trkpt lat="46.91878" lon="-0.87443">
        <ele>129</ele>
        <time>2023-11-13T10:49:42Z</time>
      </trkpt>
      <trkpt lat="46.91897" lon="-0.87448">
        <ele>129</ele>
        <time>2023-11-13T10:50:08Z</time>
      </trkpt>
      <trkpt lat="46.91915" lon="-0.87449">
        <ele>129</ele>
        <time>2023-11-13T10:50:32Z</time>
      </trkpt>
      <trkpt lat="46.91934" lon="-0.87446">
        <ele>130</ele>
        <time>2023-11-13T10:50:58Z</time>
      </trkpt>
      <trkpt lat="46.91951" lon="-0.87435">
        <ele>130</ele>
        <time>2023-11-13T10:51:23Z</time>
      </trkpt>
      <trkpt lat="46.91979" lon="-0.87395">
        <ele>131</ele>
        <time>2023-11-13T10:52:15Z</time>
      </trkpt>
      <trkpt lat="46.92009" lon="-0.87364">
        <ele>130</ele>
        <time>2023-11-13T10:53:04Z</time>
      </trkpt>
      <trkpt lat="46.92044" lon="-0.87346">
        <ele>129</ele>
        <time>2023-11-13T10:53:53Z</time>
      </trkpt>
      <trkpt lat="46.92061" lon="-0.87335">
        <ele>128</ele>
        <time>2023-11-13T10:54:18Z</time>
      </trkpt>
      <trkpt lat="46.92076" lon="-0.87321">
        <ele>129</ele>
        <time>2023-11-13T10:54:42Z</time>
      </trkpt>
      <trkpt lat="46.92093" lon="-0.87332">
        <ele>127</ele>
        <time>2023-11-13T10:55:07Z</time>
      </trkpt>
      <trkpt lat="46.92109" lon="-0.8732">
        <ele>128</ele>
        <time>2023-11-13T10:55:31Z</time>
      </trkpt>
      <trkpt lat="46.92127" lon="-0.87323">
        <ele>128</ele>
        <time>2023-11-13T10:55:55Z</time>
      </trkpt>
      <trkpt lat="46.92144" lon="-0.87334">
        <ele>126</ele>
        <time>2023-11-13T10:56:20Z</time>
      </trkpt>
      <trkpt lat="46.92149" lon="-0.87361">
        <ele>128</ele>
        <time>2023-11-13T10:56:45Z</time>
      </trkpt>
      <trkpt lat="46.92167" lon="-0.87361">
        <ele>127</ele>
        <time>2023-11-13T10:57:09Z</time>
      </trkpt>
      <trkpt lat="46.92205" lon="-0.87356">
        <ele>127</ele>
        <time>2023-11-13T10:58:00Z</time>
      </trkpt>
      <trkpt lat="46.92223" lon="-0.87357">
        <ele>127</ele>
        <time>2023-11-13T10:58:24Z</time>
      </trkpt>
      <trkpt lat="46.92239" lon="-0.87371">
        <ele>127</ele>
        <time>2023-11-13T10:58:49Z</time>
      </trkpt>
      <trkpt lat="46.92314" lon="-0.8739">
        <ele>131</ele>
        <time>2023-11-13T11:00:31Z</time>
      </trkpt>
      <trkpt lat="46.92374" lon="-0.87395">
        <ele>132</ele>
        <time>2023-11-13T11:01:51Z</time>
      </trkpt>
      <trkpt lat="46.92396" lon="-0.87386">
        <ele>131</ele>
        <time>2023-11-13T11:02:21Z</time>
      </trkpt>
      <trkpt lat="46.92447" lon="-0.8732">
        <ele>127</ele>
        <time>2023-11-13T11:03:52Z</time>
      </trkpt>
      <trkpt lat="46.92471" lon="-0.87268">
        <ele>129</ele>
        <time>2023-11-13T11:04:49Z</time>
      </trkpt>
      <trkpt lat="46.9251" lon="-0.87274">
        <ele>127</ele>
        <time>2023-11-13T11:05:42Z</time>
      </trkpt>
      <trkpt lat="46.92584" lon="-0.87313">
        <ele>125</ele>
        <time>2023-11-13T11:07:27Z</time>
      </trkpt>
      <trkpt lat="46.92625" lon="-0.87296">
        <ele>125</ele>
        <time>2023-11-13T11:08:23Z</time>
      </trkpt>
      <trkpt lat="46.9265" lon="-0.87255">
        <ele>123</ele>
        <time>2023-11-13T11:09:13Z</time>
      </trkpt>
      <trkpt lat="46.92677" lon="-0.87219">
        <ele>124</ele>
        <time>2023-11-13T11:10:02Z</time>
      </trkpt>
      <trkpt lat="46.92721" lon="-0.87232">
        <ele>122</ele>
        <time>2023-11-13T11:11:02Z</time>
      </trkpt>
      <trkpt lat="46.92755" lon="-0.87272">
        <ele>123</ele>
        <time>2023-11-13T11:12:00Z</time>
      </trkpt>
      <trkpt lat="46.92792" lon="-0.87302">
        <ele>125</ele>
        <time>2023-11-13T11:12:57Z</time>
      </trkpt>
      <trkpt lat="46.92837" lon="-0.87328">
        <ele>126</ele>
        <time>2023-11-13T11:14:01Z</time>
      </trkpt>
      <trkpt lat="46.92869" lon="-0.873">
        <ele>127</ele>
        <time>2023-11-13T11:14:51Z</time>
      </trkpt>
      <trkpt lat="46.92887" lon="-0.87242">
        <ele>127</ele>
        <time>2023-11-13T11:15:49Z</time>
      </trkpt>
      <trkpt lat="46.92918" lon="-0.8712">
        <ele>131</ele>
        <time>2023-11-13T11:17:48Z</time>
      </trkpt>
      <trkpt lat="46.92902" lon="-0.87038">
        <ele>129</ele>
        <time>2023-11-13T11:19:05Z</time>
      </trkpt>
      <trkpt lat="46.92877" lon="-0.86993">
        <ele>127</ele>
        <time>2023-11-13T11:19:58Z</time>
      </trkpt>
      <trkpt lat="46.92903" lon="-0.86938">
        <ele>128</ele>
        <time>2023-11-13T11:20:59Z</time>
      </trkpt>
      <trkpt lat="46.92941" lon="-0.86897">
        <ele>129</ele>
        <time>2023-11-13T11:22:02Z</time>
      </trkpt>
      <trkpt lat="46.9299" lon="-0.8692">
        <ele>134</ele>
        <time>2023-11-13T11:23:11Z</time>
      </trkpt>
      <trkpt lat="46.93025" lon="-0.86944">
        <ele>134</ele>
        <time>2023-11-13T11:24:02Z</time>
      </trkpt>
      <trkpt lat="46.93075" lon="-0.86938">
        <ele>130</ele>
        <time>2023-11-13T11:25:09Z</time>
      </trkpt>
      <trkpt lat="46.93117" lon="-0.86942">
        <ele>126</ele>
        <time>2023-11-13T11:26:06Z</time>
      </trkpt>
      <trkpt lat="46.93149" lon="-0.8695">
        <ele>124</ele>
        <time>2023-11-13T11:26:49Z</time>
      </trkpt>
      <trkpt lat="46.93201" lon="-0.86944">
        <ele>121</ele>
        <time>2023-11-13T11:27:59Z</time>
      </trkpt>
      <trkpt lat="46.93237" lon="-0.86948">
        <ele>121</ele>
        <time>2023-11-13T11:28:47Z</time>
      </trkpt>
      <trkpt lat="46.93275" lon="-0.86976">
        <ele>120</ele>
        <time>2023-11-13T11:29:43Z</time>
      </trkpt>
      <trkpt lat="46.93289" lon="-0.87034">
        <ele>122</ele>
        <time>2023-11-13T11:30:40Z</time>
      </trkpt>
      <trkpt lat="46.93308" lon="-0.87096">
        <ele>126</ele>
        <time>2023-11-13T11:31:41Z</time>
      </trkpt>
      <trkpt lat="46.93321" lon="-0.87154">
        <ele>129</ele>
        <time>2023-11-13T11:32:37Z</time>
      </trkpt>
      <trkpt lat="46.93338" lon="-0.87197">
        <ele>131</ele>
        <time>2023-11-13T11:33:22Z</time>
      </trkpt>
      <trkpt lat="46.93381" lon="-0.87223">
        <ele>132</ele>
        <time>2023-11-13T11:34:24Z</time>
      </trkpt>
      <trkpt lat="46.93375" lon="-0.87292">
        <ele>134</ele>
        <time>2023-11-13T11:35:28Z</time>
      </trkpt>
      <trkpt lat="46.93356" lon="-0.87354">
        <ele>136</ele>
        <time>2023-11-13T11:36:30Z</time>
      </trkpt>
      <trkpt lat="46.9341" lon="-0.87365">
        <ele>134</ele>
        <time>2023-11-13T11:37:43Z</time>
      </trkpt>
      <trkpt lat="46.93464" lon="-0.87395">
        <ele>135</ele>
        <time>2023-11-13T11:39:00Z</time>
      </trkpt>
      <trkpt lat="46.93502" lon="-0.87412">
        <ele>136</ele>
        <time>2023-11-13T11:39:53Z</time>
      </trkpt>
      <trkpt lat="46.93538" lon="-0.87435">
        <ele>137</ele>
        <time>2023-11-13T11:40:45Z</time>
      </trkpt>
      <trkpt lat="46.93546" lon="-0.8748">
        <ele>136</ele>
        <time>2023-11-13T11:41:27Z</time>
      </trkpt>
      <trkpt lat="46.93517" lon="-0.87485">
        <ele>137</ele>
        <time>2023-11-13T11:42:06Z</time>
      </trkpt>
      <trkpt lat="46.93497" lon="-0.87493">
        <ele>137</ele>
        <time>2023-11-13T11:42:34Z</time>
      </trkpt>
      <trkpt lat="46.93504" lon="-0.87536">
        <ele>135</ele>
        <time>2023-11-13T11:43:14Z</time>
      </trkpt>
      <trkpt lat="46.93621" lon="-0.87639">
        <ele>136</ele>
        <time>2023-11-13T11:46:16Z</time>
      </trkpt>
      <trkpt lat="46.93653" lon="-0.87691">
        <ele>139</ele>
        <time>2023-11-13T11:47:20Z</time>
      </trkpt>
      <trkpt lat="46.93678" lon="-0.87815">
        <ele>140</ele>
        <time>2023-11-13T11:49:18Z</time>
      </trkpt>
      <trkpt lat="46.93709" lon="-0.87877">
        <ele>140</ele>
        <time>2023-11-13T11:50:28Z</time>
      </trkpt>
      <trkpt lat="46.93735" lon="-0.87946">
        <ele>139</ele>
        <time>2023-11-13T11:51:40Z</time>
      </trkpt>
      <trkpt lat="46.93746" lon="-0.88021">
        <ele>140</ele>
        <time>2023-11-13T11:52:50Z</time>
      </trkpt>
      <trkpt lat="46.93782" lon="-0.88058">
        <ele>140</ele>
        <time>2023-11-13T11:53:48Z</time>
      </trkpt>
      <trkpt lat="46.93826" lon="-0.88094">
        <ele>138</ele>
        <time>2023-11-13T11:54:56Z</time>
      </trkpt>
      <trkpt lat="46.93866" lon="-0.88133">
        <ele>137</ele>
        <time>2023-11-13T11:56:00Z</time>
      </trkpt>
      <trkpt lat="46.93888" lon="-0.88208">
        <ele>138</ele>
        <time>2023-11-13T11:57:14Z</time>
      </trkpt>
      <trkpt lat="46.9391" lon="-0.88255">
        <ele>141</ele>
        <time>2023-11-13T11:58:06Z</time>
      </trkpt>
      <trkpt lat="46.94036" lon="-0.88345">
        <ele>159</ele>
        <time>2023-11-13T12:01:13Z</time>
      </trkpt>
      <trkpt lat="46.94065" lon="-0.88373">
        <ele>162</ele>
        <time>2023-11-13T12:02:00Z</time>
      </trkpt>
      <trkpt lat="46.94106" lon="-0.88392">
        <ele>164</ele>
        <time>2023-11-13T12:02:57Z</time>
      </trkpt>
      <trkpt lat="46.94146" lon="-0.88401">
        <ele>166</ele>
        <time>2023-11-13T12:03:51Z</time>
      </trkpt>
      <trkpt lat="46.94182" lon="-0.88433">
        <ele>167</ele>
        <time>2023-11-13T12:04:47Z</time>
      </trkpt>
      <trkpt lat="46.9426" lon="-0.88525">
        <ele>165</ele>
        <time>2023-11-13T12:07:01Z</time>
      </trkpt>
      <trkpt lat="46.94288" lon="-0.88583">
        <ele>165</ele>
        <time>2023-11-13T12:08:06Z</time>
      </trkpt>
      <trkpt lat="46.9431" lon="-0.88646">
        <ele>166</ele>
        <time>2023-11-13T12:09:10Z</time>
      </trkpt>
      <trkpt lat="46.94336" lon="-0.88577">
        <ele>164</ele>
        <time>2023-11-13T12:10:22Z</time>
      </trkpt>
      <trkpt lat="46.94355" lon="-0.88549">
        <ele>162</ele>
        <time>2023-11-13T12:10:58Z</time>
      </trkpt>
      <trkpt lat="46.94371" lon="-0.88498">
        <ele>160</ele>
        <time>2023-11-13T12:11:49Z</time>
      </trkpt>
      <trkpt lat="46.94395" lon="-0.88437">
        <ele>157</ele>
        <time>2023-11-13T12:12:53Z</time>
      </trkpt>
      <trkpt lat="46.94418" lon="-0.88392">
        <ele>152</ele>
        <time>2023-11-13T12:13:44Z</time>
      </trkpt>
      <trkpt lat="46.94456" lon="-0.88388">
        <ele>150</ele>
        <time>2023-11-13T12:14:35Z</time>
      </trkpt>
      <trkpt lat="46.94491" lon="-0.88365">
        <ele>146</ele>
        <time>2023-11-13T12:15:26Z</time>
      </trkpt>
      <trkpt lat="46.94521" lon="-0.88382">
        <ele>147</ele>
        <time>2023-11-13T12:16:09Z</time>
      </trkpt>
      <trkpt lat="46.94532" lon="-0.88422">
        <ele>150</ele>
        <time>2023-11-13T12:16:49Z</time>
      </trkpt>
      <trkpt lat="46.94566" lon="-0.88442">
        <ele>153</ele>
        <time>2023-11-13T12:17:37Z</time>
      </trkpt>
      <trkpt lat="46.94603" lon="-0.88427">
        <ele>152</ele>
        <time>2023-11-13T12:18:29Z</time>
      </trkpt>
      <trkpt lat="46.94645" lon="-0.88405">
        <ele>148</ele>
        <time>2023-11-13T12:19:28Z</time>
      </trkpt>
      <trkpt lat="46.94689" lon="-0.88365">
        <ele>143</ele>
        <time>2023-11-13T12:20:37Z</time>
      </trkpt>
      <trkpt lat="46.94774" lon="-0.88325">
        <ele>136</ele>
        <time>2023-11-13T12:22:36Z</time>
      </trkpt>
      <trkpt lat="46.94803" lon="-0.88256">
        <ele>127</ele>
        <time>2023-11-13T12:23:50Z</time>
      </trkpt>
      <trkpt lat="46.9474" lon="-0.88245">
        <ele>129</ele>
        <time>2023-11-13T12:25:15Z</time>
      </trkpt>
      <trkpt lat="46.94767" lon="-0.88227">
        <ele>126</ele>
        <time>2023-11-13T12:25:54Z</time>
      </trkpt>
      <trkpt lat="46.94808" lon="-0.88223">
        <ele>123</ele>
        <time>2023-11-13T12:26:49Z</time>
      </trkpt>
      <trkpt lat="46.94822" lon="-0.88182">
        <ele>119</ele>
        <time>2023-11-13T12:27:31Z</time>
      </trkpt>
      <trkpt lat="46.94836" lon="-0.88107">
        <ele>116</ele>
        <time>2023-11-13T12:28:42Z</time>
      </trkpt>
      <trkpt lat="46.94856" lon="-0.88073">
        <ele>115</ele>
        <time>2023-11-13T12:29:23Z</time>
      </trkpt>
      <trkpt lat="46.94949" lon="-0.8815">
        <ele>116</ele>
        <time>2023-11-13T12:31:45Z</time>
      </trkpt>
      <trkpt lat="46.9496" lon="-0.88152">
        <ele>116</ele>
        <time>2023-11-13T12:32:00Z</time>
      </trkpt>
      <trkpt lat="46.94977" lon="-0.88143">
        <ele>117</ele>
        <time>2023-11-13T12:32:24Z</time>
      </trkpt>
      <trkpt lat="46.94996" lon="-0.8814">
        <ele>118</ele>
        <time>2023-11-13T12:32:50Z</time>
      </trkpt>
      <trkpt lat="46.95013" lon="-0.88147">
        <ele>120</ele>
        <time>2023-11-13T12:33:13Z</time>
      </trkpt>
      <trkpt lat="46.95058" lon="-0.88197">
        <ele>123</ele>
        <time>2023-11-13T12:34:29Z</time>
      </trkpt>
      <trkpt lat="46.9507" lon="-0.88218">
        <ele>123</ele>
        <time>2023-11-13T12:34:54Z</time>
      </trkpt>
      <trkpt lat="46.95081" lon="-0.88239">
        <ele>123</ele>
        <time>2023-11-13T12:35:18Z</time>
      </trkpt>
      <trkpt lat="46.95096" lon="-0.88289">
        <ele>122</ele>
        <time>2023-11-13T12:36:08Z</time>
      </trkpt>
      <trkpt lat="46.95106" lon="-0.88311">
        <ele>122</ele>
        <time>2023-11-13T12:36:32Z</time>
      </trkpt>
      <trkpt lat="46.95121" lon="-0.88328">
        <ele>122</ele>
        <time>2023-11-13T12:36:57Z</time>
      </trkpt>
      <trkpt lat="46.95154" lon="-0.88352">
        <ele>122</ele>
        <time>2023-11-13T12:37:46Z</time>
      </trkpt>
      <trkpt lat="46.95169" lon="-0.88367">
        <ele>121</ele>
        <time>2023-11-13T12:38:10Z</time>
      </trkpt>
      <trkpt lat="46.95187" lon="-0.8837">
        <ele>121</ele>
        <time>2023-11-13T12:38:34Z</time>
      </trkpt>
      <trkpt lat="46.95204" lon="-0.88379">
        <ele>121</ele>
        <time>2023-11-13T12:38:59Z</time>
      </trkpt>
      <trkpt lat="46.95223" lon="-0.8838">
        <ele>121</ele>
        <time>2023-11-13T12:39:24Z</time>
      </trkpt>
      <trkpt lat="46.95261" lon="-0.8839">
        <ele>119</ele>
        <time>2023-11-13T12:40:15Z</time>
      </trkpt>
      <trkpt lat="46.95298" lon="-0.8838">
        <ele>118</ele>
        <time>2023-11-13T12:41:06Z</time>
      </trkpt>
      <trkpt lat="46.95334" lon="-0.88363">
        <ele>116</ele>
        <time>2023-11-13T12:41:56Z</time>
      </trkpt>
      <trkpt lat="46.95352" lon="-0.8837">
        <ele>115</ele>
        <time>2023-11-13T12:42:21Z</time>
      </trkpt>
      <trkpt lat="46.95366" lon="-0.88388">
        <ele>113</ele>
        <time>2023-11-13T12:42:46Z</time>
      </trkpt>
      <trkpt lat="46.95384" lon="-0.88381">
        <ele>113</ele>
        <time>2023-11-13T12:43:11Z</time>
      </trkpt>
      <trkpt lat="46.95458" lon="-0.88366">
        <ele>113</ele>
        <time>2023-11-13T12:44:50Z</time>
      </trkpt>
      <trkpt lat="46.95487" lon="-0.88331">
        <ele>114</ele>
        <time>2023-11-13T12:45:41Z</time>
      </trkpt>
      <trkpt lat="46.95503" lon="-0.88318">
        <ele>116</ele>
        <time>2023-11-13T12:46:05Z</time>
      </trkpt>
      <trkpt lat="46.95521" lon="-0.88313">
        <ele>118</ele>
        <time>2023-11-13T12:46:29Z</time>
      </trkpt>
      <trkpt lat="46.95539" lon="-0.88314">
        <ele>118</ele>
        <time>2023-11-13T12:46:53Z</time>
      </trkpt>
      <trkpt lat="46.95558" lon="-0.88317">
        <ele>118</ele>
        <time>2023-11-13T12:47:19Z</time>
      </trkpt>
      <trkpt lat="46.95576" lon="-0.88325">
        <ele>118</ele>
        <time>2023-11-13T12:47:44Z</time>
      </trkpt>
      <trkpt lat="46.95604" lon="-0.88361">
        <ele>114</ele>
        <time>2023-11-13T12:48:34Z</time>
      </trkpt>
      <trkpt lat="46.9562" lon="-0.88375">
        <ele>113</ele>
        <time>2023-11-13T12:48:59Z</time>
      </trkpt>
      <trkpt lat="46.95656" lon="-0.88392">
        <ele>112</ele>
        <time>2023-11-13T12:49:49Z</time>
      </trkpt>
      <trkpt lat="46.95673" lon="-0.88405">
        <ele>111</ele>
        <time>2023-11-13T12:50:15Z</time>
      </trkpt>
      <trkpt lat="46.95715" lon="-0.88458">
        <ele>111</ele>
        <time>2023-11-13T12:51:29Z</time>
      </trkpt>
      <trkpt lat="46.95761" lon="-0.88503">
        <ele>110</ele>
        <time>2023-11-13T12:52:42Z</time>
      </trkpt>
      <trkpt lat="46.95787" lon="-0.88542">
        <ele>111</ele>
        <time>2023-11-13T12:53:32Z</time>
      </trkpt>
      <trkpt lat="46.95802" lon="-0.88557">
        <ele>111</ele>
        <time>2023-11-13T12:53:56Z</time>
      </trkpt>
      <trkpt lat="46.95835" lon="-0.88624">
        <ele>111</ele>
        <time>2023-11-13T12:55:12Z</time>
      </trkpt>
      <trkpt lat="46.95859" lon="-0.88664">
        <ele>111</ele>
        <time>2023-11-13T12:56:00Z</time>
      </trkpt>
      <trkpt lat="46.95844" lon="-0.88678">
        <ele>111</ele>
        <time>2023-11-13T12:56:24Z</time>
      </trkpt>
    </trkseg>
  </trk>
</gpx>